<?xml version="1.0" encoding="UTF-8" standalone="no" ?>
<gpx xmlns="http://www.topografix.com/GPX/1/1" xmlns:xsi="http://www.w3.org/2001/XMLSchema-instance" xsi:schemaLocation="http://www.topografix.com/GPX/1/1 http://www.topografix.com/GPX/1/1/gpx.xsd" version="1.1" creator="VisuGPX - https://www.visugpx.com">
  <metadata>
    <name>83-libre-Villecroze</name>
    <desc><![CDATA[83-libre-Villecroze _ Babadié-Cagnosc
2021-04-25]]></desc>
  </metadata>
  <trk>
    <name><![CDATA[2021-04-25-A2-cagnosc]]></name>
    <trkseg>
      <trkpt lat="43.54251" lon="6.31349">
        <ele>372.5</ele>
        <time>2021-04-25T06:46:36Z</time>
      </trkpt>
      <trkpt lat="43.54251" lon="6.31349">
        <ele>372.4</ele>
        <time>2021-04-25T06:46:37Z</time>
      </trkpt>
      <trkpt lat="43.54251" lon="6.31349">
        <ele>372.8</ele>
        <time>2021-04-25T06:47:10Z</time>
      </trkpt>
      <trkpt lat="43.54251" lon="6.31349">
        <ele>372.8</ele>
        <time>2021-04-25T06:47:10Z</time>
      </trkpt>
      <trkpt lat="43.54251" lon="6.31348">
        <ele>372.7</ele>
        <time>2021-04-25T06:47:16Z</time>
      </trkpt>
      <trkpt lat="43.54251" lon="6.31348">
        <ele>372</ele>
        <time>2021-04-25T06:47:22Z</time>
      </trkpt>
      <trkpt lat="43.54251" lon="6.31347">
        <ele>372.2</ele>
        <time>2021-04-25T06:47:32Z</time>
      </trkpt>
      <trkpt lat="43.54251" lon="6.31348">
        <ele>372</ele>
        <time>2021-04-25T06:47:37Z</time>
      </trkpt>
      <trkpt lat="43.54251" lon="6.31347">
        <ele>371.9</ele>
        <time>2021-04-25T06:47:38Z</time>
      </trkpt>
      <trkpt lat="43.54251" lon="6.31347">
        <ele>372</ele>
        <time>2021-04-25T06:47:49Z</time>
      </trkpt>
      <trkpt lat="43.54251" lon="6.31347">
        <ele>371.9</ele>
        <time>2021-04-25T06:47:50Z</time>
      </trkpt>
      <trkpt lat="43.54251" lon="6.31347">
        <ele>371.8</ele>
        <time>2021-04-25T06:47:54Z</time>
      </trkpt>
      <trkpt lat="43.5425" lon="6.31347">
        <ele>372.8</ele>
        <time>2021-04-25T06:47:58Z</time>
      </trkpt>
      <trkpt lat="43.5425" lon="6.31347">
        <ele>372.7</ele>
        <time>2021-04-25T06:47:59Z</time>
      </trkpt>
      <trkpt lat="43.5425" lon="6.31347">
        <ele>372.6</ele>
        <time>2021-04-25T06:48:00Z</time>
      </trkpt>
      <trkpt lat="43.5425" lon="6.31347">
        <ele>372.3</ele>
        <time>2021-04-25T06:48:04Z</time>
      </trkpt>
      <trkpt lat="43.54251" lon="6.31347">
        <ele>372.1</ele>
        <time>2021-04-25T06:48:10Z</time>
      </trkpt>
      <trkpt lat="43.54251" lon="6.31347">
        <ele>372</ele>
        <time>2021-04-25T06:48:20Z</time>
      </trkpt>
      <trkpt lat="43.5425" lon="6.31348">
        <ele>371.8</ele>
        <time>2021-04-25T06:48:25Z</time>
      </trkpt>
      <trkpt lat="43.5425" lon="6.31348">
        <ele>371.9</ele>
        <time>2021-04-25T06:48:49Z</time>
      </trkpt>
      <trkpt lat="43.54254" lon="6.31342">
        <ele>371.6</ele>
        <time>2021-04-25T06:48:57Z</time>
      </trkpt>
      <trkpt lat="43.54254" lon="6.31341">
        <ele>371.7</ele>
        <time>2021-04-25T06:48:59Z</time>
      </trkpt>
      <trkpt lat="43.54252" lon="6.31344">
        <ele>371.8</ele>
        <time>2021-04-25T06:49:06Z</time>
      </trkpt>
      <trkpt lat="43.54253" lon="6.31344">
        <ele>371.9</ele>
        <time>2021-04-25T06:49:10Z</time>
      </trkpt>
      <trkpt lat="43.5426" lon="6.31335">
        <ele>371.8</ele>
        <time>2021-04-25T06:49:20Z</time>
      </trkpt>
      <trkpt lat="43.54257" lon="6.31329">
        <ele>371.8</ele>
        <time>2021-04-25T06:49:27Z</time>
      </trkpt>
      <trkpt lat="43.54257" lon="6.31328">
        <ele>371.5</ele>
        <time>2021-04-25T06:49:29Z</time>
      </trkpt>
      <trkpt lat="43.54253" lon="6.31324">
        <ele>371.7</ele>
        <time>2021-04-25T06:49:35Z</time>
      </trkpt>
      <trkpt lat="43.54253" lon="6.31324">
        <ele>371.9</ele>
        <time>2021-04-25T06:49:37Z</time>
      </trkpt>
      <trkpt lat="43.54249" lon="6.31312">
        <ele>371.6</ele>
        <time>2021-04-25T06:49:47Z</time>
      </trkpt>
      <trkpt lat="43.54246" lon="6.31301">
        <ele>372</ele>
        <time>2021-04-25T06:49:58Z</time>
      </trkpt>
      <trkpt lat="43.54239" lon="6.31291">
        <ele>373.3</ele>
        <time>2021-04-25T06:50:08Z</time>
      </trkpt>
      <trkpt lat="43.54234" lon="6.31282">
        <ele>373.6</ele>
        <time>2021-04-25T06:50:23Z</time>
      </trkpt>
      <trkpt lat="43.54234" lon="6.31282">
        <ele>373.7</ele>
        <time>2021-04-25T06:50:24Z</time>
      </trkpt>
      <trkpt lat="43.54234" lon="6.31281">
        <ele>373.8</ele>
        <time>2021-04-25T06:50:26Z</time>
      </trkpt>
      <trkpt lat="43.54234" lon="6.31281">
        <ele>373.8</ele>
        <time>2021-04-25T06:50:27Z</time>
      </trkpt>
      <trkpt lat="43.54232" lon="6.31282">
        <ele>373.7</ele>
        <time>2021-04-25T06:50:32Z</time>
      </trkpt>
      <trkpt lat="43.54232" lon="6.31282">
        <ele>373.7</ele>
        <time>2021-04-25T06:50:33Z</time>
      </trkpt>
      <trkpt lat="43.54232" lon="6.31282">
        <ele>373.7</ele>
        <time>2021-04-25T06:50:35Z</time>
      </trkpt>
      <trkpt lat="43.54232" lon="6.31282">
        <ele>373.5</ele>
        <time>2021-04-25T06:50:38Z</time>
      </trkpt>
      <trkpt lat="43.54231" lon="6.31282">
        <ele>373.6</ele>
        <time>2021-04-25T06:50:48Z</time>
      </trkpt>
      <trkpt lat="43.5423" lon="6.31281">
        <ele>373.6</ele>
        <time>2021-04-25T06:50:49Z</time>
      </trkpt>
      <trkpt lat="43.5423" lon="6.31281">
        <ele>373.6</ele>
        <time>2021-04-25T06:50:50Z</time>
      </trkpt>
      <trkpt lat="43.5423" lon="6.31282">
        <ele>373.5</ele>
        <time>2021-04-25T06:51:21Z</time>
      </trkpt>
      <trkpt lat="43.54231" lon="6.31282">
        <ele>373.7</ele>
        <time>2021-04-25T06:51:23Z</time>
      </trkpt>
      <trkpt lat="43.5423" lon="6.31282">
        <ele>373.6</ele>
        <time>2021-04-25T06:51:30Z</time>
      </trkpt>
      <trkpt lat="43.54221" lon="6.31288">
        <ele>373.5</ele>
        <time>2021-04-25T06:51:47Z</time>
      </trkpt>
      <trkpt lat="43.54213" lon="6.31294">
        <ele>373.2</ele>
        <time>2021-04-25T06:51:57Z</time>
      </trkpt>
      <trkpt lat="43.54205" lon="6.31298">
        <ele>372.7</ele>
        <time>2021-04-25T06:52:08Z</time>
      </trkpt>
      <trkpt lat="43.54196" lon="6.31301">
        <ele>372.7</ele>
        <time>2021-04-25T06:52:17Z</time>
      </trkpt>
      <trkpt lat="43.54186" lon="6.31303">
        <ele>373.1</ele>
        <time>2021-04-25T06:52:26Z</time>
      </trkpt>
      <trkpt lat="43.54177" lon="6.31303">
        <ele>374</ele>
        <time>2021-04-25T06:52:35Z</time>
      </trkpt>
      <trkpt lat="43.54167" lon="6.31304">
        <ele>373.9</ele>
        <time>2021-04-25T06:52:45Z</time>
      </trkpt>
      <trkpt lat="43.54158" lon="6.31303">
        <ele>373.7</ele>
        <time>2021-04-25T06:52:55Z</time>
      </trkpt>
      <trkpt lat="43.5415" lon="6.31304">
        <ele>373.9</ele>
        <time>2021-04-25T06:53:04Z</time>
      </trkpt>
      <trkpt lat="43.5415" lon="6.31303">
        <ele>373.9</ele>
        <time>2021-04-25T06:53:07Z</time>
      </trkpt>
      <trkpt lat="43.5415" lon="6.31303">
        <ele>374</ele>
        <time>2021-04-25T06:53:10Z</time>
      </trkpt>
      <trkpt lat="43.54149" lon="6.31302">
        <ele>374</ele>
        <time>2021-04-25T06:53:12Z</time>
      </trkpt>
      <trkpt lat="43.54144" lon="6.31291">
        <ele>373.8</ele>
        <time>2021-04-25T06:53:25Z</time>
      </trkpt>
      <trkpt lat="43.5414" lon="6.3128">
        <ele>374.2</ele>
        <time>2021-04-25T06:53:35Z</time>
      </trkpt>
      <trkpt lat="43.54135" lon="6.31268">
        <ele>374.3</ele>
        <time>2021-04-25T06:53:44Z</time>
      </trkpt>
      <trkpt lat="43.54131" lon="6.31256">
        <ele>374.6</ele>
        <time>2021-04-25T06:53:53Z</time>
      </trkpt>
      <trkpt lat="43.54127" lon="6.31244">
        <ele>374.5</ele>
        <time>2021-04-25T06:54:02Z</time>
      </trkpt>
      <trkpt lat="43.54125" lon="6.31231">
        <ele>374.8</ele>
        <time>2021-04-25T06:54:12Z</time>
      </trkpt>
      <trkpt lat="43.54122" lon="6.31219">
        <ele>375</ele>
        <time>2021-04-25T06:54:21Z</time>
      </trkpt>
      <trkpt lat="43.5412" lon="6.31207">
        <ele>374.6</ele>
        <time>2021-04-25T06:54:29Z</time>
      </trkpt>
      <trkpt lat="43.5412" lon="6.31194">
        <ele>373.9</ele>
        <time>2021-04-25T06:54:38Z</time>
      </trkpt>
      <trkpt lat="43.54118" lon="6.31181">
        <ele>373.5</ele>
        <time>2021-04-25T06:54:47Z</time>
      </trkpt>
      <trkpt lat="43.54117" lon="6.31168">
        <ele>373</ele>
        <time>2021-04-25T06:54:57Z</time>
      </trkpt>
      <trkpt lat="43.54114" lon="6.31155">
        <ele>372.7</ele>
        <time>2021-04-25T06:55:06Z</time>
      </trkpt>
      <trkpt lat="43.54111" lon="6.31142">
        <ele>372.3</ele>
        <time>2021-04-25T06:55:16Z</time>
      </trkpt>
      <trkpt lat="43.54109" lon="6.3113">
        <ele>372.4</ele>
        <time>2021-04-25T06:55:25Z</time>
      </trkpt>
      <trkpt lat="43.54106" lon="6.31117">
        <ele>372.2</ele>
        <time>2021-04-25T06:55:34Z</time>
      </trkpt>
      <trkpt lat="43.54106" lon="6.31103">
        <ele>371.9</ele>
        <time>2021-04-25T06:55:43Z</time>
      </trkpt>
      <trkpt lat="43.54102" lon="6.31091">
        <ele>372</ele>
        <time>2021-04-25T06:55:53Z</time>
      </trkpt>
      <trkpt lat="43.54093" lon="6.31087">
        <ele>371.8</ele>
        <time>2021-04-25T06:56:02Z</time>
      </trkpt>
      <trkpt lat="43.5409" lon="6.31085">
        <ele>372.2</ele>
        <time>2021-04-25T06:56:07Z</time>
      </trkpt>
      <trkpt lat="43.5409" lon="6.31085">
        <ele>372.3</ele>
        <time>2021-04-25T06:56:09Z</time>
      </trkpt>
      <trkpt lat="43.54089" lon="6.31086">
        <ele>372.1</ele>
        <time>2021-04-25T06:56:13Z</time>
      </trkpt>
      <trkpt lat="43.54089" lon="6.31086">
        <ele>372.2</ele>
        <time>2021-04-25T06:56:16Z</time>
      </trkpt>
      <trkpt lat="43.54089" lon="6.31086">
        <ele>372.2</ele>
        <time>2021-04-25T06:56:17Z</time>
      </trkpt>
      <trkpt lat="43.54089" lon="6.31086">
        <ele>372.2</ele>
        <time>2021-04-25T06:56:19Z</time>
      </trkpt>
      <trkpt lat="43.54089" lon="6.31086">
        <ele>372</ele>
        <time>2021-04-25T06:56:21Z</time>
      </trkpt>
      <trkpt lat="43.54089" lon="6.31086">
        <ele>371.9</ele>
        <time>2021-04-25T06:56:23Z</time>
      </trkpt>
      <trkpt lat="43.54088" lon="6.31095">
        <ele>372</ele>
        <time>2021-04-25T06:56:34Z</time>
      </trkpt>
      <trkpt lat="43.54088" lon="6.31095">
        <ele>372</ele>
        <time>2021-04-25T06:56:35Z</time>
      </trkpt>
      <trkpt lat="43.54088" lon="6.31095">
        <ele>371.8</ele>
        <time>2021-04-25T06:56:36Z</time>
      </trkpt>
      <trkpt lat="43.54088" lon="6.31095">
        <ele>371.6</ele>
        <time>2021-04-25T06:56:47Z</time>
      </trkpt>
      <trkpt lat="43.54088" lon="6.31095">
        <ele>371.6</ele>
        <time>2021-04-25T06:56:51Z</time>
      </trkpt>
      <trkpt lat="43.54088" lon="6.31096">
        <ele>371.4</ele>
        <time>2021-04-25T06:57:00Z</time>
      </trkpt>
      <trkpt lat="43.54088" lon="6.31097">
        <ele>371.6</ele>
        <time>2021-04-25T06:57:02Z</time>
      </trkpt>
      <trkpt lat="43.54088" lon="6.31097">
        <ele>371.7</ele>
        <time>2021-04-25T06:57:03Z</time>
      </trkpt>
      <trkpt lat="43.54088" lon="6.31097">
        <ele>371.7</ele>
        <time>2021-04-25T06:57:04Z</time>
      </trkpt>
      <trkpt lat="43.54088" lon="6.31097">
        <ele>371.7</ele>
        <time>2021-04-25T06:57:24Z</time>
      </trkpt>
      <trkpt lat="43.54089" lon="6.31084">
        <ele>371.9</ele>
        <time>2021-04-25T06:57:33Z</time>
      </trkpt>
      <trkpt lat="43.5409" lon="6.3107">
        <ele>371.7</ele>
        <time>2021-04-25T06:57:41Z</time>
      </trkpt>
      <trkpt lat="43.5409" lon="6.31055">
        <ele>371.8</ele>
        <time>2021-04-25T06:57:49Z</time>
      </trkpt>
      <trkpt lat="43.54091" lon="6.31042">
        <ele>371.4</ele>
        <time>2021-04-25T06:57:57Z</time>
      </trkpt>
      <trkpt lat="43.5409" lon="6.31029">
        <ele>370.4</ele>
        <time>2021-04-25T06:58:03Z</time>
      </trkpt>
      <trkpt lat="43.5409" lon="6.31016">
        <ele>369.6</ele>
        <time>2021-04-25T06:58:13Z</time>
      </trkpt>
      <trkpt lat="43.54089" lon="6.31003">
        <ele>369.5</ele>
        <time>2021-04-25T06:58:20Z</time>
      </trkpt>
      <trkpt lat="43.54089" lon="6.3099">
        <ele>369.7</ele>
        <time>2021-04-25T06:58:28Z</time>
      </trkpt>
      <trkpt lat="43.5409" lon="6.30976">
        <ele>369.7</ele>
        <time>2021-04-25T06:58:37Z</time>
      </trkpt>
      <trkpt lat="43.54091" lon="6.30963">
        <ele>369.9</ele>
        <time>2021-04-25T06:58:46Z</time>
      </trkpt>
      <trkpt lat="43.5409" lon="6.3095">
        <ele>370.2</ele>
        <time>2021-04-25T06:58:55Z</time>
      </trkpt>
      <trkpt lat="43.54091" lon="6.30937">
        <ele>370.4</ele>
        <time>2021-04-25T06:59:06Z</time>
      </trkpt>
      <trkpt lat="43.54092" lon="6.30923">
        <ele>370.6</ele>
        <time>2021-04-25T06:59:15Z</time>
      </trkpt>
      <trkpt lat="43.5409" lon="6.3091">
        <ele>371.5</ele>
        <time>2021-04-25T06:59:25Z</time>
      </trkpt>
      <trkpt lat="43.54093" lon="6.30897">
        <ele>372.1</ele>
        <time>2021-04-25T06:59:32Z</time>
      </trkpt>
      <trkpt lat="43.54094" lon="6.30887">
        <ele>372.5</ele>
        <time>2021-04-25T06:59:40Z</time>
      </trkpt>
      <trkpt lat="43.54094" lon="6.30886">
        <ele>372.5</ele>
        <time>2021-04-25T06:59:41Z</time>
      </trkpt>
      <trkpt lat="43.54094" lon="6.30873">
        <ele>373.1</ele>
        <time>2021-04-25T06:59:50Z</time>
      </trkpt>
      <trkpt lat="43.54095" lon="6.30859">
        <ele>374.1</ele>
        <time>2021-04-25T07:00:00Z</time>
      </trkpt>
      <trkpt lat="43.54095" lon="6.30846">
        <ele>375.3</ele>
        <time>2021-04-25T07:00:09Z</time>
      </trkpt>
      <trkpt lat="43.54096" lon="6.30833">
        <ele>376.2</ele>
        <time>2021-04-25T07:00:19Z</time>
      </trkpt>
      <trkpt lat="43.54098" lon="6.30819">
        <ele>377.7</ele>
        <time>2021-04-25T07:00:29Z</time>
      </trkpt>
      <trkpt lat="43.54099" lon="6.30815">
        <ele>378.2</ele>
        <time>2021-04-25T07:00:36Z</time>
      </trkpt>
      <trkpt lat="43.54099" lon="6.30814">
        <ele>378.2</ele>
        <time>2021-04-25T07:00:39Z</time>
      </trkpt>
      <trkpt lat="43.541" lon="6.30801">
        <ele>379.6</ele>
        <time>2021-04-25T07:00:49Z</time>
      </trkpt>
      <trkpt lat="43.54099" lon="6.30788">
        <ele>381.5</ele>
        <time>2021-04-25T07:01:01Z</time>
      </trkpt>
      <trkpt lat="43.54097" lon="6.30775">
        <ele>383</ele>
        <time>2021-04-25T07:01:11Z</time>
      </trkpt>
      <trkpt lat="43.54095" lon="6.30762">
        <ele>384.3</ele>
        <time>2021-04-25T07:01:22Z</time>
      </trkpt>
      <trkpt lat="43.54098" lon="6.30749">
        <ele>385.5</ele>
        <time>2021-04-25T07:01:33Z</time>
      </trkpt>
      <trkpt lat="43.541" lon="6.30737">
        <ele>386.6</ele>
        <time>2021-04-25T07:01:42Z</time>
      </trkpt>
      <trkpt lat="43.54104" lon="6.30725">
        <ele>387.8</ele>
        <time>2021-04-25T07:01:53Z</time>
      </trkpt>
      <trkpt lat="43.54108" lon="6.30713">
        <ele>389.2</ele>
        <time>2021-04-25T07:02:02Z</time>
      </trkpt>
      <trkpt lat="43.5411" lon="6.30701">
        <ele>391.2</ele>
        <time>2021-04-25T07:02:14Z</time>
      </trkpt>
      <trkpt lat="43.54112" lon="6.30689">
        <ele>392.5</ele>
        <time>2021-04-25T07:02:24Z</time>
      </trkpt>
      <trkpt lat="43.54113" lon="6.30676">
        <ele>393.1</ele>
        <time>2021-04-25T07:02:34Z</time>
      </trkpt>
      <trkpt lat="43.54118" lon="6.30665">
        <ele>392.8</ele>
        <time>2021-04-25T07:02:46Z</time>
      </trkpt>
      <trkpt lat="43.54117" lon="6.30665">
        <ele>392.8</ele>
        <time>2021-04-25T07:02:47Z</time>
      </trkpt>
      <trkpt lat="43.5412" lon="6.30662">
        <ele>392.7</ele>
        <time>2021-04-25T07:02:57Z</time>
      </trkpt>
      <trkpt lat="43.5412" lon="6.30663">
        <ele>392.8</ele>
        <time>2021-04-25T07:02:58Z</time>
      </trkpt>
      <trkpt lat="43.5412" lon="6.30663">
        <ele>392.7</ele>
        <time>2021-04-25T07:03:00Z</time>
      </trkpt>
      <trkpt lat="43.5412" lon="6.30663">
        <ele>392.6</ele>
        <time>2021-04-25T07:03:01Z</time>
      </trkpt>
      <trkpt lat="43.54119" lon="6.30664">
        <ele>392.7</ele>
        <time>2021-04-25T07:03:03Z</time>
      </trkpt>
      <trkpt lat="43.54119" lon="6.30664">
        <ele>392.6</ele>
        <time>2021-04-25T07:03:13Z</time>
      </trkpt>
      <trkpt lat="43.54119" lon="6.30664">
        <ele>392.6</ele>
        <time>2021-04-25T07:03:14Z</time>
      </trkpt>
      <trkpt lat="43.54119" lon="6.30663">
        <ele>392.5</ele>
        <time>2021-04-25T07:03:21Z</time>
      </trkpt>
      <trkpt lat="43.54119" lon="6.30663">
        <ele>392.5</ele>
        <time>2021-04-25T07:03:22Z</time>
      </trkpt>
      <trkpt lat="43.54119" lon="6.30663">
        <ele>392.7</ele>
        <time>2021-04-25T07:03:32Z</time>
      </trkpt>
      <trkpt lat="43.54119" lon="6.30663">
        <ele>392.6</ele>
        <time>2021-04-25T07:03:33Z</time>
      </trkpt>
      <trkpt lat="43.54118" lon="6.30663">
        <ele>392.6</ele>
        <time>2021-04-25T07:03:42Z</time>
      </trkpt>
      <trkpt lat="43.54118" lon="6.30663">
        <ele>392.6</ele>
        <time>2021-04-25T07:03:44Z</time>
      </trkpt>
      <trkpt lat="43.54118" lon="6.30663">
        <ele>392.5</ele>
        <time>2021-04-25T07:03:52Z</time>
      </trkpt>
      <trkpt lat="43.54118" lon="6.30663">
        <ele>392.5</ele>
        <time>2021-04-25T07:03:53Z</time>
      </trkpt>
      <trkpt lat="43.54118" lon="6.30663">
        <ele>392.8</ele>
        <time>2021-04-25T07:03:57Z</time>
      </trkpt>
      <trkpt lat="43.54118" lon="6.30663">
        <ele>392.6</ele>
        <time>2021-04-25T07:03:58Z</time>
      </trkpt>
      <trkpt lat="43.54118" lon="6.30663">
        <ele>392.7</ele>
        <time>2021-04-25T07:04:23Z</time>
      </trkpt>
      <trkpt lat="43.54118" lon="6.30664">
        <ele>392.6</ele>
        <time>2021-04-25T07:04:28Z</time>
      </trkpt>
      <trkpt lat="43.54118" lon="6.30664">
        <ele>392.7</ele>
        <time>2021-04-25T07:04:30Z</time>
      </trkpt>
      <trkpt lat="43.54118" lon="6.30664">
        <ele>392.8</ele>
        <time>2021-04-25T07:04:31Z</time>
      </trkpt>
      <trkpt lat="43.54118" lon="6.30664">
        <ele>392.7</ele>
        <time>2021-04-25T07:04:53Z</time>
      </trkpt>
      <trkpt lat="43.54118" lon="6.30664">
        <ele>392.6</ele>
        <time>2021-04-25T07:04:54Z</time>
      </trkpt>
      <trkpt lat="43.54118" lon="6.30664">
        <ele>392.6</ele>
        <time>2021-04-25T07:04:58Z</time>
      </trkpt>
      <trkpt lat="43.54127" lon="6.30667">
        <ele>394.6</ele>
        <time>2021-04-25T07:05:10Z</time>
      </trkpt>
      <trkpt lat="43.54136" lon="6.3067">
        <ele>396.1</ele>
        <time>2021-04-25T07:05:21Z</time>
      </trkpt>
      <trkpt lat="43.54145" lon="6.30672">
        <ele>397.6</ele>
        <time>2021-04-25T07:05:31Z</time>
      </trkpt>
      <trkpt lat="43.54154" lon="6.30673">
        <ele>399.3</ele>
        <time>2021-04-25T07:05:41Z</time>
      </trkpt>
      <trkpt lat="43.54164" lon="6.30676">
        <ele>400.7</ele>
        <time>2021-04-25T07:05:52Z</time>
      </trkpt>
      <trkpt lat="43.54168" lon="6.30678">
        <ele>401.6</ele>
        <time>2021-04-25T07:06:01Z</time>
      </trkpt>
      <trkpt lat="43.54169" lon="6.30678">
        <ele>401.9</ele>
        <time>2021-04-25T07:06:02Z</time>
      </trkpt>
      <trkpt lat="43.54178" lon="6.30679">
        <ele>402.9</ele>
        <time>2021-04-25T07:06:12Z</time>
      </trkpt>
      <trkpt lat="43.54188" lon="6.30677">
        <ele>403.5</ele>
        <time>2021-04-25T07:06:20Z</time>
      </trkpt>
      <trkpt lat="43.54198" lon="6.30676">
        <ele>404.3</ele>
        <time>2021-04-25T07:06:29Z</time>
      </trkpt>
      <trkpt lat="43.54207" lon="6.30675">
        <ele>405.2</ele>
        <time>2021-04-25T07:06:39Z</time>
      </trkpt>
      <trkpt lat="43.54211" lon="6.30676">
        <ele>405.3</ele>
        <time>2021-04-25T07:06:46Z</time>
      </trkpt>
      <trkpt lat="43.5421" lon="6.30676">
        <ele>405.3</ele>
        <time>2021-04-25T07:06:47Z</time>
      </trkpt>
      <trkpt lat="43.5421" lon="6.30676">
        <ele>405.3</ele>
        <time>2021-04-25T07:06:48Z</time>
      </trkpt>
      <trkpt lat="43.54211" lon="6.30675">
        <ele>405.4</ele>
        <time>2021-04-25T07:06:52Z</time>
      </trkpt>
      <trkpt lat="43.54221" lon="6.30673">
        <ele>405.4</ele>
        <time>2021-04-25T07:07:00Z</time>
      </trkpt>
      <trkpt lat="43.5423" lon="6.30674">
        <ele>405.8</ele>
        <time>2021-04-25T07:07:08Z</time>
      </trkpt>
      <trkpt lat="43.54239" lon="6.30675">
        <ele>405.9</ele>
        <time>2021-04-25T07:07:16Z</time>
      </trkpt>
      <trkpt lat="43.54248" lon="6.30677">
        <ele>406.6</ele>
        <time>2021-04-25T07:07:25Z</time>
      </trkpt>
      <trkpt lat="43.54258" lon="6.30677">
        <ele>407.2</ele>
        <time>2021-04-25T07:07:35Z</time>
      </trkpt>
      <trkpt lat="43.54267" lon="6.30679">
        <ele>407.8</ele>
        <time>2021-04-25T07:07:43Z</time>
      </trkpt>
      <trkpt lat="43.54276" lon="6.30679">
        <ele>407.9</ele>
        <time>2021-04-25T07:07:51Z</time>
      </trkpt>
      <trkpt lat="43.54285" lon="6.30682">
        <ele>407.9</ele>
        <time>2021-04-25T07:07:58Z</time>
      </trkpt>
      <trkpt lat="43.54295" lon="6.30684">
        <ele>408.1</ele>
        <time>2021-04-25T07:08:06Z</time>
      </trkpt>
      <trkpt lat="43.54304" lon="6.30684">
        <ele>409</ele>
        <time>2021-04-25T07:08:13Z</time>
      </trkpt>
      <trkpt lat="43.54314" lon="6.30684">
        <ele>408.6</ele>
        <time>2021-04-25T07:08:19Z</time>
      </trkpt>
      <trkpt lat="43.54323" lon="6.30683">
        <ele>408.6</ele>
        <time>2021-04-25T07:08:26Z</time>
      </trkpt>
      <trkpt lat="43.54333" lon="6.30683">
        <ele>408.2</ele>
        <time>2021-04-25T07:08:34Z</time>
      </trkpt>
      <trkpt lat="43.54343" lon="6.30682">
        <ele>407.9</ele>
        <time>2021-04-25T07:08:43Z</time>
      </trkpt>
      <trkpt lat="43.54352" lon="6.30682">
        <ele>407.6</ele>
        <time>2021-04-25T07:08:52Z</time>
      </trkpt>
      <trkpt lat="43.54361" lon="6.3068">
        <ele>407.3</ele>
        <time>2021-04-25T07:09:00Z</time>
      </trkpt>
      <trkpt lat="43.54371" lon="6.30679">
        <ele>406.6</ele>
        <time>2021-04-25T07:09:08Z</time>
      </trkpt>
      <trkpt lat="43.5438" lon="6.30678">
        <ele>406.1</ele>
        <time>2021-04-25T07:09:16Z</time>
      </trkpt>
      <trkpt lat="43.54389" lon="6.30679">
        <ele>405.3</ele>
        <time>2021-04-25T07:09:26Z</time>
      </trkpt>
      <trkpt lat="43.54394" lon="6.30681">
        <ele>405.3</ele>
        <time>2021-04-25T07:09:34Z</time>
      </trkpt>
      <trkpt lat="43.54394" lon="6.30681">
        <ele>405.3</ele>
        <time>2021-04-25T07:09:35Z</time>
      </trkpt>
      <trkpt lat="43.54394" lon="6.30681">
        <ele>405.2</ele>
        <time>2021-04-25T07:09:37Z</time>
      </trkpt>
      <trkpt lat="43.54395" lon="6.30681">
        <ele>405.1</ele>
        <time>2021-04-25T07:09:39Z</time>
      </trkpt>
      <trkpt lat="43.54404" lon="6.30677">
        <ele>404.9</ele>
        <time>2021-04-25T07:09:54Z</time>
      </trkpt>
      <trkpt lat="43.54413" lon="6.30676">
        <ele>404.6</ele>
        <time>2021-04-25T07:10:03Z</time>
      </trkpt>
      <trkpt lat="43.54423" lon="6.30677">
        <ele>403.9</ele>
        <time>2021-04-25T07:10:12Z</time>
      </trkpt>
      <trkpt lat="43.54432" lon="6.30677">
        <ele>403.4</ele>
        <time>2021-04-25T07:10:20Z</time>
      </trkpt>
      <trkpt lat="43.54442" lon="6.30679">
        <ele>402.5</ele>
        <time>2021-04-25T07:10:35Z</time>
      </trkpt>
      <trkpt lat="43.54451" lon="6.30682">
        <ele>402.3</ele>
        <time>2021-04-25T07:10:43Z</time>
      </trkpt>
      <trkpt lat="43.54459" lon="6.30687">
        <ele>402.1</ele>
        <time>2021-04-25T07:10:50Z</time>
      </trkpt>
      <trkpt lat="43.54468" lon="6.3069">
        <ele>401.3</ele>
        <time>2021-04-25T07:10:59Z</time>
      </trkpt>
      <trkpt lat="43.54478" lon="6.30695">
        <ele>400.7</ele>
        <time>2021-04-25T07:11:05Z</time>
      </trkpt>
      <trkpt lat="43.54486" lon="6.30699">
        <ele>400.3</ele>
        <time>2021-04-25T07:11:12Z</time>
      </trkpt>
      <trkpt lat="43.54496" lon="6.30702">
        <ele>399.9</ele>
        <time>2021-04-25T07:11:20Z</time>
      </trkpt>
      <trkpt lat="43.54505" lon="6.30696">
        <ele>399.7</ele>
        <time>2021-04-25T07:11:30Z</time>
      </trkpt>
      <trkpt lat="43.54506" lon="6.30683">
        <ele>400.5</ele>
        <time>2021-04-25T07:11:41Z</time>
      </trkpt>
      <trkpt lat="43.54507" lon="6.3067">
        <ele>401.8</ele>
        <time>2021-04-25T07:11:51Z</time>
      </trkpt>
      <trkpt lat="43.54508" lon="6.30657">
        <ele>403</ele>
        <time>2021-04-25T07:12:01Z</time>
      </trkpt>
      <trkpt lat="43.5451" lon="6.30645">
        <ele>404.2</ele>
        <time>2021-04-25T07:12:13Z</time>
      </trkpt>
      <trkpt lat="43.54511" lon="6.30632">
        <ele>404.5</ele>
        <time>2021-04-25T07:12:21Z</time>
      </trkpt>
      <trkpt lat="43.54513" lon="6.30619">
        <ele>404.9</ele>
        <time>2021-04-25T07:12:30Z</time>
      </trkpt>
      <trkpt lat="43.54513" lon="6.30606">
        <ele>405.4</ele>
        <time>2021-04-25T07:12:38Z</time>
      </trkpt>
      <trkpt lat="43.54514" lon="6.30593">
        <ele>406.6</ele>
        <time>2021-04-25T07:12:47Z</time>
      </trkpt>
      <trkpt lat="43.54518" lon="6.30581">
        <ele>407.4</ele>
        <time>2021-04-25T07:13:00Z</time>
      </trkpt>
      <trkpt lat="43.54523" lon="6.3057">
        <ele>408.5</ele>
        <time>2021-04-25T07:13:11Z</time>
      </trkpt>
      <trkpt lat="43.54527" lon="6.30565">
        <ele>408.7</ele>
        <time>2021-04-25T07:13:19Z</time>
      </trkpt>
      <trkpt lat="43.54528" lon="6.30565">
        <ele>408.8</ele>
        <time>2021-04-25T07:13:21Z</time>
      </trkpt>
      <trkpt lat="43.54536" lon="6.30561">
        <ele>409.1</ele>
        <time>2021-04-25T07:13:30Z</time>
      </trkpt>
      <trkpt lat="43.54545" lon="6.30555">
        <ele>409.5</ele>
        <time>2021-04-25T07:13:38Z</time>
      </trkpt>
      <trkpt lat="43.54554" lon="6.3055">
        <ele>410.7</ele>
        <time>2021-04-25T07:13:49Z</time>
      </trkpt>
      <trkpt lat="43.54563" lon="6.30544">
        <ele>411.6</ele>
        <time>2021-04-25T07:13:58Z</time>
      </trkpt>
      <trkpt lat="43.54572" lon="6.30539">
        <ele>412.2</ele>
        <time>2021-04-25T07:14:07Z</time>
      </trkpt>
      <trkpt lat="43.54581" lon="6.30535">
        <ele>412.8</ele>
        <time>2021-04-25T07:14:16Z</time>
      </trkpt>
      <trkpt lat="43.54589" lon="6.30529">
        <ele>413.2</ele>
        <time>2021-04-25T07:14:25Z</time>
      </trkpt>
      <trkpt lat="43.54594" lon="6.30519">
        <ele>413.3</ele>
        <time>2021-04-25T07:14:35Z</time>
      </trkpt>
      <trkpt lat="43.54599" lon="6.30508">
        <ele>413.4</ele>
        <time>2021-04-25T07:14:43Z</time>
      </trkpt>
      <trkpt lat="43.54604" lon="6.30497">
        <ele>413.1</ele>
        <time>2021-04-25T07:14:53Z</time>
      </trkpt>
      <trkpt lat="43.54609" lon="6.30485">
        <ele>413.2</ele>
        <time>2021-04-25T07:15:05Z</time>
      </trkpt>
      <trkpt lat="43.54615" lon="6.30476">
        <ele>413.5</ele>
        <time>2021-04-25T07:15:15Z</time>
      </trkpt>
      <trkpt lat="43.54621" lon="6.30466">
        <ele>413.6</ele>
        <time>2021-04-25T07:15:21Z</time>
      </trkpt>
      <trkpt lat="43.54626" lon="6.30455">
        <ele>413.4</ele>
        <time>2021-04-25T07:15:28Z</time>
      </trkpt>
      <trkpt lat="43.54631" lon="6.30443">
        <ele>412.7</ele>
        <time>2021-04-25T07:15:36Z</time>
      </trkpt>
      <trkpt lat="43.54636" lon="6.30433">
        <ele>412.1</ele>
        <time>2021-04-25T07:15:44Z</time>
      </trkpt>
      <trkpt lat="43.5464" lon="6.30422">
        <ele>412</ele>
        <time>2021-04-25T07:15:52Z</time>
      </trkpt>
      <trkpt lat="43.54644" lon="6.3041">
        <ele>411.9</ele>
        <time>2021-04-25T07:16:02Z</time>
      </trkpt>
      <trkpt lat="43.54646" lon="6.30399">
        <ele>411.8</ele>
        <time>2021-04-25T07:16:13Z</time>
      </trkpt>
      <trkpt lat="43.54646" lon="6.304">
        <ele>411.8</ele>
        <time>2021-04-25T07:16:14Z</time>
      </trkpt>
      <trkpt lat="43.54646" lon="6.30401">
        <ele>411.8</ele>
        <time>2021-04-25T07:16:16Z</time>
      </trkpt>
      <trkpt lat="43.54646" lon="6.30401">
        <ele>411.7</ele>
        <time>2021-04-25T07:16:17Z</time>
      </trkpt>
      <trkpt lat="43.54645" lon="6.30403">
        <ele>411.6</ele>
        <time>2021-04-25T07:16:26Z</time>
      </trkpt>
      <trkpt lat="43.54645" lon="6.30402">
        <ele>411.7</ele>
        <time>2021-04-25T07:16:29Z</time>
      </trkpt>
      <trkpt lat="43.54645" lon="6.30402">
        <ele>411.6</ele>
        <time>2021-04-25T07:16:30Z</time>
      </trkpt>
      <trkpt lat="43.54645" lon="6.30402">
        <ele>411.5</ele>
        <time>2021-04-25T07:16:31Z</time>
      </trkpt>
      <trkpt lat="43.54645" lon="6.30402">
        <ele>411.5</ele>
        <time>2021-04-25T07:16:32Z</time>
      </trkpt>
      <trkpt lat="43.54645" lon="6.30402">
        <ele>411.7</ele>
        <time>2021-04-25T07:16:33Z</time>
      </trkpt>
      <trkpt lat="43.54644" lon="6.30402">
        <ele>411.7</ele>
        <time>2021-04-25T07:16:36Z</time>
      </trkpt>
      <trkpt lat="43.54644" lon="6.30402">
        <ele>411.7</ele>
        <time>2021-04-25T07:16:40Z</time>
      </trkpt>
      <trkpt lat="43.54644" lon="6.30401">
        <ele>411.8</ele>
        <time>2021-04-25T07:16:44Z</time>
      </trkpt>
      <trkpt lat="43.54644" lon="6.30401">
        <ele>411.7</ele>
        <time>2021-04-25T07:16:45Z</time>
      </trkpt>
      <trkpt lat="43.54641" lon="6.30402">
        <ele>411.6</ele>
        <time>2021-04-25T07:16:58Z</time>
      </trkpt>
      <trkpt lat="43.54641" lon="6.30402">
        <ele>411.7</ele>
        <time>2021-04-25T07:17:00Z</time>
      </trkpt>
      <trkpt lat="43.54641" lon="6.30402">
        <ele>411.8</ele>
        <time>2021-04-25T07:17:01Z</time>
      </trkpt>
      <trkpt lat="43.54641" lon="6.30402">
        <ele>411.6</ele>
        <time>2021-04-25T07:17:03Z</time>
      </trkpt>
      <trkpt lat="43.54641" lon="6.30402">
        <ele>411.5</ele>
        <time>2021-04-25T07:17:04Z</time>
      </trkpt>
      <trkpt lat="43.54641" lon="6.30403">
        <ele>411.6</ele>
        <time>2021-04-25T07:17:12Z</time>
      </trkpt>
      <trkpt lat="43.54641" lon="6.30403">
        <ele>411.8</ele>
        <time>2021-04-25T07:17:13Z</time>
      </trkpt>
      <trkpt lat="43.54642" lon="6.30403">
        <ele>411.8</ele>
        <time>2021-04-25T07:17:14Z</time>
      </trkpt>
      <trkpt lat="43.54642" lon="6.30403">
        <ele>411.8</ele>
        <time>2021-04-25T07:17:15Z</time>
      </trkpt>
      <trkpt lat="43.54641" lon="6.30402">
        <ele>411.8</ele>
        <time>2021-04-25T07:17:32Z</time>
      </trkpt>
      <trkpt lat="43.54641" lon="6.30402">
        <ele>411.6</ele>
        <time>2021-04-25T07:17:34Z</time>
      </trkpt>
      <trkpt lat="43.54641" lon="6.30402">
        <ele>411.7</ele>
        <time>2021-04-25T07:17:35Z</time>
      </trkpt>
      <trkpt lat="43.54641" lon="6.30402">
        <ele>411.7</ele>
        <time>2021-04-25T07:17:36Z</time>
      </trkpt>
      <trkpt lat="43.54641" lon="6.30402">
        <ele>411.8</ele>
        <time>2021-04-25T07:17:42Z</time>
      </trkpt>
      <trkpt lat="43.54642" lon="6.30402">
        <ele>411.8</ele>
        <time>2021-04-25T07:17:44Z</time>
      </trkpt>
      <trkpt lat="43.54642" lon="6.30402">
        <ele>411.9</ele>
        <time>2021-04-25T07:17:55Z</time>
      </trkpt>
      <trkpt lat="43.54642" lon="6.30402">
        <ele>411.8</ele>
        <time>2021-04-25T07:17:56Z</time>
      </trkpt>
      <trkpt lat="43.54642" lon="6.30402">
        <ele>411.8</ele>
        <time>2021-04-25T07:17:57Z</time>
      </trkpt>
      <trkpt lat="43.54642" lon="6.30402">
        <ele>411.8</ele>
        <time>2021-04-25T07:17:59Z</time>
      </trkpt>
      <trkpt lat="43.54643" lon="6.30402">
        <ele>411.8</ele>
        <time>2021-04-25T07:18:04Z</time>
      </trkpt>
      <trkpt lat="43.54636" lon="6.30394">
        <ele>410.9</ele>
        <time>2021-04-25T07:18:15Z</time>
      </trkpt>
      <trkpt lat="43.54628" lon="6.30386">
        <ele>410.2</ele>
        <time>2021-04-25T07:18:26Z</time>
      </trkpt>
      <trkpt lat="43.54621" lon="6.3038">
        <ele>410</ele>
        <time>2021-04-25T07:18:35Z</time>
      </trkpt>
      <trkpt lat="43.5462" lon="6.3038">
        <ele>410</ele>
        <time>2021-04-25T07:18:36Z</time>
      </trkpt>
      <trkpt lat="43.54612" lon="6.30374">
        <ele>409.4</ele>
        <time>2021-04-25T07:18:44Z</time>
      </trkpt>
      <trkpt lat="43.54605" lon="6.30366">
        <ele>408.7</ele>
        <time>2021-04-25T07:18:51Z</time>
      </trkpt>
      <trkpt lat="43.54599" lon="6.30356">
        <ele>407.7</ele>
        <time>2021-04-25T07:18:58Z</time>
      </trkpt>
      <trkpt lat="43.54599" lon="6.30343">
        <ele>407.3</ele>
        <time>2021-04-25T07:19:07Z</time>
      </trkpt>
      <trkpt lat="43.54604" lon="6.30332">
        <ele>406.8</ele>
        <time>2021-04-25T07:19:17Z</time>
      </trkpt>
      <trkpt lat="43.54611" lon="6.30323">
        <ele>406.8</ele>
        <time>2021-04-25T07:19:30Z</time>
      </trkpt>
      <trkpt lat="43.54617" lon="6.30313">
        <ele>406.5</ele>
        <time>2021-04-25T07:19:35Z</time>
      </trkpt>
      <trkpt lat="43.54622" lon="6.30301">
        <ele>406.1</ele>
        <time>2021-04-25T07:19:43Z</time>
      </trkpt>
      <trkpt lat="43.54626" lon="6.30289">
        <ele>406.4</ele>
        <time>2021-04-25T07:19:51Z</time>
      </trkpt>
      <trkpt lat="43.5463" lon="6.30277">
        <ele>405.7</ele>
        <time>2021-04-25T07:19:59Z</time>
      </trkpt>
      <trkpt lat="43.54634" lon="6.30265">
        <ele>405.7</ele>
        <time>2021-04-25T07:20:08Z</time>
      </trkpt>
      <trkpt lat="43.54639" lon="6.30253">
        <ele>405.3</ele>
        <time>2021-04-25T07:20:19Z</time>
      </trkpt>
      <trkpt lat="43.54644" lon="6.30243">
        <ele>405.2</ele>
        <time>2021-04-25T07:20:27Z</time>
      </trkpt>
      <trkpt lat="43.54649" lon="6.30232">
        <ele>406.2</ele>
        <time>2021-04-25T07:20:37Z</time>
      </trkpt>
      <trkpt lat="43.54657" lon="6.30224">
        <ele>405.4</ele>
        <time>2021-04-25T07:20:43Z</time>
      </trkpt>
      <trkpt lat="43.54665" lon="6.30217">
        <ele>405.9</ele>
        <time>2021-04-25T07:20:52Z</time>
      </trkpt>
      <trkpt lat="43.54673" lon="6.30209">
        <ele>407.2</ele>
        <time>2021-04-25T07:21:06Z</time>
      </trkpt>
      <trkpt lat="43.54682" lon="6.30204">
        <ele>407</ele>
        <time>2021-04-25T07:21:19Z</time>
      </trkpt>
      <trkpt lat="43.54688" lon="6.30213">
        <ele>408</ele>
        <time>2021-04-25T07:21:35Z</time>
      </trkpt>
      <trkpt lat="43.5468" lon="6.3022">
        <ele>407.7</ele>
        <time>2021-04-25T07:21:50Z</time>
      </trkpt>
      <trkpt lat="43.54676" lon="6.30231">
        <ele>408.8</ele>
        <time>2021-04-25T07:22:03Z</time>
      </trkpt>
      <trkpt lat="43.54673" lon="6.30243">
        <ele>409.2</ele>
        <time>2021-04-25T07:22:16Z</time>
      </trkpt>
      <trkpt lat="43.54668" lon="6.30254">
        <ele>409.7</ele>
        <time>2021-04-25T07:22:30Z</time>
      </trkpt>
      <trkpt lat="43.54668" lon="6.3026">
        <ele>408.8</ele>
        <time>2021-04-25T07:22:37Z</time>
      </trkpt>
      <trkpt lat="43.54668" lon="6.3026">
        <ele>410.1</ele>
        <time>2021-04-25T07:22:38Z</time>
      </trkpt>
      <trkpt lat="43.54668" lon="6.3026">
        <ele>409.3</ele>
        <time>2021-04-25T07:22:40Z</time>
      </trkpt>
      <trkpt lat="43.54668" lon="6.3026">
        <ele>409.2</ele>
        <time>2021-04-25T07:22:41Z</time>
      </trkpt>
      <trkpt lat="43.54668" lon="6.30261">
        <ele>409.2</ele>
        <time>2021-04-25T07:22:42Z</time>
      </trkpt>
      <trkpt lat="43.54668" lon="6.30261">
        <ele>409.1</ele>
        <time>2021-04-25T07:22:43Z</time>
      </trkpt>
      <trkpt lat="43.54668" lon="6.3026">
        <ele>408.8</ele>
        <time>2021-04-25T07:22:50Z</time>
      </trkpt>
      <trkpt lat="43.54668" lon="6.3026">
        <ele>408.9</ele>
        <time>2021-04-25T07:22:52Z</time>
      </trkpt>
      <trkpt lat="43.54668" lon="6.3026">
        <ele>408.9</ele>
        <time>2021-04-25T07:22:53Z</time>
      </trkpt>
      <trkpt lat="43.54668" lon="6.3026">
        <ele>408.8</ele>
        <time>2021-04-25T07:22:55Z</time>
      </trkpt>
      <trkpt lat="43.54668" lon="6.30261">
        <ele>409</ele>
        <time>2021-04-25T07:22:58Z</time>
      </trkpt>
      <trkpt lat="43.54668" lon="6.30261">
        <ele>408.7</ele>
        <time>2021-04-25T07:23:07Z</time>
      </trkpt>
      <trkpt lat="43.54669" lon="6.3026">
        <ele>408.5</ele>
        <time>2021-04-25T07:23:13Z</time>
      </trkpt>
      <trkpt lat="43.54668" lon="6.3026">
        <ele>408.6</ele>
        <time>2021-04-25T07:23:16Z</time>
      </trkpt>
      <trkpt lat="43.54668" lon="6.3026">
        <ele>408.4</ele>
        <time>2021-04-25T07:23:21Z</time>
      </trkpt>
      <trkpt lat="43.54668" lon="6.3026">
        <ele>408.5</ele>
        <time>2021-04-25T07:23:24Z</time>
      </trkpt>
      <trkpt lat="43.5466" lon="6.30265">
        <ele>407.5</ele>
        <time>2021-04-25T07:23:36Z</time>
      </trkpt>
      <trkpt lat="43.54657" lon="6.30279">
        <ele>408.3</ele>
        <time>2021-04-25T07:24:05Z</time>
      </trkpt>
      <trkpt lat="43.54657" lon="6.3028">
        <ele>408.8</ele>
        <time>2021-04-25T07:24:08Z</time>
      </trkpt>
      <trkpt lat="43.54657" lon="6.30278">
        <ele>407.6</ele>
        <time>2021-04-25T07:25:01Z</time>
      </trkpt>
      <trkpt lat="43.54657" lon="6.30278">
        <ele>407.6</ele>
        <time>2021-04-25T07:25:09Z</time>
      </trkpt>
      <trkpt lat="43.54657" lon="6.30278">
        <ele>407.8</ele>
        <time>2021-04-25T07:25:10Z</time>
      </trkpt>
      <trkpt lat="43.54657" lon="6.30278">
        <ele>407.7</ele>
        <time>2021-04-25T07:25:13Z</time>
      </trkpt>
      <trkpt lat="43.54656" lon="6.30278">
        <ele>407.6</ele>
        <time>2021-04-25T07:25:14Z</time>
      </trkpt>
      <trkpt lat="43.54657" lon="6.30278">
        <ele>407.6</ele>
        <time>2021-04-25T07:25:16Z</time>
      </trkpt>
      <trkpt lat="43.54656" lon="6.30278">
        <ele>407.7</ele>
        <time>2021-04-25T07:25:23Z</time>
      </trkpt>
      <trkpt lat="43.54656" lon="6.30278">
        <ele>407.7</ele>
        <time>2021-04-25T07:25:26Z</time>
      </trkpt>
      <trkpt lat="43.54656" lon="6.30278">
        <ele>407.7</ele>
        <time>2021-04-25T07:25:27Z</time>
      </trkpt>
      <trkpt lat="43.54656" lon="6.30278">
        <ele>407.7</ele>
        <time>2021-04-25T07:25:28Z</time>
      </trkpt>
      <trkpt lat="43.54656" lon="6.30278">
        <ele>407.6</ele>
        <time>2021-04-25T07:25:37Z</time>
      </trkpt>
      <trkpt lat="43.54656" lon="6.30278">
        <ele>407.6</ele>
        <time>2021-04-25T07:25:38Z</time>
      </trkpt>
      <trkpt lat="43.54656" lon="6.30278">
        <ele>407.6</ele>
        <time>2021-04-25T07:25:40Z</time>
      </trkpt>
      <trkpt lat="43.54655" lon="6.30278">
        <ele>407.8</ele>
        <time>2021-04-25T07:25:44Z</time>
      </trkpt>
      <trkpt lat="43.54655" lon="6.30278">
        <ele>407.7</ele>
        <time>2021-04-25T07:25:45Z</time>
      </trkpt>
      <trkpt lat="43.54655" lon="6.30279">
        <ele>407.5</ele>
        <time>2021-04-25T07:25:54Z</time>
      </trkpt>
      <trkpt lat="43.54654" lon="6.30279">
        <ele>407.5</ele>
        <time>2021-04-25T07:25:58Z</time>
      </trkpt>
      <trkpt lat="43.54665" lon="6.30286">
        <ele>408.5</ele>
        <time>2021-04-25T07:27:27Z</time>
      </trkpt>
      <trkpt lat="43.54665" lon="6.30286">
        <ele>408.3</ele>
        <time>2021-04-25T07:27:28Z</time>
      </trkpt>
      <trkpt lat="43.54656" lon="6.30282">
        <ele>409.2</ele>
        <time>2021-04-25T07:27:56Z</time>
      </trkpt>
      <trkpt lat="43.54647" lon="6.30297">
        <ele>408.6</ele>
        <time>2021-04-25T07:28:38Z</time>
      </trkpt>
      <trkpt lat="43.54647" lon="6.30297">
        <ele>408.6</ele>
        <time>2021-04-25T07:28:40Z</time>
      </trkpt>
      <trkpt lat="43.54647" lon="6.30297">
        <ele>408.6</ele>
        <time>2021-04-25T07:28:41Z</time>
      </trkpt>
      <trkpt lat="43.54648" lon="6.30298">
        <ele>408.7</ele>
        <time>2021-04-25T07:28:42Z</time>
      </trkpt>
      <trkpt lat="43.54653" lon="6.30303">
        <ele>409.1</ele>
        <time>2021-04-25T07:28:52Z</time>
      </trkpt>
      <trkpt lat="43.54653" lon="6.30304">
        <ele>409.4</ele>
        <time>2021-04-25T07:28:53Z</time>
      </trkpt>
      <trkpt lat="43.54657" lon="6.30305">
        <ele>410.1</ele>
        <time>2021-04-25T07:29:09Z</time>
      </trkpt>
      <trkpt lat="43.54657" lon="6.30305">
        <ele>410</ele>
        <time>2021-04-25T07:29:11Z</time>
      </trkpt>
      <trkpt lat="43.54665" lon="6.30302">
        <ele>409.2</ele>
        <time>2021-04-25T07:29:42Z</time>
      </trkpt>
      <trkpt lat="43.54666" lon="6.30298">
        <ele>409</ele>
        <time>2021-04-25T07:29:56Z</time>
      </trkpt>
      <trkpt lat="43.54666" lon="6.30298">
        <ele>409.3</ele>
        <time>2021-04-25T07:30:03Z</time>
      </trkpt>
      <trkpt lat="43.54666" lon="6.30298">
        <ele>409.3</ele>
        <time>2021-04-25T07:30:06Z</time>
      </trkpt>
      <trkpt lat="43.54666" lon="6.30298">
        <ele>409.3</ele>
        <time>2021-04-25T07:30:07Z</time>
      </trkpt>
      <trkpt lat="43.54655" lon="6.30313">
        <ele>410.4</ele>
        <time>2021-04-25T07:30:43Z</time>
      </trkpt>
      <trkpt lat="43.54655" lon="6.30313">
        <ele>410.4</ele>
        <time>2021-04-25T07:30:44Z</time>
      </trkpt>
      <trkpt lat="43.54654" lon="6.30313">
        <ele>410.7</ele>
        <time>2021-04-25T07:30:46Z</time>
      </trkpt>
      <trkpt lat="43.54658" lon="6.30326">
        <ele>411.9</ele>
        <time>2021-04-25T07:31:10Z</time>
      </trkpt>
      <trkpt lat="43.54665" lon="6.30332">
        <ele>413.9</ele>
        <time>2021-04-25T07:31:26Z</time>
      </trkpt>
      <trkpt lat="43.54657" lon="6.30328">
        <ele>411.6</ele>
        <time>2021-04-25T07:32:00Z</time>
      </trkpt>
      <trkpt lat="43.54649" lon="6.30334">
        <ele>410.2</ele>
        <time>2021-04-25T07:32:13Z</time>
      </trkpt>
      <trkpt lat="43.54645" lon="6.30333">
        <ele>409.5</ele>
        <time>2021-04-25T07:32:23Z</time>
      </trkpt>
      <trkpt lat="43.54645" lon="6.30333">
        <ele>409.5</ele>
        <time>2021-04-25T07:32:24Z</time>
      </trkpt>
      <trkpt lat="43.54644" lon="6.30333">
        <ele>408.9</ele>
        <time>2021-04-25T07:32:30Z</time>
      </trkpt>
      <trkpt lat="43.54644" lon="6.30333">
        <ele>408.9</ele>
        <time>2021-04-25T07:32:31Z</time>
      </trkpt>
      <trkpt lat="43.54644" lon="6.30333">
        <ele>408.8</ele>
        <time>2021-04-25T07:32:32Z</time>
      </trkpt>
      <trkpt lat="43.54643" lon="6.30333">
        <ele>408.6</ele>
        <time>2021-04-25T07:32:33Z</time>
      </trkpt>
      <trkpt lat="43.54643" lon="6.30327">
        <ele>408.4</ele>
        <time>2021-04-25T07:32:47Z</time>
      </trkpt>
      <trkpt lat="43.54643" lon="6.30326">
        <ele>408.6</ele>
        <time>2021-04-25T07:32:48Z</time>
      </trkpt>
      <trkpt lat="43.54639" lon="6.30325">
        <ele>408.5</ele>
        <time>2021-04-25T07:32:57Z</time>
      </trkpt>
      <trkpt lat="43.54639" lon="6.30325">
        <ele>408.6</ele>
        <time>2021-04-25T07:33:00Z</time>
      </trkpt>
      <trkpt lat="43.54639" lon="6.30319">
        <ele>408.4</ele>
        <time>2021-04-25T07:33:09Z</time>
      </trkpt>
      <trkpt lat="43.54639" lon="6.30318">
        <ele>408.4</ele>
        <time>2021-04-25T07:33:13Z</time>
      </trkpt>
      <trkpt lat="43.54641" lon="6.30308">
        <ele>408.2</ele>
        <time>2021-04-25T07:33:25Z</time>
      </trkpt>
      <trkpt lat="43.54641" lon="6.30308">
        <ele>408.2</ele>
        <time>2021-04-25T07:33:28Z</time>
      </trkpt>
      <trkpt lat="43.54641" lon="6.30308">
        <ele>408.3</ele>
        <time>2021-04-25T07:33:29Z</time>
      </trkpt>
      <trkpt lat="43.54642" lon="6.30307">
        <ele>408.2</ele>
        <time>2021-04-25T07:33:35Z</time>
      </trkpt>
      <trkpt lat="43.54642" lon="6.30307">
        <ele>408.2</ele>
        <time>2021-04-25T07:33:37Z</time>
      </trkpt>
      <trkpt lat="43.54642" lon="6.30306">
        <ele>408.1</ele>
        <time>2021-04-25T07:33:38Z</time>
      </trkpt>
      <trkpt lat="43.54647" lon="6.30296">
        <ele>407.8</ele>
        <time>2021-04-25T07:33:53Z</time>
      </trkpt>
      <trkpt lat="43.54651" lon="6.30292">
        <ele>407.4</ele>
        <time>2021-04-25T07:33:59Z</time>
      </trkpt>
      <trkpt lat="43.5465" lon="6.30292">
        <ele>407.5</ele>
        <time>2021-04-25T07:34:00Z</time>
      </trkpt>
      <trkpt lat="43.5465" lon="6.30292">
        <ele>407.5</ele>
        <time>2021-04-25T07:34:01Z</time>
      </trkpt>
      <trkpt lat="43.54651" lon="6.30291">
        <ele>407.5</ele>
        <time>2021-04-25T07:34:05Z</time>
      </trkpt>
      <trkpt lat="43.54653" lon="6.30286">
        <ele>407.4</ele>
        <time>2021-04-25T07:34:13Z</time>
      </trkpt>
      <trkpt lat="43.54653" lon="6.30285">
        <ele>407.4</ele>
        <time>2021-04-25T07:34:23Z</time>
      </trkpt>
      <trkpt lat="43.54653" lon="6.30283">
        <ele>407.4</ele>
        <time>2021-04-25T07:34:25Z</time>
      </trkpt>
      <trkpt lat="43.54653" lon="6.30282">
        <ele>407.4</ele>
        <time>2021-04-25T07:34:33Z</time>
      </trkpt>
      <trkpt lat="43.54653" lon="6.30281">
        <ele>407.6</ele>
        <time>2021-04-25T07:34:44Z</time>
      </trkpt>
      <trkpt lat="43.54653" lon="6.30281">
        <ele>407.6</ele>
        <time>2021-04-25T07:34:45Z</time>
      </trkpt>
      <trkpt lat="43.54653" lon="6.30281">
        <ele>407.5</ele>
        <time>2021-04-25T07:34:51Z</time>
      </trkpt>
      <trkpt lat="43.54653" lon="6.3028">
        <ele>407.5</ele>
        <time>2021-04-25T07:35:22Z</time>
      </trkpt>
      <trkpt lat="43.54654" lon="6.30279">
        <ele>406.1</ele>
        <time>2021-04-25T07:37:55Z</time>
      </trkpt>
      <trkpt lat="43.54654" lon="6.30279">
        <ele>406.1</ele>
        <time>2021-04-25T07:37:56Z</time>
      </trkpt>
      <trkpt lat="43.54653" lon="6.30279">
        <ele>406.3</ele>
        <time>2021-04-25T07:38:01Z</time>
      </trkpt>
      <trkpt lat="43.54653" lon="6.30279">
        <ele>406.2</ele>
        <time>2021-04-25T07:38:02Z</time>
      </trkpt>
      <trkpt lat="43.54653" lon="6.30279">
        <ele>406.3</ele>
        <time>2021-04-25T07:38:26Z</time>
      </trkpt>
      <trkpt lat="43.54653" lon="6.30278">
        <ele>406.1</ele>
        <time>2021-04-25T07:38:33Z</time>
      </trkpt>
      <trkpt lat="43.54653" lon="6.30278">
        <ele>406.1</ele>
        <time>2021-04-25T07:38:34Z</time>
      </trkpt>
      <trkpt lat="43.54653" lon="6.30278">
        <ele>406.2</ele>
        <time>2021-04-25T07:39:02Z</time>
      </trkpt>
      <trkpt lat="43.54653" lon="6.30278">
        <ele>406.1</ele>
        <time>2021-04-25T07:39:03Z</time>
      </trkpt>
      <trkpt lat="43.54653" lon="6.30278">
        <ele>406.1</ele>
        <time>2021-04-25T07:39:54Z</time>
      </trkpt>
      <trkpt lat="43.54653" lon="6.30278">
        <ele>406.2</ele>
        <time>2021-04-25T07:39:55Z</time>
      </trkpt>
      <trkpt lat="43.54654" lon="6.30277">
        <ele>406</ele>
        <time>2021-04-25T07:40:10Z</time>
      </trkpt>
      <trkpt lat="43.54653" lon="6.30278">
        <ele>406</ele>
        <time>2021-04-25T07:40:17Z</time>
      </trkpt>
      <trkpt lat="43.54653" lon="6.30278">
        <ele>405.9</ele>
        <time>2021-04-25T07:40:19Z</time>
      </trkpt>
      <trkpt lat="43.54653" lon="6.30278">
        <ele>406</ele>
        <time>2021-04-25T07:40:20Z</time>
      </trkpt>
      <trkpt lat="43.54653" lon="6.30277">
        <ele>406.1</ele>
        <time>2021-04-25T07:40:23Z</time>
      </trkpt>
      <trkpt lat="43.54654" lon="6.30276">
        <ele>406.4</ele>
        <time>2021-04-25T07:40:44Z</time>
      </trkpt>
      <trkpt lat="43.54654" lon="6.30275">
        <ele>406.5</ele>
        <time>2021-04-25T07:40:48Z</time>
      </trkpt>
      <trkpt lat="43.54655" lon="6.30275">
        <ele>406.6</ele>
        <time>2021-04-25T07:40:50Z</time>
      </trkpt>
      <trkpt lat="43.54659" lon="6.30268">
        <ele>407.3</ele>
        <time>2021-04-25T07:41:09Z</time>
      </trkpt>
      <trkpt lat="43.54659" lon="6.30267">
        <ele>407.2</ele>
        <time>2021-04-25T07:41:11Z</time>
      </trkpt>
      <trkpt lat="43.54662" lon="6.3026">
        <ele>407.1</ele>
        <time>2021-04-25T07:41:23Z</time>
      </trkpt>
      <trkpt lat="43.54663" lon="6.3026">
        <ele>407.2</ele>
        <time>2021-04-25T07:41:24Z</time>
      </trkpt>
      <trkpt lat="43.54663" lon="6.30259">
        <ele>407.2</ele>
        <time>2021-04-25T07:41:27Z</time>
      </trkpt>
      <trkpt lat="43.54663" lon="6.30258">
        <ele>407</ele>
        <time>2021-04-25T07:41:29Z</time>
      </trkpt>
      <trkpt lat="43.54663" lon="6.30245">
        <ele>406.4</ele>
        <time>2021-04-25T07:41:40Z</time>
      </trkpt>
      <trkpt lat="43.54662" lon="6.30232">
        <ele>405.1</ele>
        <time>2021-04-25T07:41:50Z</time>
      </trkpt>
      <trkpt lat="43.54662" lon="6.30219">
        <ele>404.2</ele>
        <time>2021-04-25T07:42:05Z</time>
      </trkpt>
      <trkpt lat="43.54667" lon="6.30208">
        <ele>404.2</ele>
        <time>2021-04-25T07:42:22Z</time>
      </trkpt>
      <trkpt lat="43.54664" lon="6.30205">
        <ele>404.4</ele>
        <time>2021-04-25T07:42:30Z</time>
      </trkpt>
      <trkpt lat="43.54664" lon="6.30206">
        <ele>404.5</ele>
        <time>2021-04-25T07:42:31Z</time>
      </trkpt>
      <trkpt lat="43.54664" lon="6.30207">
        <ele>404.3</ele>
        <time>2021-04-25T07:42:36Z</time>
      </trkpt>
      <trkpt lat="43.54665" lon="6.30207">
        <ele>404.3</ele>
        <time>2021-04-25T07:42:37Z</time>
      </trkpt>
      <trkpt lat="43.54666" lon="6.30206">
        <ele>404.4</ele>
        <time>2021-04-25T07:42:44Z</time>
      </trkpt>
      <trkpt lat="43.54667" lon="6.30206">
        <ele>404.3</ele>
        <time>2021-04-25T07:42:45Z</time>
      </trkpt>
      <trkpt lat="43.54671" lon="6.30193">
        <ele>403.8</ele>
        <time>2021-04-25T07:42:57Z</time>
      </trkpt>
      <trkpt lat="43.54674" lon="6.30182">
        <ele>403.8</ele>
        <time>2021-04-25T07:43:06Z</time>
      </trkpt>
      <trkpt lat="43.54679" lon="6.3017">
        <ele>403.6</ele>
        <time>2021-04-25T07:43:15Z</time>
      </trkpt>
      <trkpt lat="43.54679" lon="6.30168">
        <ele>403.6</ele>
        <time>2021-04-25T07:43:18Z</time>
      </trkpt>
      <trkpt lat="43.54679" lon="6.30168">
        <ele>403.6</ele>
        <time>2021-04-25T07:43:20Z</time>
      </trkpt>
      <trkpt lat="43.54683" lon="6.30156">
        <ele>403.4</ele>
        <time>2021-04-25T07:43:30Z</time>
      </trkpt>
      <trkpt lat="43.54688" lon="6.30144">
        <ele>403.1</ele>
        <time>2021-04-25T07:43:41Z</time>
      </trkpt>
      <trkpt lat="43.54692" lon="6.30133">
        <ele>402.8</ele>
        <time>2021-04-25T07:43:53Z</time>
      </trkpt>
      <trkpt lat="43.54694" lon="6.30121">
        <ele>401.2</ele>
        <time>2021-04-25T07:44:02Z</time>
      </trkpt>
      <trkpt lat="43.54696" lon="6.30117">
        <ele>402.3</ele>
        <time>2021-04-25T07:44:09Z</time>
      </trkpt>
      <trkpt lat="43.54696" lon="6.30117">
        <ele>402.4</ele>
        <time>2021-04-25T07:44:10Z</time>
      </trkpt>
      <trkpt lat="43.54696" lon="6.30117">
        <ele>402.1</ele>
        <time>2021-04-25T07:44:13Z</time>
      </trkpt>
      <trkpt lat="43.54697" lon="6.30116">
        <ele>402.4</ele>
        <time>2021-04-25T07:44:16Z</time>
      </trkpt>
      <trkpt lat="43.54699" lon="6.30113">
        <ele>402.4</ele>
        <time>2021-04-25T07:44:36Z</time>
      </trkpt>
      <trkpt lat="43.54699" lon="6.30113">
        <ele>402.4</ele>
        <time>2021-04-25T07:44:38Z</time>
      </trkpt>
      <trkpt lat="43.54692" lon="6.30105">
        <ele>401.5</ele>
        <time>2021-04-25T07:44:52Z</time>
      </trkpt>
      <trkpt lat="43.54683" lon="6.30101">
        <ele>400.5</ele>
        <time>2021-04-25T07:45:02Z</time>
      </trkpt>
      <trkpt lat="43.54674" lon="6.30098">
        <ele>399.7</ele>
        <time>2021-04-25T07:45:12Z</time>
      </trkpt>
      <trkpt lat="43.54673" lon="6.30097">
        <ele>399.7</ele>
        <time>2021-04-25T07:45:16Z</time>
      </trkpt>
      <trkpt lat="43.54672" lon="6.30097">
        <ele>399.9</ele>
        <time>2021-04-25T07:45:17Z</time>
      </trkpt>
      <trkpt lat="43.54666" lon="6.30087">
        <ele>399.5</ele>
        <time>2021-04-25T07:45:28Z</time>
      </trkpt>
      <trkpt lat="43.54662" lon="6.30075">
        <ele>399.3</ele>
        <time>2021-04-25T07:45:40Z</time>
      </trkpt>
      <trkpt lat="43.54654" lon="6.30069">
        <ele>399.3</ele>
        <time>2021-04-25T07:45:51Z</time>
      </trkpt>
      <trkpt lat="43.54645" lon="6.30074">
        <ele>398.9</ele>
        <time>2021-04-25T07:46:02Z</time>
      </trkpt>
      <trkpt lat="43.54636" lon="6.30072">
        <ele>398.2</ele>
        <time>2021-04-25T07:46:12Z</time>
      </trkpt>
      <trkpt lat="43.54628" lon="6.30064">
        <ele>397.6</ele>
        <time>2021-04-25T07:46:26Z</time>
      </trkpt>
      <trkpt lat="43.54625" lon="6.30053">
        <ele>397.3</ele>
        <time>2021-04-25T07:46:39Z</time>
      </trkpt>
      <trkpt lat="43.54625" lon="6.30053">
        <ele>397.4</ele>
        <time>2021-04-25T07:46:40Z</time>
      </trkpt>
      <trkpt lat="43.54624" lon="6.30053">
        <ele>397.4</ele>
        <time>2021-04-25T07:46:41Z</time>
      </trkpt>
      <trkpt lat="43.54617" lon="6.30046">
        <ele>397</ele>
        <time>2021-04-25T07:46:52Z</time>
      </trkpt>
      <trkpt lat="43.5461" lon="6.30037">
        <ele>396.3</ele>
        <time>2021-04-25T07:47:03Z</time>
      </trkpt>
      <trkpt lat="43.54604" lon="6.30027">
        <ele>396.2</ele>
        <time>2021-04-25T07:47:11Z</time>
      </trkpt>
      <trkpt lat="43.54598" lon="6.30017">
        <ele>396.2</ele>
        <time>2021-04-25T07:47:21Z</time>
      </trkpt>
      <trkpt lat="43.54592" lon="6.30007">
        <ele>395.8</ele>
        <time>2021-04-25T07:47:32Z</time>
      </trkpt>
      <trkpt lat="43.54592" lon="6.30007">
        <ele>397.1</ele>
        <time>2021-04-25T07:47:33Z</time>
      </trkpt>
      <trkpt lat="43.54592" lon="6.30007">
        <ele>396.9</ele>
        <time>2021-04-25T07:47:39Z</time>
      </trkpt>
      <trkpt lat="43.54586" lon="6.29997">
        <ele>396.6</ele>
        <time>2021-04-25T07:47:58Z</time>
      </trkpt>
      <trkpt lat="43.54582" lon="6.29994">
        <ele>395.9</ele>
        <time>2021-04-25T07:48:05Z</time>
      </trkpt>
      <trkpt lat="43.54581" lon="6.29993">
        <ele>397.3</ele>
        <time>2021-04-25T07:48:08Z</time>
      </trkpt>
      <trkpt lat="43.54581" lon="6.29993">
        <ele>396.9</ele>
        <time>2021-04-25T07:48:10Z</time>
      </trkpt>
      <trkpt lat="43.54581" lon="6.29993">
        <ele>396.8</ele>
        <time>2021-04-25T07:48:11Z</time>
      </trkpt>
      <trkpt lat="43.54581" lon="6.29993">
        <ele>396.8</ele>
        <time>2021-04-25T07:48:12Z</time>
      </trkpt>
      <trkpt lat="43.54581" lon="6.29993">
        <ele>396.7</ele>
        <time>2021-04-25T07:48:13Z</time>
      </trkpt>
      <trkpt lat="43.54581" lon="6.29993">
        <ele>396.7</ele>
        <time>2021-04-25T07:48:14Z</time>
      </trkpt>
      <trkpt lat="43.54581" lon="6.29993">
        <ele>396.7</ele>
        <time>2021-04-25T07:48:17Z</time>
      </trkpt>
      <trkpt lat="43.54581" lon="6.29995">
        <ele>396.5</ele>
        <time>2021-04-25T07:48:20Z</time>
      </trkpt>
      <trkpt lat="43.54581" lon="6.29994">
        <ele>396.6</ele>
        <time>2021-04-25T07:48:22Z</time>
      </trkpt>
      <trkpt lat="43.54581" lon="6.29993">
        <ele>396.8</ele>
        <time>2021-04-25T07:48:26Z</time>
      </trkpt>
      <trkpt lat="43.54581" lon="6.29993">
        <ele>396.7</ele>
        <time>2021-04-25T07:48:27Z</time>
      </trkpt>
      <trkpt lat="43.54582" lon="6.29993">
        <ele>396.5</ele>
        <time>2021-04-25T07:48:29Z</time>
      </trkpt>
      <trkpt lat="43.54581" lon="6.29993">
        <ele>396.7</ele>
        <time>2021-04-25T07:48:32Z</time>
      </trkpt>
      <trkpt lat="43.54581" lon="6.29993">
        <ele>396.6</ele>
        <time>2021-04-25T07:48:33Z</time>
      </trkpt>
      <trkpt lat="43.54581" lon="6.29993">
        <ele>396.6</ele>
        <time>2021-04-25T07:48:34Z</time>
      </trkpt>
      <trkpt lat="43.54572" lon="6.29991">
        <ele>396.6</ele>
        <time>2021-04-25T07:48:55Z</time>
      </trkpt>
      <trkpt lat="43.54572" lon="6.29991">
        <ele>395.6</ele>
        <time>2021-04-25T07:48:57Z</time>
      </trkpt>
      <trkpt lat="43.54571" lon="6.29991">
        <ele>397.6</ele>
        <time>2021-04-25T07:49:00Z</time>
      </trkpt>
      <trkpt lat="43.54564" lon="6.29992">
        <ele>396.7</ele>
        <time>2021-04-25T07:49:11Z</time>
      </trkpt>
      <trkpt lat="43.54564" lon="6.29992">
        <ele>396.7</ele>
        <time>2021-04-25T07:49:13Z</time>
      </trkpt>
      <trkpt lat="43.54565" lon="6.29992">
        <ele>396.6</ele>
        <time>2021-04-25T07:49:17Z</time>
      </trkpt>
      <trkpt lat="43.54564" lon="6.29993">
        <ele>396.6</ele>
        <time>2021-04-25T07:49:19Z</time>
      </trkpt>
      <trkpt lat="43.54563" lon="6.29993">
        <ele>396.5</ele>
        <time>2021-04-25T07:49:22Z</time>
      </trkpt>
      <trkpt lat="43.54563" lon="6.29993">
        <ele>396.7</ele>
        <time>2021-04-25T07:49:24Z</time>
      </trkpt>
      <trkpt lat="43.54558" lon="6.30003">
        <ele>396.6</ele>
        <time>2021-04-25T07:49:41Z</time>
      </trkpt>
      <trkpt lat="43.54549" lon="6.30005">
        <ele>397</ele>
        <time>2021-04-25T07:49:53Z</time>
      </trkpt>
      <trkpt lat="43.54539" lon="6.30007">
        <ele>396.8</ele>
        <time>2021-04-25T07:50:05Z</time>
      </trkpt>
      <trkpt lat="43.5453" lon="6.30007">
        <ele>396.9</ele>
        <time>2021-04-25T07:50:17Z</time>
      </trkpt>
      <trkpt lat="43.54521" lon="6.30006">
        <ele>397.2</ele>
        <time>2021-04-25T07:50:32Z</time>
      </trkpt>
      <trkpt lat="43.54521" lon="6.30006">
        <ele>397.2</ele>
        <time>2021-04-25T07:50:33Z</time>
      </trkpt>
      <trkpt lat="43.54519" lon="6.30007">
        <ele>396.9</ele>
        <time>2021-04-25T07:50:39Z</time>
      </trkpt>
      <trkpt lat="43.54518" lon="6.30007">
        <ele>397.7</ele>
        <time>2021-04-25T07:50:42Z</time>
      </trkpt>
      <trkpt lat="43.54518" lon="6.30006">
        <ele>396.9</ele>
        <time>2021-04-25T07:50:45Z</time>
      </trkpt>
      <trkpt lat="43.54518" lon="6.30006">
        <ele>397.5</ele>
        <time>2021-04-25T07:50:50Z</time>
      </trkpt>
      <trkpt lat="43.54516" lon="6.30003">
        <ele>397.7</ele>
        <time>2021-04-25T07:50:58Z</time>
      </trkpt>
      <trkpt lat="43.54516" lon="6.30003">
        <ele>397.8</ele>
        <time>2021-04-25T07:50:59Z</time>
      </trkpt>
      <trkpt lat="43.54507" lon="6.3">
        <ele>397.7</ele>
        <time>2021-04-25T07:51:15Z</time>
      </trkpt>
      <trkpt lat="43.54507" lon="6.3">
        <ele>397.8</ele>
        <time>2021-04-25T07:51:16Z</time>
      </trkpt>
      <trkpt lat="43.54499" lon="6.29994">
        <ele>397.8</ele>
        <time>2021-04-25T07:51:30Z</time>
      </trkpt>
      <trkpt lat="43.54495" lon="6.29993">
        <ele>398.2</ele>
        <time>2021-04-25T07:51:40Z</time>
      </trkpt>
      <trkpt lat="43.54495" lon="6.29992">
        <ele>398.2</ele>
        <time>2021-04-25T07:51:41Z</time>
      </trkpt>
      <trkpt lat="43.54488" lon="6.29983">
        <ele>398.2</ele>
        <time>2021-04-25T07:51:56Z</time>
      </trkpt>
      <trkpt lat="43.54487" lon="6.29981">
        <ele>398.5</ele>
        <time>2021-04-25T07:52:02Z</time>
      </trkpt>
      <trkpt lat="43.54487" lon="6.2998">
        <ele>398.7</ele>
        <time>2021-04-25T07:52:04Z</time>
      </trkpt>
      <trkpt lat="43.54486" lon="6.2998">
        <ele>398.8</ele>
        <time>2021-04-25T07:52:06Z</time>
      </trkpt>
      <trkpt lat="43.54486" lon="6.2998">
        <ele>398.7</ele>
        <time>2021-04-25T07:52:09Z</time>
      </trkpt>
      <trkpt lat="43.54477" lon="6.29984">
        <ele>398.6</ele>
        <time>2021-04-25T07:52:26Z</time>
      </trkpt>
      <trkpt lat="43.54471" lon="6.29994">
        <ele>398.5</ele>
        <time>2021-04-25T07:52:41Z</time>
      </trkpt>
      <trkpt lat="43.54468" lon="6.29995">
        <ele>399</ele>
        <time>2021-04-25T07:52:48Z</time>
      </trkpt>
      <trkpt lat="43.54468" lon="6.29995">
        <ele>398.6</ele>
        <time>2021-04-25T07:52:51Z</time>
      </trkpt>
      <trkpt lat="43.54466" lon="6.30007">
        <ele>398.7</ele>
        <time>2021-04-25T07:53:03Z</time>
      </trkpt>
      <trkpt lat="43.54462" lon="6.30019">
        <ele>398.5</ele>
        <time>2021-04-25T07:53:14Z</time>
      </trkpt>
      <trkpt lat="43.5446" lon="6.30032">
        <ele>398</ele>
        <time>2021-04-25T07:53:27Z</time>
      </trkpt>
      <trkpt lat="43.54458" lon="6.30035">
        <ele>398.1</ele>
        <time>2021-04-25T07:53:33Z</time>
      </trkpt>
      <trkpt lat="43.54458" lon="6.30035">
        <ele>398.2</ele>
        <time>2021-04-25T07:53:35Z</time>
      </trkpt>
      <trkpt lat="43.54458" lon="6.30035">
        <ele>398.2</ele>
        <time>2021-04-25T07:53:36Z</time>
      </trkpt>
      <trkpt lat="43.54458" lon="6.30034">
        <ele>397.9</ele>
        <time>2021-04-25T07:53:40Z</time>
      </trkpt>
      <trkpt lat="43.54458" lon="6.30034">
        <ele>398</ele>
        <time>2021-04-25T07:53:41Z</time>
      </trkpt>
      <trkpt lat="43.54458" lon="6.30034">
        <ele>398</ele>
        <time>2021-04-25T07:53:42Z</time>
      </trkpt>
      <trkpt lat="43.54458" lon="6.30034">
        <ele>398</ele>
        <time>2021-04-25T07:53:43Z</time>
      </trkpt>
      <trkpt lat="43.54458" lon="6.30034">
        <ele>397.9</ele>
        <time>2021-04-25T07:53:44Z</time>
      </trkpt>
      <trkpt lat="43.54458" lon="6.30034">
        <ele>397.9</ele>
        <time>2021-04-25T07:53:45Z</time>
      </trkpt>
      <trkpt lat="43.54458" lon="6.30034">
        <ele>397.8</ele>
        <time>2021-04-25T07:53:48Z</time>
      </trkpt>
      <trkpt lat="43.54449" lon="6.30033">
        <ele>398.5</ele>
        <time>2021-04-25T07:54:00Z</time>
      </trkpt>
      <trkpt lat="43.54443" lon="6.3003">
        <ele>397.4</ele>
        <time>2021-04-25T07:54:09Z</time>
      </trkpt>
      <trkpt lat="43.54443" lon="6.30029">
        <ele>398.7</ele>
        <time>2021-04-25T07:54:14Z</time>
      </trkpt>
      <trkpt lat="43.54439" lon="6.30029">
        <ele>398.9</ele>
        <time>2021-04-25T07:54:23Z</time>
      </trkpt>
      <trkpt lat="43.54439" lon="6.30029">
        <ele>398.9</ele>
        <time>2021-04-25T07:54:24Z</time>
      </trkpt>
      <trkpt lat="43.54439" lon="6.30029">
        <ele>398.9</ele>
        <time>2021-04-25T07:54:25Z</time>
      </trkpt>
      <trkpt lat="43.54439" lon="6.30029">
        <ele>398.9</ele>
        <time>2021-04-25T07:54:26Z</time>
      </trkpt>
      <trkpt lat="43.54435" lon="6.30032">
        <ele>398.8</ele>
        <time>2021-04-25T07:54:34Z</time>
      </trkpt>
      <trkpt lat="43.54435" lon="6.30032">
        <ele>398.8</ele>
        <time>2021-04-25T07:54:36Z</time>
      </trkpt>
      <trkpt lat="43.54435" lon="6.30032">
        <ele>398.9</ele>
        <time>2021-04-25T07:54:37Z</time>
      </trkpt>
      <trkpt lat="43.54435" lon="6.30032">
        <ele>398.7</ele>
        <time>2021-04-25T07:54:38Z</time>
      </trkpt>
      <trkpt lat="43.54426" lon="6.30038">
        <ele>398.9</ele>
        <time>2021-04-25T07:54:51Z</time>
      </trkpt>
      <trkpt lat="43.54418" lon="6.30043">
        <ele>398.4</ele>
        <time>2021-04-25T07:55:05Z</time>
      </trkpt>
      <trkpt lat="43.54408" lon="6.30043">
        <ele>398.6</ele>
        <time>2021-04-25T07:55:15Z</time>
      </trkpt>
      <trkpt lat="43.54399" lon="6.30042">
        <ele>398.1</ele>
        <time>2021-04-25T07:55:28Z</time>
      </trkpt>
      <trkpt lat="43.5439" lon="6.30038">
        <ele>398.1</ele>
        <time>2021-04-25T07:55:42Z</time>
      </trkpt>
      <trkpt lat="43.54382" lon="6.30031">
        <ele>398.2</ele>
        <time>2021-04-25T07:55:53Z</time>
      </trkpt>
      <trkpt lat="43.54376" lon="6.30022">
        <ele>398.7</ele>
        <time>2021-04-25T07:56:04Z</time>
      </trkpt>
      <trkpt lat="43.54373" lon="6.30015">
        <ele>399.2</ele>
        <time>2021-04-25T07:56:14Z</time>
      </trkpt>
      <trkpt lat="43.54373" lon="6.30015">
        <ele>399.1</ele>
        <time>2021-04-25T07:56:15Z</time>
      </trkpt>
      <trkpt lat="43.54364" lon="6.30009">
        <ele>399.1</ele>
        <time>2021-04-25T07:56:27Z</time>
      </trkpt>
      <trkpt lat="43.54362" lon="6.30009">
        <ele>399.3</ele>
        <time>2021-04-25T07:56:34Z</time>
      </trkpt>
      <trkpt lat="43.54361" lon="6.30009">
        <ele>399.3</ele>
        <time>2021-04-25T07:56:35Z</time>
      </trkpt>
      <trkpt lat="43.54361" lon="6.30009">
        <ele>399.2</ele>
        <time>2021-04-25T07:56:36Z</time>
      </trkpt>
      <trkpt lat="43.54361" lon="6.30009">
        <ele>399.2</ele>
        <time>2021-04-25T07:56:42Z</time>
      </trkpt>
      <trkpt lat="43.54361" lon="6.3001">
        <ele>399.5</ele>
        <time>2021-04-25T07:56:47Z</time>
      </trkpt>
      <trkpt lat="43.54361" lon="6.3001">
        <ele>399.3</ele>
        <time>2021-04-25T07:56:48Z</time>
      </trkpt>
      <trkpt lat="43.54361" lon="6.3001">
        <ele>399.2</ele>
        <time>2021-04-25T07:56:50Z</time>
      </trkpt>
      <trkpt lat="43.54361" lon="6.30011">
        <ele>399.2</ele>
        <time>2021-04-25T07:56:52Z</time>
      </trkpt>
      <trkpt lat="43.54355" lon="6.30009">
        <ele>399.6</ele>
        <time>2021-04-25T07:57:08Z</time>
      </trkpt>
      <trkpt lat="43.54355" lon="6.30009">
        <ele>399.6</ele>
        <time>2021-04-25T07:57:09Z</time>
      </trkpt>
      <trkpt lat="43.54345" lon="6.30011">
        <ele>399.3</ele>
        <time>2021-04-25T07:57:22Z</time>
      </trkpt>
      <trkpt lat="43.54341" lon="6.29999">
        <ele>400</ele>
        <time>2021-04-25T07:57:35Z</time>
      </trkpt>
      <trkpt lat="43.54341" lon="6.29999">
        <ele>400</ele>
        <time>2021-04-25T07:57:38Z</time>
      </trkpt>
      <trkpt lat="43.5434" lon="6.29999">
        <ele>400.3</ele>
        <time>2021-04-25T07:57:42Z</time>
      </trkpt>
      <trkpt lat="43.5434" lon="6.29999">
        <ele>400.4</ele>
        <time>2021-04-25T07:57:43Z</time>
      </trkpt>
      <trkpt lat="43.54341" lon="6.29999">
        <ele>400</ele>
        <time>2021-04-25T07:57:51Z</time>
      </trkpt>
      <trkpt lat="43.54341" lon="6.29999">
        <ele>399.9</ele>
        <time>2021-04-25T07:57:52Z</time>
      </trkpt>
      <trkpt lat="43.54341" lon="6.3">
        <ele>400</ele>
        <time>2021-04-25T07:57:54Z</time>
      </trkpt>
      <trkpt lat="43.54341" lon="6.3">
        <ele>400</ele>
        <time>2021-04-25T07:57:55Z</time>
      </trkpt>
      <trkpt lat="43.54341" lon="6.29999">
        <ele>400.1</ele>
        <time>2021-04-25T07:57:56Z</time>
      </trkpt>
      <trkpt lat="43.54342" lon="6.29998">
        <ele>400.1</ele>
        <time>2021-04-25T07:57:59Z</time>
      </trkpt>
      <trkpt lat="43.54342" lon="6.29998">
        <ele>400.2</ele>
        <time>2021-04-25T07:58:09Z</time>
      </trkpt>
      <trkpt lat="43.54342" lon="6.29998">
        <ele>400.1</ele>
        <time>2021-04-25T07:58:10Z</time>
      </trkpt>
      <trkpt lat="43.54342" lon="6.29998">
        <ele>399.9</ele>
        <time>2021-04-25T07:58:11Z</time>
      </trkpt>
      <trkpt lat="43.54341" lon="6.29999">
        <ele>399.9</ele>
        <time>2021-04-25T07:58:15Z</time>
      </trkpt>
      <trkpt lat="43.54341" lon="6.3">
        <ele>399.6</ele>
        <time>2021-04-25T07:58:18Z</time>
      </trkpt>
      <trkpt lat="43.54341" lon="6.3">
        <ele>399.8</ele>
        <time>2021-04-25T07:58:20Z</time>
      </trkpt>
      <trkpt lat="43.54341" lon="6.3">
        <ele>399.7</ele>
        <time>2021-04-25T07:58:25Z</time>
      </trkpt>
      <trkpt lat="43.54341" lon="6.3">
        <ele>399.6</ele>
        <time>2021-04-25T07:58:26Z</time>
      </trkpt>
      <trkpt lat="43.54341" lon="6.3">
        <ele>399.4</ele>
        <time>2021-04-25T07:58:37Z</time>
      </trkpt>
      <trkpt lat="43.54341" lon="6.3">
        <ele>399.4</ele>
        <time>2021-04-25T07:58:38Z</time>
      </trkpt>
      <trkpt lat="43.54342" lon="6.3">
        <ele>399.2</ele>
        <time>2021-04-25T07:58:41Z</time>
      </trkpt>
      <trkpt lat="43.54342" lon="6.3">
        <ele>399.2</ele>
        <time>2021-04-25T07:58:42Z</time>
      </trkpt>
      <trkpt lat="43.54342" lon="6.3">
        <ele>399.4</ele>
        <time>2021-04-25T07:58:53Z</time>
      </trkpt>
      <trkpt lat="43.54349" lon="6.29992">
        <ele>399.5</ele>
        <time>2021-04-25T07:59:04Z</time>
      </trkpt>
      <trkpt lat="43.54357" lon="6.29984">
        <ele>399.9</ele>
        <time>2021-04-25T07:59:14Z</time>
      </trkpt>
      <trkpt lat="43.54364" lon="6.29974">
        <ele>400.1</ele>
        <time>2021-04-25T07:59:25Z</time>
      </trkpt>
      <trkpt lat="43.5437" lon="6.29966">
        <ele>399.8</ele>
        <time>2021-04-25T07:59:36Z</time>
      </trkpt>
      <trkpt lat="43.54378" lon="6.29958">
        <ele>400.1</ele>
        <time>2021-04-25T07:59:46Z</time>
      </trkpt>
      <trkpt lat="43.54386" lon="6.29951">
        <ele>400.1</ele>
        <time>2021-04-25T07:59:55Z</time>
      </trkpt>
      <trkpt lat="43.54393" lon="6.29942">
        <ele>400.1</ele>
        <time>2021-04-25T08:00:04Z</time>
      </trkpt>
      <trkpt lat="43.54399" lon="6.29934">
        <ele>400.3</ele>
        <time>2021-04-25T08:00:15Z</time>
      </trkpt>
      <trkpt lat="43.544" lon="6.29934">
        <ele>400.3</ele>
        <time>2021-04-25T08:00:16Z</time>
      </trkpt>
      <trkpt lat="43.54407" lon="6.29925">
        <ele>400.5</ele>
        <time>2021-04-25T08:00:23Z</time>
      </trkpt>
      <trkpt lat="43.54414" lon="6.29915">
        <ele>400.4</ele>
        <time>2021-04-25T08:00:32Z</time>
      </trkpt>
      <trkpt lat="43.54421" lon="6.29906">
        <ele>400.8</ele>
        <time>2021-04-25T08:00:39Z</time>
      </trkpt>
      <trkpt lat="43.54427" lon="6.29896">
        <ele>400.8</ele>
        <time>2021-04-25T08:00:49Z</time>
      </trkpt>
      <trkpt lat="43.54432" lon="6.29885">
        <ele>401</ele>
        <time>2021-04-25T08:00:56Z</time>
      </trkpt>
      <trkpt lat="43.54436" lon="6.29874">
        <ele>401.1</ele>
        <time>2021-04-25T08:01:05Z</time>
      </trkpt>
      <trkpt lat="43.54441" lon="6.29863">
        <ele>401.7</ele>
        <time>2021-04-25T08:01:14Z</time>
      </trkpt>
      <trkpt lat="43.54446" lon="6.29852">
        <ele>401.8</ele>
        <time>2021-04-25T08:01:24Z</time>
      </trkpt>
      <trkpt lat="43.54449" lon="6.29849">
        <ele>401.8</ele>
        <time>2021-04-25T08:01:32Z</time>
      </trkpt>
      <trkpt lat="43.54449" lon="6.29849">
        <ele>401.9</ele>
        <time>2021-04-25T08:01:33Z</time>
      </trkpt>
      <trkpt lat="43.54449" lon="6.29849">
        <ele>401.8</ele>
        <time>2021-04-25T08:01:36Z</time>
      </trkpt>
      <trkpt lat="43.54448" lon="6.29849">
        <ele>402</ele>
        <time>2021-04-25T08:01:44Z</time>
      </trkpt>
      <trkpt lat="43.54449" lon="6.2985">
        <ele>402.2</ele>
        <time>2021-04-25T08:01:47Z</time>
      </trkpt>
      <trkpt lat="43.54449" lon="6.2985">
        <ele>402.1</ele>
        <time>2021-04-25T08:01:48Z</time>
      </trkpt>
      <trkpt lat="43.54449" lon="6.2985">
        <ele>402</ele>
        <time>2021-04-25T08:01:49Z</time>
      </trkpt>
      <trkpt lat="43.54449" lon="6.2985">
        <ele>402</ele>
        <time>2021-04-25T08:01:55Z</time>
      </trkpt>
      <trkpt lat="43.54449" lon="6.2985">
        <ele>402</ele>
        <time>2021-04-25T08:01:56Z</time>
      </trkpt>
      <trkpt lat="43.54448" lon="6.2985">
        <ele>401.9</ele>
        <time>2021-04-25T08:01:58Z</time>
      </trkpt>
      <trkpt lat="43.54451" lon="6.29847">
        <ele>402.2</ele>
        <time>2021-04-25T08:02:26Z</time>
      </trkpt>
      <trkpt lat="43.54456" lon="6.29837">
        <ele>402.5</ele>
        <time>2021-04-25T08:02:34Z</time>
      </trkpt>
      <trkpt lat="43.54465" lon="6.29832">
        <ele>403.1</ele>
        <time>2021-04-25T08:02:45Z</time>
      </trkpt>
      <trkpt lat="43.54466" lon="6.29833">
        <ele>402.7</ele>
        <time>2021-04-25T08:02:49Z</time>
      </trkpt>
      <trkpt lat="43.54466" lon="6.29833">
        <ele>402.8</ele>
        <time>2021-04-25T08:02:52Z</time>
      </trkpt>
      <trkpt lat="43.54468" lon="6.29832">
        <ele>402.6</ele>
        <time>2021-04-25T08:02:58Z</time>
      </trkpt>
      <trkpt lat="43.54468" lon="6.29832">
        <ele>402.6</ele>
        <time>2021-04-25T08:03:02Z</time>
      </trkpt>
      <trkpt lat="43.54468" lon="6.2983">
        <ele>402.6</ele>
        <time>2021-04-25T08:03:07Z</time>
      </trkpt>
      <trkpt lat="43.54468" lon="6.2983">
        <ele>402.7</ele>
        <time>2021-04-25T08:03:08Z</time>
      </trkpt>
      <trkpt lat="43.54466" lon="6.29828">
        <ele>402.7</ele>
        <time>2021-04-25T08:03:14Z</time>
      </trkpt>
      <trkpt lat="43.54466" lon="6.29827">
        <ele>402.7</ele>
        <time>2021-04-25T08:03:17Z</time>
      </trkpt>
      <trkpt lat="43.54463" lon="6.29821">
        <ele>402.7</ele>
        <time>2021-04-25T08:03:25Z</time>
      </trkpt>
      <trkpt lat="43.54463" lon="6.29822">
        <ele>402.6</ele>
        <time>2021-04-25T08:03:38Z</time>
      </trkpt>
      <trkpt lat="43.54463" lon="6.29822">
        <ele>402.6</ele>
        <time>2021-04-25T08:03:39Z</time>
      </trkpt>
      <trkpt lat="43.54462" lon="6.29822">
        <ele>402.4</ele>
        <time>2021-04-25T08:03:43Z</time>
      </trkpt>
      <trkpt lat="43.54455" lon="6.29814">
        <ele>402.3</ele>
        <time>2021-04-25T08:03:55Z</time>
      </trkpt>
      <trkpt lat="43.5446" lon="6.29804">
        <ele>402.2</ele>
        <time>2021-04-25T08:04:06Z</time>
      </trkpt>
      <trkpt lat="43.54466" lon="6.29794">
        <ele>402.1</ele>
        <time>2021-04-25T08:04:15Z</time>
      </trkpt>
      <trkpt lat="43.54472" lon="6.29784">
        <ele>402.1</ele>
        <time>2021-04-25T08:04:25Z</time>
      </trkpt>
      <trkpt lat="43.54478" lon="6.29773">
        <ele>401.9</ele>
        <time>2021-04-25T08:04:34Z</time>
      </trkpt>
      <trkpt lat="43.54484" lon="6.29763">
        <ele>401.5</ele>
        <time>2021-04-25T08:04:42Z</time>
      </trkpt>
      <trkpt lat="43.5449" lon="6.29754">
        <ele>401.6</ele>
        <time>2021-04-25T08:04:51Z</time>
      </trkpt>
      <trkpt lat="43.54497" lon="6.29746">
        <ele>401.8</ele>
        <time>2021-04-25T08:05:00Z</time>
      </trkpt>
      <trkpt lat="43.54499" lon="6.29744">
        <ele>401.7</ele>
        <time>2021-04-25T08:05:05Z</time>
      </trkpt>
      <trkpt lat="43.545" lon="6.29743">
        <ele>401.7</ele>
        <time>2021-04-25T08:05:06Z</time>
      </trkpt>
      <trkpt lat="43.54508" lon="6.29737">
        <ele>401.7</ele>
        <time>2021-04-25T08:05:14Z</time>
      </trkpt>
      <trkpt lat="43.54517" lon="6.29733">
        <ele>401.8</ele>
        <time>2021-04-25T08:05:23Z</time>
      </trkpt>
      <trkpt lat="43.54527" lon="6.29731">
        <ele>401.6</ele>
        <time>2021-04-25T08:05:32Z</time>
      </trkpt>
      <trkpt lat="43.54535" lon="6.29726">
        <ele>401.8</ele>
        <time>2021-04-25T08:05:40Z</time>
      </trkpt>
      <trkpt lat="43.54544" lon="6.29722">
        <ele>401.6</ele>
        <time>2021-04-25T08:05:48Z</time>
      </trkpt>
      <trkpt lat="43.54547" lon="6.29721">
        <ele>401.3</ele>
        <time>2021-04-25T08:05:54Z</time>
      </trkpt>
      <trkpt lat="43.54546" lon="6.2972">
        <ele>402.1</ele>
        <time>2021-04-25T08:05:58Z</time>
      </trkpt>
      <trkpt lat="43.54548" lon="6.29712">
        <ele>401.5</ele>
        <time>2021-04-25T08:06:08Z</time>
      </trkpt>
      <trkpt lat="43.54548" lon="6.29712">
        <ele>401.2</ele>
        <time>2021-04-25T08:06:14Z</time>
      </trkpt>
      <trkpt lat="43.54557" lon="6.29708">
        <ele>401.4</ele>
        <time>2021-04-25T08:06:24Z</time>
      </trkpt>
      <trkpt lat="43.54566" lon="6.29703">
        <ele>401.7</ele>
        <time>2021-04-25T08:06:33Z</time>
      </trkpt>
      <trkpt lat="43.54575" lon="6.29698">
        <ele>402.1</ele>
        <time>2021-04-25T08:06:44Z</time>
      </trkpt>
      <trkpt lat="43.54584" lon="6.29692">
        <ele>402</ele>
        <time>2021-04-25T08:06:54Z</time>
      </trkpt>
      <trkpt lat="43.54591" lon="6.29685">
        <ele>401.3</ele>
        <time>2021-04-25T08:07:03Z</time>
      </trkpt>
      <trkpt lat="43.54599" lon="6.29678">
        <ele>400.8</ele>
        <time>2021-04-25T08:07:11Z</time>
      </trkpt>
      <trkpt lat="43.54608" lon="6.29671">
        <ele>400.4</ele>
        <time>2021-04-25T08:07:19Z</time>
      </trkpt>
      <trkpt lat="43.54614" lon="6.29662">
        <ele>400.7</ele>
        <time>2021-04-25T08:07:28Z</time>
      </trkpt>
      <trkpt lat="43.54616" lon="6.29649">
        <ele>400.4</ele>
        <time>2021-04-25T08:07:36Z</time>
      </trkpt>
      <trkpt lat="43.54616" lon="6.29636">
        <ele>400</ele>
        <time>2021-04-25T08:07:44Z</time>
      </trkpt>
      <trkpt lat="43.54616" lon="6.29623">
        <ele>400</ele>
        <time>2021-04-25T08:07:53Z</time>
      </trkpt>
      <trkpt lat="43.54618" lon="6.2961">
        <ele>399.8</ele>
        <time>2021-04-25T08:08:01Z</time>
      </trkpt>
      <trkpt lat="43.54621" lon="6.29598">
        <ele>399.8</ele>
        <time>2021-04-25T08:08:09Z</time>
      </trkpt>
      <trkpt lat="43.54622" lon="6.29585">
        <ele>399.8</ele>
        <time>2021-04-25T08:08:20Z</time>
      </trkpt>
      <trkpt lat="43.54623" lon="6.29572">
        <ele>399.8</ele>
        <time>2021-04-25T08:08:28Z</time>
      </trkpt>
      <trkpt lat="43.54626" lon="6.2956">
        <ele>399.8</ele>
        <time>2021-04-25T08:08:35Z</time>
      </trkpt>
      <trkpt lat="43.54626" lon="6.29547">
        <ele>399.5</ele>
        <time>2021-04-25T08:08:43Z</time>
      </trkpt>
      <trkpt lat="43.54627" lon="6.29533">
        <ele>399.8</ele>
        <time>2021-04-25T08:08:51Z</time>
      </trkpt>
      <trkpt lat="43.54628" lon="6.2952">
        <ele>400.1</ele>
        <time>2021-04-25T08:09:00Z</time>
      </trkpt>
      <trkpt lat="43.54629" lon="6.29507">
        <ele>400.1</ele>
        <time>2021-04-25T08:09:08Z</time>
      </trkpt>
      <trkpt lat="43.54631" lon="6.29494">
        <ele>400.5</ele>
        <time>2021-04-25T08:09:17Z</time>
      </trkpt>
      <trkpt lat="43.54636" lon="6.29483">
        <ele>400.7</ele>
        <time>2021-04-25T08:09:27Z</time>
      </trkpt>
      <trkpt lat="43.54643" lon="6.29474">
        <ele>401.5</ele>
        <time>2021-04-25T08:09:37Z</time>
      </trkpt>
      <trkpt lat="43.54651" lon="6.29468">
        <ele>401.7</ele>
        <time>2021-04-25T08:09:45Z</time>
      </trkpt>
      <trkpt lat="43.54657" lon="6.29459">
        <ele>401.9</ele>
        <time>2021-04-25T08:09:53Z</time>
      </trkpt>
      <trkpt lat="43.54665" lon="6.2945">
        <ele>402</ele>
        <time>2021-04-25T08:10:02Z</time>
      </trkpt>
      <trkpt lat="43.54671" lon="6.2944">
        <ele>402.6</ele>
        <time>2021-04-25T08:10:13Z</time>
      </trkpt>
      <trkpt lat="43.54677" lon="6.2943">
        <ele>402.9</ele>
        <time>2021-04-25T08:10:22Z</time>
      </trkpt>
      <trkpt lat="43.54682" lon="6.2942">
        <ele>403.2</ele>
        <time>2021-04-25T08:10:30Z</time>
      </trkpt>
      <trkpt lat="43.54687" lon="6.29408">
        <ele>403.4</ele>
        <time>2021-04-25T08:10:38Z</time>
      </trkpt>
      <trkpt lat="43.54692" lon="6.29396">
        <ele>404</ele>
        <time>2021-04-25T08:10:49Z</time>
      </trkpt>
      <trkpt lat="43.54698" lon="6.29385">
        <ele>404.5</ele>
        <time>2021-04-25T08:10:58Z</time>
      </trkpt>
      <trkpt lat="43.547" lon="6.2938">
        <ele>405.3</ele>
        <time>2021-04-25T08:11:06Z</time>
      </trkpt>
      <trkpt lat="43.54701" lon="6.2938">
        <ele>405.4</ele>
        <time>2021-04-25T08:11:08Z</time>
      </trkpt>
      <trkpt lat="43.54709" lon="6.29372">
        <ele>406</ele>
        <time>2021-04-25T08:11:20Z</time>
      </trkpt>
      <trkpt lat="43.54713" lon="6.29361">
        <ele>406.2</ele>
        <time>2021-04-25T08:11:28Z</time>
      </trkpt>
      <trkpt lat="43.54718" lon="6.2935">
        <ele>405.9</ele>
        <time>2021-04-25T08:11:37Z</time>
      </trkpt>
      <trkpt lat="43.54724" lon="6.2934">
        <ele>405.1</ele>
        <time>2021-04-25T08:11:47Z</time>
      </trkpt>
      <trkpt lat="43.54734" lon="6.29342">
        <ele>404.3</ele>
        <time>2021-04-25T08:12:01Z</time>
      </trkpt>
      <trkpt lat="43.54743" lon="6.29341">
        <ele>403.3</ele>
        <time>2021-04-25T08:12:11Z</time>
      </trkpt>
      <trkpt lat="43.54752" lon="6.29337">
        <ele>402.7</ele>
        <time>2021-04-25T08:12:20Z</time>
      </trkpt>
      <trkpt lat="43.54758" lon="6.29338">
        <ele>402.3</ele>
        <time>2021-04-25T08:12:30Z</time>
      </trkpt>
      <trkpt lat="43.54759" lon="6.29338">
        <ele>402.3</ele>
        <time>2021-04-25T08:12:31Z</time>
      </trkpt>
      <trkpt lat="43.54768" lon="6.29337">
        <ele>401.3</ele>
        <time>2021-04-25T08:12:42Z</time>
      </trkpt>
      <trkpt lat="43.54777" lon="6.29337">
        <ele>400.3</ele>
        <time>2021-04-25T08:12:51Z</time>
      </trkpt>
      <trkpt lat="43.54787" lon="6.29335">
        <ele>399.3</ele>
        <time>2021-04-25T08:12:59Z</time>
      </trkpt>
      <trkpt lat="43.54795" lon="6.29328">
        <ele>397.7</ele>
        <time>2021-04-25T08:13:09Z</time>
      </trkpt>
      <trkpt lat="43.54804" lon="6.29327">
        <ele>396.1</ele>
        <time>2021-04-25T08:13:22Z</time>
      </trkpt>
      <trkpt lat="43.54813" lon="6.2933">
        <ele>394.4</ele>
        <time>2021-04-25T08:13:31Z</time>
      </trkpt>
      <trkpt lat="43.54823" lon="6.29327">
        <ele>392.6</ele>
        <time>2021-04-25T08:13:43Z</time>
      </trkpt>
      <trkpt lat="43.5482" lon="6.29314">
        <ele>390.1</ele>
        <time>2021-04-25T08:13:57Z</time>
      </trkpt>
      <trkpt lat="43.54818" lon="6.29302">
        <ele>389.1</ele>
        <time>2021-04-25T08:14:06Z</time>
      </trkpt>
      <trkpt lat="43.54815" lon="6.2929">
        <ele>387.8</ele>
        <time>2021-04-25T08:14:15Z</time>
      </trkpt>
      <trkpt lat="43.54809" lon="6.2928">
        <ele>386.7</ele>
        <time>2021-04-25T08:14:25Z</time>
      </trkpt>
      <trkpt lat="43.54805" lon="6.29268">
        <ele>385</ele>
        <time>2021-04-25T08:14:36Z</time>
      </trkpt>
      <trkpt lat="43.54801" lon="6.29256">
        <ele>383.6</ele>
        <time>2021-04-25T08:14:48Z</time>
      </trkpt>
      <trkpt lat="43.54802" lon="6.29243">
        <ele>381.4</ele>
        <time>2021-04-25T08:15:01Z</time>
      </trkpt>
      <trkpt lat="43.54803" lon="6.29243">
        <ele>381.1</ele>
        <time>2021-04-25T08:15:04Z</time>
      </trkpt>
      <trkpt lat="43.54803" lon="6.29243">
        <ele>380.9</ele>
        <time>2021-04-25T08:15:05Z</time>
      </trkpt>
      <trkpt lat="43.54803" lon="6.29244">
        <ele>381.2</ele>
        <time>2021-04-25T08:15:09Z</time>
      </trkpt>
      <trkpt lat="43.54804" lon="6.29244">
        <ele>381.2</ele>
        <time>2021-04-25T08:15:12Z</time>
      </trkpt>
      <trkpt lat="43.54804" lon="6.29244">
        <ele>381.2</ele>
        <time>2021-04-25T08:15:13Z</time>
      </trkpt>
      <trkpt lat="43.54804" lon="6.29244">
        <ele>380.9</ele>
        <time>2021-04-25T08:15:47Z</time>
      </trkpt>
      <trkpt lat="43.54804" lon="6.29244">
        <ele>380.8</ele>
        <time>2021-04-25T08:15:48Z</time>
      </trkpt>
      <trkpt lat="43.54804" lon="6.29244">
        <ele>380.8</ele>
        <time>2021-04-25T08:15:50Z</time>
      </trkpt>
      <trkpt lat="43.54804" lon="6.29244">
        <ele>380.9</ele>
        <time>2021-04-25T08:15:51Z</time>
      </trkpt>
      <trkpt lat="43.54803" lon="6.29244">
        <ele>381.1</ele>
        <time>2021-04-25T08:15:52Z</time>
      </trkpt>
      <trkpt lat="43.54803" lon="6.29244">
        <ele>381.2</ele>
        <time>2021-04-25T08:15:53Z</time>
      </trkpt>
      <trkpt lat="43.54803" lon="6.29245">
        <ele>381.3</ele>
        <time>2021-04-25T08:15:58Z</time>
      </trkpt>
      <trkpt lat="43.54803" lon="6.29245">
        <ele>381.3</ele>
        <time>2021-04-25T08:16:01Z</time>
      </trkpt>
      <trkpt lat="43.54803" lon="6.29244">
        <ele>381.2</ele>
        <time>2021-04-25T08:16:02Z</time>
      </trkpt>
      <trkpt lat="43.54799" lon="6.29232">
        <ele>379.5</ele>
        <time>2021-04-25T08:16:13Z</time>
      </trkpt>
      <trkpt lat="43.54801" lon="6.29219">
        <ele>378.5</ele>
        <time>2021-04-25T08:16:24Z</time>
      </trkpt>
      <trkpt lat="43.54806" lon="6.29208">
        <ele>377.3</ele>
        <time>2021-04-25T08:16:33Z</time>
      </trkpt>
      <trkpt lat="43.54808" lon="6.29195">
        <ele>376.7</ele>
        <time>2021-04-25T08:16:43Z</time>
      </trkpt>
      <trkpt lat="43.54807" lon="6.29182">
        <ele>375.7</ele>
        <time>2021-04-25T08:16:52Z</time>
      </trkpt>
      <trkpt lat="43.5481" lon="6.29171">
        <ele>375.1</ele>
        <time>2021-04-25T08:17:01Z</time>
      </trkpt>
      <trkpt lat="43.54815" lon="6.2916">
        <ele>374</ele>
        <time>2021-04-25T08:17:13Z</time>
      </trkpt>
      <trkpt lat="43.54824" lon="6.29154">
        <ele>372.7</ele>
        <time>2021-04-25T08:17:23Z</time>
      </trkpt>
      <trkpt lat="43.54833" lon="6.29152">
        <ele>372.2</ele>
        <time>2021-04-25T08:17:33Z</time>
      </trkpt>
      <trkpt lat="43.54842" lon="6.29149">
        <ele>371.4</ele>
        <time>2021-04-25T08:17:44Z</time>
      </trkpt>
      <trkpt lat="43.54851" lon="6.29143">
        <ele>370.8</ele>
        <time>2021-04-25T08:17:53Z</time>
      </trkpt>
      <trkpt lat="43.5486" lon="6.29141">
        <ele>370.7</ele>
        <time>2021-04-25T08:18:00Z</time>
      </trkpt>
      <trkpt lat="43.54869" lon="6.2914">
        <ele>370.4</ele>
        <time>2021-04-25T08:18:10Z</time>
      </trkpt>
      <trkpt lat="43.54878" lon="6.29143">
        <ele>369.8</ele>
        <time>2021-04-25T08:18:19Z</time>
      </trkpt>
      <trkpt lat="43.54888" lon="6.29142">
        <ele>369.3</ele>
        <time>2021-04-25T08:18:28Z</time>
      </trkpt>
      <trkpt lat="43.54897" lon="6.29138">
        <ele>368.9</ele>
        <time>2021-04-25T08:18:36Z</time>
      </trkpt>
      <trkpt lat="43.54906" lon="6.29134">
        <ele>369.1</ele>
        <time>2021-04-25T08:18:44Z</time>
      </trkpt>
      <trkpt lat="43.54915" lon="6.2913">
        <ele>368.5</ele>
        <time>2021-04-25T08:18:54Z</time>
      </trkpt>
      <trkpt lat="43.54924" lon="6.29123">
        <ele>367.6</ele>
        <time>2021-04-25T08:19:07Z</time>
      </trkpt>
      <trkpt lat="43.54932" lon="6.29116">
        <ele>367</ele>
        <time>2021-04-25T08:19:15Z</time>
      </trkpt>
      <trkpt lat="43.54942" lon="6.29113">
        <ele>366.1</ele>
        <time>2021-04-25T08:19:24Z</time>
      </trkpt>
      <trkpt lat="43.54951" lon="6.2911">
        <ele>365.4</ele>
        <time>2021-04-25T08:19:32Z</time>
      </trkpt>
      <trkpt lat="43.5496" lon="6.29106">
        <ele>364.8</ele>
        <time>2021-04-25T08:19:40Z</time>
      </trkpt>
      <trkpt lat="43.5497" lon="6.29104">
        <ele>364.1</ele>
        <time>2021-04-25T08:19:47Z</time>
      </trkpt>
      <trkpt lat="43.54981" lon="6.29105">
        <ele>362.2</ele>
        <time>2021-04-25T08:19:59Z</time>
      </trkpt>
      <trkpt lat="43.5499" lon="6.29102">
        <ele>361.4</ele>
        <time>2021-04-25T08:20:07Z</time>
      </trkpt>
      <trkpt lat="43.54999" lon="6.29099">
        <ele>359.8</ele>
        <time>2021-04-25T08:20:17Z</time>
      </trkpt>
      <trkpt lat="43.55008" lon="6.29097">
        <ele>358.1</ele>
        <time>2021-04-25T08:20:26Z</time>
      </trkpt>
      <trkpt lat="43.55018" lon="6.29098">
        <ele>356.1</ele>
        <time>2021-04-25T08:20:37Z</time>
      </trkpt>
      <trkpt lat="43.55026" lon="6.29092">
        <ele>355.3</ele>
        <time>2021-04-25T08:20:46Z</time>
      </trkpt>
      <trkpt lat="43.55035" lon="6.29086">
        <ele>354.4</ele>
        <time>2021-04-25T08:20:58Z</time>
      </trkpt>
      <trkpt lat="43.55042" lon="6.29079">
        <ele>353.3</ele>
        <time>2021-04-25T08:21:06Z</time>
      </trkpt>
      <trkpt lat="43.55049" lon="6.2907">
        <ele>352.4</ele>
        <time>2021-04-25T08:21:14Z</time>
      </trkpt>
      <trkpt lat="43.55057" lon="6.29063">
        <ele>351.1</ele>
        <time>2021-04-25T08:21:23Z</time>
      </trkpt>
      <trkpt lat="43.55062" lon="6.29058">
        <ele>350.6</ele>
        <time>2021-04-25T08:21:34Z</time>
      </trkpt>
      <trkpt lat="43.55063" lon="6.29057">
        <ele>350.3</ele>
        <time>2021-04-25T08:21:40Z</time>
      </trkpt>
      <trkpt lat="43.5507" lon="6.2905">
        <ele>349.6</ele>
        <time>2021-04-25T08:21:50Z</time>
      </trkpt>
      <trkpt lat="43.55079" lon="6.29047">
        <ele>349</ele>
        <time>2021-04-25T08:22:00Z</time>
      </trkpt>
      <trkpt lat="43.55088" lon="6.29042">
        <ele>347.9</ele>
        <time>2021-04-25T08:22:09Z</time>
      </trkpt>
      <trkpt lat="43.55097" lon="6.29035">
        <ele>346.7</ele>
        <time>2021-04-25T08:22:17Z</time>
      </trkpt>
      <trkpt lat="43.55106" lon="6.2903">
        <ele>345.8</ele>
        <time>2021-04-25T08:22:27Z</time>
      </trkpt>
      <trkpt lat="43.55114" lon="6.29023">
        <ele>344.7</ele>
        <time>2021-04-25T08:22:35Z</time>
      </trkpt>
      <trkpt lat="43.55123" lon="6.29017">
        <ele>343.6</ele>
        <time>2021-04-25T08:22:43Z</time>
      </trkpt>
      <trkpt lat="43.55131" lon="6.29009">
        <ele>343.5</ele>
        <time>2021-04-25T08:22:52Z</time>
      </trkpt>
      <trkpt lat="43.55135" lon="6.29002">
        <ele>342.9</ele>
        <time>2021-04-25T08:24:42Z</time>
      </trkpt>
      <trkpt lat="43.5514" lon="6.28999">
        <ele>341.8</ele>
        <time>2021-04-25T08:24:57Z</time>
      </trkpt>
      <trkpt lat="43.55141" lon="6.28999">
        <ele>341.9</ele>
        <time>2021-04-25T08:24:58Z</time>
      </trkpt>
      <trkpt lat="43.55142" lon="6.28998">
        <ele>341.9</ele>
        <time>2021-04-25T08:25:00Z</time>
      </trkpt>
      <trkpt lat="43.55142" lon="6.28998">
        <ele>341.9</ele>
        <time>2021-04-25T08:25:04Z</time>
      </trkpt>
      <trkpt lat="43.55142" lon="6.28998">
        <ele>342.1</ele>
        <time>2021-04-25T08:25:06Z</time>
      </trkpt>
      <trkpt lat="43.55143" lon="6.28998">
        <ele>342</ele>
        <time>2021-04-25T08:25:07Z</time>
      </trkpt>
      <trkpt lat="43.55143" lon="6.28998">
        <ele>341.9</ele>
        <time>2021-04-25T08:25:08Z</time>
      </trkpt>
      <trkpt lat="43.55143" lon="6.28997">
        <ele>342.1</ele>
        <time>2021-04-25T08:25:51Z</time>
      </trkpt>
      <trkpt lat="43.55142" lon="6.28997">
        <ele>341.9</ele>
        <time>2021-04-25T08:25:53Z</time>
      </trkpt>
      <trkpt lat="43.55142" lon="6.28997">
        <ele>341.9</ele>
        <time>2021-04-25T08:25:54Z</time>
      </trkpt>
      <trkpt lat="43.55142" lon="6.28997">
        <ele>342</ele>
        <time>2021-04-25T08:25:58Z</time>
      </trkpt>
      <trkpt lat="43.55142" lon="6.28997">
        <ele>341.8</ele>
        <time>2021-04-25T08:25:59Z</time>
      </trkpt>
      <trkpt lat="43.55135" lon="6.28998">
        <ele>342</ele>
        <time>2021-04-25T08:26:47Z</time>
      </trkpt>
      <trkpt lat="43.55135" lon="6.28998">
        <ele>342</ele>
        <time>2021-04-25T08:26:48Z</time>
      </trkpt>
      <trkpt lat="43.55135" lon="6.28998">
        <ele>342</ele>
        <time>2021-04-25T08:26:50Z</time>
      </trkpt>
      <trkpt lat="43.55134" lon="6.29001">
        <ele>341.8</ele>
        <time>2021-04-25T08:26:56Z</time>
      </trkpt>
      <trkpt lat="43.55135" lon="6.29001">
        <ele>341.8</ele>
        <time>2021-04-25T08:26:58Z</time>
      </trkpt>
      <trkpt lat="43.55136" lon="6.29002">
        <ele>342.3</ele>
        <time>2021-04-25T08:27:31Z</time>
      </trkpt>
      <trkpt lat="43.55136" lon="6.29002">
        <ele>342.3</ele>
        <time>2021-04-25T08:27:32Z</time>
      </trkpt>
      <trkpt lat="43.55136" lon="6.29003">
        <ele>341.9</ele>
        <time>2021-04-25T08:27:37Z</time>
      </trkpt>
      <trkpt lat="43.55136" lon="6.29003">
        <ele>341.8</ele>
        <time>2021-04-25T08:27:38Z</time>
      </trkpt>
      <trkpt lat="43.55136" lon="6.29003">
        <ele>341.9</ele>
        <time>2021-04-25T08:27:39Z</time>
      </trkpt>
      <trkpt lat="43.55136" lon="6.29003">
        <ele>341.9</ele>
        <time>2021-04-25T08:27:54Z</time>
      </trkpt>
      <trkpt lat="43.55136" lon="6.29003">
        <ele>341.9</ele>
        <time>2021-04-25T08:27:55Z</time>
      </trkpt>
      <trkpt lat="43.55136" lon="6.29004">
        <ele>342</ele>
        <time>2021-04-25T08:28:06Z</time>
      </trkpt>
      <trkpt lat="43.55136" lon="6.29004">
        <ele>342</ele>
        <time>2021-04-25T08:28:07Z</time>
      </trkpt>
      <trkpt lat="43.55136" lon="6.29004">
        <ele>342.1</ele>
        <time>2021-04-25T08:28:22Z</time>
      </trkpt>
      <trkpt lat="43.55136" lon="6.29003">
        <ele>342.1</ele>
        <time>2021-04-25T08:28:33Z</time>
      </trkpt>
      <trkpt lat="43.55136" lon="6.29003">
        <ele>342.1</ele>
        <time>2021-04-25T08:28:35Z</time>
      </trkpt>
      <trkpt lat="43.55136" lon="6.29004">
        <ele>342.2</ele>
        <time>2021-04-25T08:28:37Z</time>
      </trkpt>
      <trkpt lat="43.55136" lon="6.29004">
        <ele>342.2</ele>
        <time>2021-04-25T08:28:38Z</time>
      </trkpt>
      <trkpt lat="43.55136" lon="6.29004">
        <ele>342.1</ele>
        <time>2021-04-25T08:28:39Z</time>
      </trkpt>
      <trkpt lat="43.55136" lon="6.29004">
        <ele>342.1</ele>
        <time>2021-04-25T08:28:44Z</time>
      </trkpt>
      <trkpt lat="43.55136" lon="6.29006">
        <ele>342.1</ele>
        <time>2021-04-25T08:28:51Z</time>
      </trkpt>
      <trkpt lat="43.55136" lon="6.29006">
        <ele>342</ele>
        <time>2021-04-25T08:28:55Z</time>
      </trkpt>
      <trkpt lat="43.55136" lon="6.29006">
        <ele>342.1</ele>
        <time>2021-04-25T08:28:56Z</time>
      </trkpt>
      <trkpt lat="43.55136" lon="6.29006">
        <ele>341.7</ele>
        <time>2021-04-25T08:28:58Z</time>
      </trkpt>
      <trkpt lat="43.55134" lon="6.29006">
        <ele>341.7</ele>
        <time>2021-04-25T08:29:07Z</time>
      </trkpt>
      <trkpt lat="43.55134" lon="6.29006">
        <ele>341.4</ele>
        <time>2021-04-25T08:29:21Z</time>
      </trkpt>
      <trkpt lat="43.55134" lon="6.29006">
        <ele>341.6</ele>
        <time>2021-04-25T08:29:22Z</time>
      </trkpt>
      <trkpt lat="43.55135" lon="6.29006">
        <ele>341.5</ele>
        <time>2021-04-25T08:29:40Z</time>
      </trkpt>
      <trkpt lat="43.55135" lon="6.29006">
        <ele>341.6</ele>
        <time>2021-04-25T08:29:41Z</time>
      </trkpt>
      <trkpt lat="43.55134" lon="6.29006">
        <ele>341.6</ele>
        <time>2021-04-25T08:29:42Z</time>
      </trkpt>
      <trkpt lat="43.55134" lon="6.29006">
        <ele>341.7</ele>
        <time>2021-04-25T08:29:43Z</time>
      </trkpt>
      <trkpt lat="43.55134" lon="6.29006">
        <ele>341.6</ele>
        <time>2021-04-25T08:29:53Z</time>
      </trkpt>
      <trkpt lat="43.55134" lon="6.29006">
        <ele>341.5</ele>
        <time>2021-04-25T08:29:54Z</time>
      </trkpt>
      <trkpt lat="43.55134" lon="6.29007">
        <ele>341.6</ele>
        <time>2021-04-25T08:30:01Z</time>
      </trkpt>
      <trkpt lat="43.55134" lon="6.29007">
        <ele>341.8</ele>
        <time>2021-04-25T08:30:04Z</time>
      </trkpt>
      <trkpt lat="43.55134" lon="6.29007">
        <ele>341.7</ele>
        <time>2021-04-25T08:30:12Z</time>
      </trkpt>
      <trkpt lat="43.55134" lon="6.29007">
        <ele>341.7</ele>
        <time>2021-04-25T08:30:13Z</time>
      </trkpt>
      <trkpt lat="43.55135" lon="6.29008">
        <ele>341.5</ele>
        <time>2021-04-25T08:30:33Z</time>
      </trkpt>
      <trkpt lat="43.55135" lon="6.29008">
        <ele>341.5</ele>
        <time>2021-04-25T08:30:34Z</time>
      </trkpt>
      <trkpt lat="43.55135" lon="6.29008">
        <ele>341.5</ele>
        <time>2021-04-25T08:31:40Z</time>
      </trkpt>
      <trkpt lat="43.55136" lon="6.29008">
        <ele>341.4</ele>
        <time>2021-04-25T08:31:43Z</time>
      </trkpt>
      <trkpt lat="43.55136" lon="6.29007">
        <ele>341.6</ele>
        <time>2021-04-25T08:31:46Z</time>
      </trkpt>
      <trkpt lat="43.55145" lon="6.29008">
        <ele>340</ele>
        <time>2021-04-25T08:31:59Z</time>
      </trkpt>
      <trkpt lat="43.55154" lon="6.29005">
        <ele>338.8</ele>
        <time>2021-04-25T08:32:07Z</time>
      </trkpt>
      <trkpt lat="43.55163" lon="6.29003">
        <ele>337.7</ele>
        <time>2021-04-25T08:32:18Z</time>
      </trkpt>
      <trkpt lat="43.55172" lon="6.29001">
        <ele>336.2</ele>
        <time>2021-04-25T08:32:28Z</time>
      </trkpt>
      <trkpt lat="43.55182" lon="6.28998">
        <ele>334.9</ele>
        <time>2021-04-25T08:32:41Z</time>
      </trkpt>
      <trkpt lat="43.55192" lon="6.29">
        <ele>333.5</ele>
        <time>2021-04-25T08:32:51Z</time>
      </trkpt>
      <trkpt lat="43.55201" lon="6.29004">
        <ele>332.6</ele>
        <time>2021-04-25T08:33:01Z</time>
      </trkpt>
      <trkpt lat="43.55209" lon="6.29012">
        <ele>330.5</ele>
        <time>2021-04-25T08:33:14Z</time>
      </trkpt>
      <trkpt lat="43.55217" lon="6.29018">
        <ele>328.6</ele>
        <time>2021-04-25T08:33:25Z</time>
      </trkpt>
      <trkpt lat="43.55225" lon="6.29026">
        <ele>327</ele>
        <time>2021-04-25T08:33:35Z</time>
      </trkpt>
      <trkpt lat="43.55234" lon="6.2903">
        <ele>325.9</ele>
        <time>2021-04-25T08:33:44Z</time>
      </trkpt>
      <trkpt lat="43.55242" lon="6.29022">
        <ele>325</ele>
        <time>2021-04-25T08:33:50Z</time>
      </trkpt>
      <trkpt lat="43.5525" lon="6.29016">
        <ele>324.1</ele>
        <time>2021-04-25T08:33:59Z</time>
      </trkpt>
      <trkpt lat="43.55257" lon="6.29008">
        <ele>323.2</ele>
        <time>2021-04-25T08:34:08Z</time>
      </trkpt>
      <trkpt lat="43.55263" lon="6.28999">
        <ele>321.8</ele>
        <time>2021-04-25T08:34:18Z</time>
      </trkpt>
      <trkpt lat="43.55268" lon="6.28987">
        <ele>320.3</ele>
        <time>2021-04-25T08:34:30Z</time>
      </trkpt>
      <trkpt lat="43.55271" lon="6.28975">
        <ele>317.5</ele>
        <time>2021-04-25T08:34:48Z</time>
      </trkpt>
      <trkpt lat="43.5527" lon="6.28962">
        <ele>318.4</ele>
        <time>2021-04-25T08:35:01Z</time>
      </trkpt>
      <trkpt lat="43.55262" lon="6.28954">
        <ele>319.5</ele>
        <time>2021-04-25T08:35:12Z</time>
      </trkpt>
      <trkpt lat="43.55254" lon="6.2895">
        <ele>320.5</ele>
        <time>2021-04-25T08:35:21Z</time>
      </trkpt>
      <trkpt lat="43.55245" lon="6.28946">
        <ele>321.4</ele>
        <time>2021-04-25T08:35:31Z</time>
      </trkpt>
      <trkpt lat="43.55236" lon="6.28941">
        <ele>322.4</ele>
        <time>2021-04-25T08:35:42Z</time>
      </trkpt>
      <trkpt lat="43.55228" lon="6.28935">
        <ele>323.4</ele>
        <time>2021-04-25T08:35:52Z</time>
      </trkpt>
      <trkpt lat="43.5522" lon="6.28928">
        <ele>325.1</ele>
        <time>2021-04-25T08:36:02Z</time>
      </trkpt>
      <trkpt lat="43.55215" lon="6.28916">
        <ele>325.7</ele>
        <time>2021-04-25T08:36:13Z</time>
      </trkpt>
      <trkpt lat="43.55217" lon="6.28903">
        <ele>326.7</ele>
        <time>2021-04-25T08:36:25Z</time>
      </trkpt>
      <trkpt lat="43.55222" lon="6.28892">
        <ele>327.6</ele>
        <time>2021-04-25T08:36:37Z</time>
      </trkpt>
      <trkpt lat="43.55225" lon="6.28879">
        <ele>328.4</ele>
        <time>2021-04-25T08:36:48Z</time>
      </trkpt>
      <trkpt lat="43.55226" lon="6.28866">
        <ele>329.1</ele>
        <time>2021-04-25T08:36:57Z</time>
      </trkpt>
      <trkpt lat="43.55227" lon="6.28854">
        <ele>329.8</ele>
        <time>2021-04-25T08:37:06Z</time>
      </trkpt>
      <trkpt lat="43.55223" lon="6.28842">
        <ele>330.5</ele>
        <time>2021-04-25T08:37:16Z</time>
      </trkpt>
      <trkpt lat="43.55218" lon="6.2883">
        <ele>331.2</ele>
        <time>2021-04-25T08:37:26Z</time>
      </trkpt>
      <trkpt lat="43.55212" lon="6.2882">
        <ele>331.9</ele>
        <time>2021-04-25T08:37:36Z</time>
      </trkpt>
      <trkpt lat="43.55206" lon="6.2881">
        <ele>332.5</ele>
        <time>2021-04-25T08:37:45Z</time>
      </trkpt>
      <trkpt lat="43.55202" lon="6.28799">
        <ele>333.5</ele>
        <time>2021-04-25T08:37:54Z</time>
      </trkpt>
      <trkpt lat="43.55199" lon="6.28787">
        <ele>334.5</ele>
        <time>2021-04-25T08:38:05Z</time>
      </trkpt>
      <trkpt lat="43.552" lon="6.28775">
        <ele>335.8</ele>
        <time>2021-04-25T08:38:16Z</time>
      </trkpt>
      <trkpt lat="43.55201" lon="6.28762">
        <ele>336.3</ele>
        <time>2021-04-25T08:38:28Z</time>
      </trkpt>
      <trkpt lat="43.55203" lon="6.28749">
        <ele>337.6</ele>
        <time>2021-04-25T08:38:39Z</time>
      </trkpt>
      <trkpt lat="43.55206" lon="6.28736">
        <ele>338.7</ele>
        <time>2021-04-25T08:38:50Z</time>
      </trkpt>
      <trkpt lat="43.55211" lon="6.28724">
        <ele>339.8</ele>
        <time>2021-04-25T08:39:03Z</time>
      </trkpt>
      <trkpt lat="43.55216" lon="6.28713">
        <ele>341</ele>
        <time>2021-04-25T08:39:15Z</time>
      </trkpt>
      <trkpt lat="43.55219" lon="6.28701">
        <ele>342.6</ele>
        <time>2021-04-25T08:39:26Z</time>
      </trkpt>
      <trkpt lat="43.55222" lon="6.28688">
        <ele>343.2</ele>
        <time>2021-04-25T08:39:35Z</time>
      </trkpt>
      <trkpt lat="43.55223" lon="6.28675">
        <ele>343.9</ele>
        <time>2021-04-25T08:39:44Z</time>
      </trkpt>
      <trkpt lat="43.55223" lon="6.28661">
        <ele>344.4</ele>
        <time>2021-04-25T08:39:53Z</time>
      </trkpt>
      <trkpt lat="43.55222" lon="6.28647">
        <ele>344.8</ele>
        <time>2021-04-25T08:40:02Z</time>
      </trkpt>
      <trkpt lat="43.55222" lon="6.28634">
        <ele>345.6</ele>
        <time>2021-04-25T08:40:12Z</time>
      </trkpt>
      <trkpt lat="43.55223" lon="6.28621">
        <ele>346.7</ele>
        <time>2021-04-25T08:40:23Z</time>
      </trkpt>
      <trkpt lat="43.55226" lon="6.28609">
        <ele>347.9</ele>
        <time>2021-04-25T08:40:33Z</time>
      </trkpt>
      <trkpt lat="43.55231" lon="6.28598">
        <ele>348.2</ele>
        <time>2021-04-25T08:40:42Z</time>
      </trkpt>
      <trkpt lat="43.55234" lon="6.28586">
        <ele>349.2</ele>
        <time>2021-04-25T08:40:53Z</time>
      </trkpt>
      <trkpt lat="43.55239" lon="6.28575">
        <ele>350.7</ele>
        <time>2021-04-25T08:41:04Z</time>
      </trkpt>
      <trkpt lat="43.55243" lon="6.28563">
        <ele>351.5</ele>
        <time>2021-04-25T08:41:14Z</time>
      </trkpt>
      <trkpt lat="43.55244" lon="6.2855">
        <ele>352.1</ele>
        <time>2021-04-25T08:41:23Z</time>
      </trkpt>
      <trkpt lat="43.55244" lon="6.28536">
        <ele>352.8</ele>
        <time>2021-04-25T08:41:33Z</time>
      </trkpt>
      <trkpt lat="43.55245" lon="6.28523">
        <ele>353.8</ele>
        <time>2021-04-25T08:41:44Z</time>
      </trkpt>
      <trkpt lat="43.55247" lon="6.2851">
        <ele>354.8</ele>
        <time>2021-04-25T08:41:55Z</time>
      </trkpt>
      <trkpt lat="43.55249" lon="6.28497">
        <ele>355.6</ele>
        <time>2021-04-25T08:42:06Z</time>
      </trkpt>
      <trkpt lat="43.55253" lon="6.28486">
        <ele>356.5</ele>
        <time>2021-04-25T08:42:16Z</time>
      </trkpt>
      <trkpt lat="43.55256" lon="6.28473">
        <ele>357.3</ele>
        <time>2021-04-25T08:42:27Z</time>
      </trkpt>
      <trkpt lat="43.55258" lon="6.2846">
        <ele>358.3</ele>
        <time>2021-04-25T08:42:36Z</time>
      </trkpt>
      <trkpt lat="43.55257" lon="6.28447">
        <ele>359.3</ele>
        <time>2021-04-25T08:42:46Z</time>
      </trkpt>
      <trkpt lat="43.55251" lon="6.28437">
        <ele>360.3</ele>
        <time>2021-04-25T08:42:55Z</time>
      </trkpt>
      <trkpt lat="43.55244" lon="6.28428">
        <ele>360.6</ele>
        <time>2021-04-25T08:43:05Z</time>
      </trkpt>
      <trkpt lat="43.55239" lon="6.28417">
        <ele>361</ele>
        <time>2021-04-25T08:43:14Z</time>
      </trkpt>
      <trkpt lat="43.55233" lon="6.28407">
        <ele>361.7</ele>
        <time>2021-04-25T08:43:24Z</time>
      </trkpt>
      <trkpt lat="43.55227" lon="6.28397">
        <ele>362.9</ele>
        <time>2021-04-25T08:43:35Z</time>
      </trkpt>
      <trkpt lat="43.55221" lon="6.28387">
        <ele>363.9</ele>
        <time>2021-04-25T08:43:45Z</time>
      </trkpt>
      <trkpt lat="43.55215" lon="6.28376">
        <ele>364.9</ele>
        <time>2021-04-25T08:43:54Z</time>
      </trkpt>
      <trkpt lat="43.55209" lon="6.28367">
        <ele>365.7</ele>
        <time>2021-04-25T08:44:02Z</time>
      </trkpt>
      <trkpt lat="43.55207" lon="6.28361">
        <ele>366.1</ele>
        <time>2021-04-25T08:44:09Z</time>
      </trkpt>
      <trkpt lat="43.55207" lon="6.28361">
        <ele>366.2</ele>
        <time>2021-04-25T08:44:10Z</time>
      </trkpt>
      <trkpt lat="43.55198" lon="6.28356">
        <ele>367.1</ele>
        <time>2021-04-25T08:44:21Z</time>
      </trkpt>
      <trkpt lat="43.5519" lon="6.28352">
        <ele>367.8</ele>
        <time>2021-04-25T08:44:29Z</time>
      </trkpt>
      <trkpt lat="43.55186" lon="6.28348">
        <ele>367.9</ele>
        <time>2021-04-25T08:44:36Z</time>
      </trkpt>
      <trkpt lat="43.55185" lon="6.28348">
        <ele>367.6</ele>
        <time>2021-04-25T08:44:39Z</time>
      </trkpt>
      <trkpt lat="43.55177" lon="6.28341">
        <ele>368.8</ele>
        <time>2021-04-25T08:44:52Z</time>
      </trkpt>
      <trkpt lat="43.55169" lon="6.28335">
        <ele>370</ele>
        <time>2021-04-25T08:45:03Z</time>
      </trkpt>
      <trkpt lat="43.55162" lon="6.28327">
        <ele>370.9</ele>
        <time>2021-04-25T08:45:13Z</time>
      </trkpt>
      <trkpt lat="43.55156" lon="6.28316">
        <ele>371.9</ele>
        <time>2021-04-25T08:45:24Z</time>
      </trkpt>
      <trkpt lat="43.5515" lon="6.28305">
        <ele>372.8</ele>
        <time>2021-04-25T08:45:34Z</time>
      </trkpt>
      <trkpt lat="43.55147" lon="6.28293">
        <ele>373.6</ele>
        <time>2021-04-25T08:45:46Z</time>
      </trkpt>
      <trkpt lat="43.55144" lon="6.28281">
        <ele>374.5</ele>
        <time>2021-04-25T08:45:56Z</time>
      </trkpt>
      <trkpt lat="43.55139" lon="6.28271">
        <ele>375.1</ele>
        <time>2021-04-25T08:46:05Z</time>
      </trkpt>
      <trkpt lat="43.55138" lon="6.28257">
        <ele>376.3</ele>
        <time>2021-04-25T08:46:16Z</time>
      </trkpt>
      <trkpt lat="43.55138" lon="6.28245">
        <ele>377.1</ele>
        <time>2021-04-25T08:46:26Z</time>
      </trkpt>
      <trkpt lat="43.5514" lon="6.28231">
        <ele>377.9</ele>
        <time>2021-04-25T08:46:38Z</time>
      </trkpt>
      <trkpt lat="43.55141" lon="6.28219">
        <ele>378.8</ele>
        <time>2021-04-25T08:46:47Z</time>
      </trkpt>
      <trkpt lat="43.55141" lon="6.28205">
        <ele>380</ele>
        <time>2021-04-25T08:46:58Z</time>
      </trkpt>
      <trkpt lat="43.55143" lon="6.28193">
        <ele>380.7</ele>
        <time>2021-04-25T08:47:07Z</time>
      </trkpt>
      <trkpt lat="43.55145" lon="6.2818">
        <ele>381.4</ele>
        <time>2021-04-25T08:47:16Z</time>
      </trkpt>
      <trkpt lat="43.55146" lon="6.28167">
        <ele>381.7</ele>
        <time>2021-04-25T08:47:25Z</time>
      </trkpt>
      <trkpt lat="43.55147" lon="6.28154">
        <ele>382.4</ele>
        <time>2021-04-25T08:47:34Z</time>
      </trkpt>
      <trkpt lat="43.55146" lon="6.28141">
        <ele>383.3</ele>
        <time>2021-04-25T08:47:44Z</time>
      </trkpt>
      <trkpt lat="43.55144" lon="6.28129">
        <ele>384.1</ele>
        <time>2021-04-25T08:47:55Z</time>
      </trkpt>
      <trkpt lat="43.55144" lon="6.28116">
        <ele>385</ele>
        <time>2021-04-25T08:48:04Z</time>
      </trkpt>
      <trkpt lat="43.55142" lon="6.28103">
        <ele>386.1</ele>
        <time>2021-04-25T08:48:14Z</time>
      </trkpt>
      <trkpt lat="43.5514" lon="6.2809">
        <ele>386.9</ele>
        <time>2021-04-25T08:48:25Z</time>
      </trkpt>
      <trkpt lat="43.55136" lon="6.28079">
        <ele>387.4</ele>
        <time>2021-04-25T08:48:35Z</time>
      </trkpt>
      <trkpt lat="43.55133" lon="6.28067">
        <ele>388.3</ele>
        <time>2021-04-25T08:48:45Z</time>
      </trkpt>
      <trkpt lat="43.55131" lon="6.28055">
        <ele>389.3</ele>
        <time>2021-04-25T08:48:55Z</time>
      </trkpt>
      <trkpt lat="43.55128" lon="6.28042">
        <ele>390.4</ele>
        <time>2021-04-25T08:49:05Z</time>
      </trkpt>
      <trkpt lat="43.55126" lon="6.2803">
        <ele>391.3</ele>
        <time>2021-04-25T08:49:16Z</time>
      </trkpt>
      <trkpt lat="43.55123" lon="6.28019">
        <ele>392.4</ele>
        <time>2021-04-25T08:49:26Z</time>
      </trkpt>
      <trkpt lat="43.5512" lon="6.28006">
        <ele>393.4</ele>
        <time>2021-04-25T08:49:37Z</time>
      </trkpt>
      <trkpt lat="43.55118" lon="6.27994">
        <ele>394</ele>
        <time>2021-04-25T08:49:46Z</time>
      </trkpt>
      <trkpt lat="43.55117" lon="6.27981">
        <ele>394.6</ele>
        <time>2021-04-25T08:49:55Z</time>
      </trkpt>
      <trkpt lat="43.55117" lon="6.27968">
        <ele>395.6</ele>
        <time>2021-04-25T08:50:05Z</time>
      </trkpt>
      <trkpt lat="43.55117" lon="6.27955">
        <ele>396.2</ele>
        <time>2021-04-25T08:50:15Z</time>
      </trkpt>
      <trkpt lat="43.55115" lon="6.27943">
        <ele>397.3</ele>
        <time>2021-04-25T08:50:25Z</time>
      </trkpt>
      <trkpt lat="43.5511" lon="6.27931">
        <ele>398</ele>
        <time>2021-04-25T08:50:33Z</time>
      </trkpt>
      <trkpt lat="43.55107" lon="6.27919">
        <ele>398.4</ele>
        <time>2021-04-25T08:50:43Z</time>
      </trkpt>
      <trkpt lat="43.55108" lon="6.27911">
        <ele>398.8</ele>
        <time>2021-04-25T08:50:55Z</time>
      </trkpt>
      <trkpt lat="43.55108" lon="6.27911">
        <ele>398.7</ele>
        <time>2021-04-25T08:50:56Z</time>
      </trkpt>
      <trkpt lat="43.55109" lon="6.27905">
        <ele>398.9</ele>
        <time>2021-04-25T08:51:06Z</time>
      </trkpt>
      <trkpt lat="43.55109" lon="6.27905">
        <ele>398.9</ele>
        <time>2021-04-25T08:51:07Z</time>
      </trkpt>
      <trkpt lat="43.55109" lon="6.27905">
        <ele>398.8</ele>
        <time>2021-04-25T08:51:08Z</time>
      </trkpt>
      <trkpt lat="43.55109" lon="6.27904">
        <ele>398.9</ele>
        <time>2021-04-25T08:51:11Z</time>
      </trkpt>
      <trkpt lat="43.55109" lon="6.27904">
        <ele>398.9</ele>
        <time>2021-04-25T08:51:12Z</time>
      </trkpt>
      <trkpt lat="43.55109" lon="6.27904">
        <ele>398.9</ele>
        <time>2021-04-25T08:51:13Z</time>
      </trkpt>
      <trkpt lat="43.55108" lon="6.27904">
        <ele>399</ele>
        <time>2021-04-25T08:51:16Z</time>
      </trkpt>
      <trkpt lat="43.55108" lon="6.27904">
        <ele>398.9</ele>
        <time>2021-04-25T08:51:33Z</time>
      </trkpt>
      <trkpt lat="43.55108" lon="6.27904">
        <ele>398.9</ele>
        <time>2021-04-25T08:51:34Z</time>
      </trkpt>
      <trkpt lat="43.55108" lon="6.27904">
        <ele>398.8</ele>
        <time>2021-04-25T08:51:35Z</time>
      </trkpt>
      <trkpt lat="43.55103" lon="6.27905">
        <ele>398.9</ele>
        <time>2021-04-25T08:51:41Z</time>
      </trkpt>
      <trkpt lat="43.55103" lon="6.27905">
        <ele>398.9</ele>
        <time>2021-04-25T08:51:46Z</time>
      </trkpt>
      <trkpt lat="43.55102" lon="6.27906">
        <ele>399.5</ele>
        <time>2021-04-25T08:51:52Z</time>
      </trkpt>
      <trkpt lat="43.55102" lon="6.27906">
        <ele>399.3</ele>
        <time>2021-04-25T08:52:05Z</time>
      </trkpt>
      <trkpt lat="43.55102" lon="6.27906">
        <ele>398.9</ele>
        <time>2021-04-25T08:52:09Z</time>
      </trkpt>
      <trkpt lat="43.55103" lon="6.27906">
        <ele>398.8</ele>
        <time>2021-04-25T08:52:10Z</time>
      </trkpt>
      <trkpt lat="43.55105" lon="6.27905">
        <ele>398.7</ele>
        <time>2021-04-25T08:52:21Z</time>
      </trkpt>
      <trkpt lat="43.55105" lon="6.27905">
        <ele>398.6</ele>
        <time>2021-04-25T08:52:23Z</time>
      </trkpt>
      <trkpt lat="43.55105" lon="6.27905">
        <ele>398.7</ele>
        <time>2021-04-25T08:52:24Z</time>
      </trkpt>
      <trkpt lat="43.55105" lon="6.27904">
        <ele>398.9</ele>
        <time>2021-04-25T08:52:26Z</time>
      </trkpt>
      <trkpt lat="43.55105" lon="6.27904">
        <ele>398.9</ele>
        <time>2021-04-25T08:52:27Z</time>
      </trkpt>
      <trkpt lat="43.55104" lon="6.27904">
        <ele>398.8</ele>
        <time>2021-04-25T08:52:29Z</time>
      </trkpt>
      <trkpt lat="43.55104" lon="6.27905">
        <ele>398.8</ele>
        <time>2021-04-25T08:52:30Z</time>
      </trkpt>
      <trkpt lat="43.55105" lon="6.27905">
        <ele>398.6</ele>
        <time>2021-04-25T08:52:35Z</time>
      </trkpt>
      <trkpt lat="43.55105" lon="6.27905">
        <ele>398.6</ele>
        <time>2021-04-25T08:52:36Z</time>
      </trkpt>
      <trkpt lat="43.55104" lon="6.27905">
        <ele>398.8</ele>
        <time>2021-04-25T08:52:41Z</time>
      </trkpt>
      <trkpt lat="43.55104" lon="6.27905">
        <ele>398.7</ele>
        <time>2021-04-25T08:52:42Z</time>
      </trkpt>
      <trkpt lat="43.55104" lon="6.27905">
        <ele>399</ele>
        <time>2021-04-25T08:52:59Z</time>
      </trkpt>
      <trkpt lat="43.55104" lon="6.27905">
        <ele>398.8</ele>
        <time>2021-04-25T08:53:02Z</time>
      </trkpt>
      <trkpt lat="43.55103" lon="6.27905">
        <ele>398.9</ele>
        <time>2021-04-25T08:53:37Z</time>
      </trkpt>
      <trkpt lat="43.551" lon="6.27906">
        <ele>398.9</ele>
        <time>2021-04-25T08:53:48Z</time>
      </trkpt>
      <trkpt lat="43.551" lon="6.27906">
        <ele>398.7</ele>
        <time>2021-04-25T08:54:00Z</time>
      </trkpt>
      <trkpt lat="43.551" lon="6.27906">
        <ele>398.7</ele>
        <time>2021-04-25T08:54:01Z</time>
      </trkpt>
      <trkpt lat="43.551" lon="6.27906">
        <ele>398.8</ele>
        <time>2021-04-25T08:54:07Z</time>
      </trkpt>
      <trkpt lat="43.551" lon="6.27906">
        <ele>398.8</ele>
        <time>2021-04-25T08:54:09Z</time>
      </trkpt>
      <trkpt lat="43.55099" lon="6.27906">
        <ele>398.8</ele>
        <time>2021-04-25T08:54:15Z</time>
      </trkpt>
      <trkpt lat="43.55099" lon="6.27906">
        <ele>398.7</ele>
        <time>2021-04-25T08:54:16Z</time>
      </trkpt>
      <trkpt lat="43.55099" lon="6.27906">
        <ele>398.8</ele>
        <time>2021-04-25T08:54:34Z</time>
      </trkpt>
      <trkpt lat="43.55099" lon="6.27906">
        <ele>398.9</ele>
        <time>2021-04-25T08:54:35Z</time>
      </trkpt>
      <trkpt lat="43.55099" lon="6.27906">
        <ele>398.5</ele>
        <time>2021-04-25T08:55:04Z</time>
      </trkpt>
      <trkpt lat="43.55099" lon="6.27906">
        <ele>398.5</ele>
        <time>2021-04-25T08:55:05Z</time>
      </trkpt>
      <trkpt lat="43.55099" lon="6.27907">
        <ele>398.6</ele>
        <time>2021-04-25T08:56:48Z</time>
      </trkpt>
      <trkpt lat="43.551" lon="6.27907">
        <ele>398.8</ele>
        <time>2021-04-25T08:56:51Z</time>
      </trkpt>
      <trkpt lat="43.551" lon="6.27907">
        <ele>398.7</ele>
        <time>2021-04-25T08:56:55Z</time>
      </trkpt>
      <trkpt lat="43.551" lon="6.27907">
        <ele>398.7</ele>
        <time>2021-04-25T08:56:56Z</time>
      </trkpt>
      <trkpt lat="43.551" lon="6.27907">
        <ele>398.7</ele>
        <time>2021-04-25T08:56:57Z</time>
      </trkpt>
      <trkpt lat="43.55099" lon="6.27899">
        <ele>398.5</ele>
        <time>2021-04-25T08:57:13Z</time>
      </trkpt>
      <trkpt lat="43.55099" lon="6.27898">
        <ele>398.6</ele>
        <time>2021-04-25T08:57:15Z</time>
      </trkpt>
      <trkpt lat="43.55103" lon="6.27887">
        <ele>397.6</ele>
        <time>2021-04-25T08:57:26Z</time>
      </trkpt>
      <trkpt lat="43.55109" lon="6.27876">
        <ele>396.7</ele>
        <time>2021-04-25T08:57:38Z</time>
      </trkpt>
      <trkpt lat="43.5511" lon="6.27863">
        <ele>396.4</ele>
        <time>2021-04-25T08:57:51Z</time>
      </trkpt>
      <trkpt lat="43.55112" lon="6.2785">
        <ele>396.2</ele>
        <time>2021-04-25T08:58:01Z</time>
      </trkpt>
      <trkpt lat="43.55116" lon="6.27837">
        <ele>395.6</ele>
        <time>2021-04-25T08:58:10Z</time>
      </trkpt>
      <trkpt lat="43.55112" lon="6.27825">
        <ele>395</ele>
        <time>2021-04-25T08:58:26Z</time>
      </trkpt>
      <trkpt lat="43.55112" lon="6.27812">
        <ele>394.3</ele>
        <time>2021-04-25T08:58:36Z</time>
      </trkpt>
      <trkpt lat="43.55113" lon="6.27799">
        <ele>393.6</ele>
        <time>2021-04-25T08:58:45Z</time>
      </trkpt>
      <trkpt lat="43.55113" lon="6.27786">
        <ele>393</ele>
        <time>2021-04-25T08:58:53Z</time>
      </trkpt>
      <trkpt lat="43.55113" lon="6.27773">
        <ele>392.8</ele>
        <time>2021-04-25T08:59:02Z</time>
      </trkpt>
      <trkpt lat="43.55112" lon="6.27759">
        <ele>391.9</ele>
        <time>2021-04-25T08:59:12Z</time>
      </trkpt>
      <trkpt lat="43.55107" lon="6.27748">
        <ele>391.7</ele>
        <time>2021-04-25T08:59:20Z</time>
      </trkpt>
      <trkpt lat="43.55104" lon="6.27735">
        <ele>391.6</ele>
        <time>2021-04-25T08:59:29Z</time>
      </trkpt>
      <trkpt lat="43.55104" lon="6.27722">
        <ele>391.4</ele>
        <time>2021-04-25T08:59:38Z</time>
      </trkpt>
      <trkpt lat="43.55103" lon="6.27709">
        <ele>390.9</ele>
        <time>2021-04-25T08:59:48Z</time>
      </trkpt>
      <trkpt lat="43.55102" lon="6.27696">
        <ele>391.1</ele>
        <time>2021-04-25T08:59:56Z</time>
      </trkpt>
      <trkpt lat="43.551" lon="6.27682">
        <ele>390.8</ele>
        <time>2021-04-25T09:00:04Z</time>
      </trkpt>
      <trkpt lat="43.55095" lon="6.27669">
        <ele>390.8</ele>
        <time>2021-04-25T09:00:13Z</time>
      </trkpt>
      <trkpt lat="43.55091" lon="6.27658">
        <ele>391</ele>
        <time>2021-04-25T09:00:22Z</time>
      </trkpt>
      <trkpt lat="43.55089" lon="6.27645">
        <ele>391.2</ele>
        <time>2021-04-25T09:00:31Z</time>
      </trkpt>
      <trkpt lat="43.55087" lon="6.27632">
        <ele>391</ele>
        <time>2021-04-25T09:00:40Z</time>
      </trkpt>
      <trkpt lat="43.55086" lon="6.27618">
        <ele>390.3</ele>
        <time>2021-04-25T09:00:50Z</time>
      </trkpt>
      <trkpt lat="43.55086" lon="6.27606">
        <ele>390</ele>
        <time>2021-04-25T09:00:57Z</time>
      </trkpt>
      <trkpt lat="43.55086" lon="6.27593">
        <ele>389.1</ele>
        <time>2021-04-25T09:01:06Z</time>
      </trkpt>
      <trkpt lat="43.55085" lon="6.2758">
        <ele>388.4</ele>
        <time>2021-04-25T09:01:14Z</time>
      </trkpt>
      <trkpt lat="43.55083" lon="6.27567">
        <ele>388</ele>
        <time>2021-04-25T09:01:21Z</time>
      </trkpt>
      <trkpt lat="43.55083" lon="6.27554">
        <ele>387</ele>
        <time>2021-04-25T09:01:29Z</time>
      </trkpt>
      <trkpt lat="43.55083" lon="6.27541">
        <ele>385.8</ele>
        <time>2021-04-25T09:01:39Z</time>
      </trkpt>
      <trkpt lat="43.55084" lon="6.27527">
        <ele>385</ele>
        <time>2021-04-25T09:01:50Z</time>
      </trkpt>
      <trkpt lat="43.55085" lon="6.27525">
        <ele>385.1</ele>
        <time>2021-04-25T09:01:53Z</time>
      </trkpt>
      <trkpt lat="43.55085" lon="6.27525">
        <ele>385.2</ele>
        <time>2021-04-25T09:01:56Z</time>
      </trkpt>
      <trkpt lat="43.55085" lon="6.27525">
        <ele>385.3</ele>
        <time>2021-04-25T09:01:57Z</time>
      </trkpt>
      <trkpt lat="43.55085" lon="6.27524">
        <ele>385.4</ele>
        <time>2021-04-25T09:01:58Z</time>
      </trkpt>
      <trkpt lat="43.55085" lon="6.27518">
        <ele>385.1</ele>
        <time>2021-04-25T09:02:13Z</time>
      </trkpt>
      <trkpt lat="43.55084" lon="6.27518">
        <ele>385</ele>
        <time>2021-04-25T09:02:25Z</time>
      </trkpt>
      <trkpt lat="43.55084" lon="6.27518">
        <ele>385</ele>
        <time>2021-04-25T09:02:26Z</time>
      </trkpt>
      <trkpt lat="43.55084" lon="6.27518">
        <ele>385.2</ele>
        <time>2021-04-25T09:02:36Z</time>
      </trkpt>
      <trkpt lat="43.55084" lon="6.27518">
        <ele>385.1</ele>
        <time>2021-04-25T09:02:37Z</time>
      </trkpt>
      <trkpt lat="43.55084" lon="6.27518">
        <ele>385.2</ele>
        <time>2021-04-25T09:02:47Z</time>
      </trkpt>
      <trkpt lat="43.55084" lon="6.27518">
        <ele>385.1</ele>
        <time>2021-04-25T09:02:48Z</time>
      </trkpt>
      <trkpt lat="43.55084" lon="6.27518">
        <ele>385.4</ele>
        <time>2021-04-25T09:03:20Z</time>
      </trkpt>
      <trkpt lat="43.55084" lon="6.27518">
        <ele>385.3</ele>
        <time>2021-04-25T09:03:21Z</time>
      </trkpt>
      <trkpt lat="43.55084" lon="6.27518">
        <ele>385.3</ele>
        <time>2021-04-25T09:03:24Z</time>
      </trkpt>
      <trkpt lat="43.55084" lon="6.27518">
        <ele>385.4</ele>
        <time>2021-04-25T09:03:25Z</time>
      </trkpt>
      <trkpt lat="43.55084" lon="6.27519">
        <ele>385.3</ele>
        <time>2021-04-25T09:03:31Z</time>
      </trkpt>
      <trkpt lat="43.55081" lon="6.27507">
        <ele>385.8</ele>
        <time>2021-04-25T09:03:53Z</time>
      </trkpt>
      <trkpt lat="43.55081" lon="6.27507">
        <ele>386</ele>
        <time>2021-04-25T09:04:00Z</time>
      </trkpt>
      <trkpt lat="43.55079" lon="6.27495">
        <ele>387</ele>
        <time>2021-04-25T09:04:24Z</time>
      </trkpt>
      <trkpt lat="43.55077" lon="6.27496">
        <ele>387.2</ele>
        <time>2021-04-25T09:04:29Z</time>
      </trkpt>
      <trkpt lat="43.55077" lon="6.27496">
        <ele>387.1</ele>
        <time>2021-04-25T09:04:36Z</time>
      </trkpt>
      <trkpt lat="43.55071" lon="6.27486">
        <ele>387.7</ele>
        <time>2021-04-25T09:04:48Z</time>
      </trkpt>
      <trkpt lat="43.55064" lon="6.27479">
        <ele>387.4</ele>
        <time>2021-04-25T09:04:57Z</time>
      </trkpt>
      <trkpt lat="43.55064" lon="6.27479">
        <ele>387.4</ele>
        <time>2021-04-25T09:04:59Z</time>
      </trkpt>
      <trkpt lat="43.55063" lon="6.27479">
        <ele>387.4</ele>
        <time>2021-04-25T09:05:00Z</time>
      </trkpt>
      <trkpt lat="43.55055" lon="6.27473">
        <ele>386.2</ele>
        <time>2021-04-25T09:05:10Z</time>
      </trkpt>
      <trkpt lat="43.55047" lon="6.27468">
        <ele>385.9</ele>
        <time>2021-04-25T09:05:18Z</time>
      </trkpt>
      <trkpt lat="43.5504" lon="6.27467">
        <ele>385.4</ele>
        <time>2021-04-25T09:05:26Z</time>
      </trkpt>
      <trkpt lat="43.55039" lon="6.27466">
        <ele>385.6</ele>
        <time>2021-04-25T09:05:31Z</time>
      </trkpt>
      <trkpt lat="43.55038" lon="6.27467">
        <ele>385.4</ele>
        <time>2021-04-25T09:05:34Z</time>
      </trkpt>
      <trkpt lat="43.55038" lon="6.27466">
        <ele>385.3</ele>
        <time>2021-04-25T09:05:36Z</time>
      </trkpt>
      <trkpt lat="43.55037" lon="6.27466">
        <ele>385.4</ele>
        <time>2021-04-25T09:05:39Z</time>
      </trkpt>
      <trkpt lat="43.55038" lon="6.27466">
        <ele>385.4</ele>
        <time>2021-04-25T09:05:40Z</time>
      </trkpt>
      <trkpt lat="43.55038" lon="6.27466">
        <ele>385.4</ele>
        <time>2021-04-25T09:05:42Z</time>
      </trkpt>
      <trkpt lat="43.55038" lon="6.27466">
        <ele>385.5</ele>
        <time>2021-04-25T09:05:46Z</time>
      </trkpt>
      <trkpt lat="43.55035" lon="6.27466">
        <ele>385.2</ele>
        <time>2021-04-25T09:05:54Z</time>
      </trkpt>
      <trkpt lat="43.55035" lon="6.27466">
        <ele>385</ele>
        <time>2021-04-25T09:06:03Z</time>
      </trkpt>
      <trkpt lat="43.55036" lon="6.27466">
        <ele>385</ele>
        <time>2021-04-25T09:06:08Z</time>
      </trkpt>
      <trkpt lat="43.55037" lon="6.27466">
        <ele>385.3</ele>
        <time>2021-04-25T09:06:30Z</time>
      </trkpt>
      <trkpt lat="43.55028" lon="6.27462">
        <ele>384.7</ele>
        <time>2021-04-25T09:06:40Z</time>
      </trkpt>
      <trkpt lat="43.55018" lon="6.27457">
        <ele>383.5</ele>
        <time>2021-04-25T09:06:49Z</time>
      </trkpt>
      <trkpt lat="43.55009" lon="6.27454">
        <ele>383</ele>
        <time>2021-04-25T09:06:56Z</time>
      </trkpt>
      <trkpt lat="43.54999" lon="6.2745">
        <ele>382.4</ele>
        <time>2021-04-25T09:07:04Z</time>
      </trkpt>
      <trkpt lat="43.54991" lon="6.27442">
        <ele>381.2</ele>
        <time>2021-04-25T09:07:16Z</time>
      </trkpt>
      <trkpt lat="43.54983" lon="6.27434">
        <ele>380.1</ele>
        <time>2021-04-25T09:07:26Z</time>
      </trkpt>
      <trkpt lat="43.54975" lon="6.2743">
        <ele>379.3</ele>
        <time>2021-04-25T09:07:34Z</time>
      </trkpt>
      <trkpt lat="43.54966" lon="6.27425">
        <ele>377.9</ele>
        <time>2021-04-25T09:07:44Z</time>
      </trkpt>
      <trkpt lat="43.54958" lon="6.27418">
        <ele>376.6</ele>
        <time>2021-04-25T09:07:53Z</time>
      </trkpt>
      <trkpt lat="43.54951" lon="6.27409">
        <ele>375.6</ele>
        <time>2021-04-25T09:08:03Z</time>
      </trkpt>
      <trkpt lat="43.54943" lon="6.27402">
        <ele>374.7</ele>
        <time>2021-04-25T09:08:10Z</time>
      </trkpt>
      <trkpt lat="43.54935" lon="6.27396">
        <ele>373.7</ele>
        <time>2021-04-25T09:08:16Z</time>
      </trkpt>
      <trkpt lat="43.54928" lon="6.27389">
        <ele>372.3</ele>
        <time>2021-04-25T09:08:26Z</time>
      </trkpt>
      <trkpt lat="43.5492" lon="6.27381">
        <ele>371.5</ele>
        <time>2021-04-25T09:08:35Z</time>
      </trkpt>
      <trkpt lat="43.54912" lon="6.27373">
        <ele>370.3</ele>
        <time>2021-04-25T09:08:44Z</time>
      </trkpt>
      <trkpt lat="43.54905" lon="6.27362">
        <ele>369.2</ele>
        <time>2021-04-25T09:08:55Z</time>
      </trkpt>
      <trkpt lat="43.54903" lon="6.27359">
        <ele>369</ele>
        <time>2021-04-25T09:09:00Z</time>
      </trkpt>
      <trkpt lat="43.54903" lon="6.27359">
        <ele>369.1</ele>
        <time>2021-04-25T09:09:01Z</time>
      </trkpt>
      <trkpt lat="43.54898" lon="6.27348">
        <ele>368.1</ele>
        <time>2021-04-25T09:09:13Z</time>
      </trkpt>
      <trkpt lat="43.5489" lon="6.2734">
        <ele>367.8</ele>
        <time>2021-04-25T09:09:20Z</time>
      </trkpt>
      <trkpt lat="43.54881" lon="6.27334">
        <ele>367.5</ele>
        <time>2021-04-25T09:09:28Z</time>
      </trkpt>
      <trkpt lat="43.54873" lon="6.27326">
        <ele>366.8</ele>
        <time>2021-04-25T09:09:35Z</time>
      </trkpt>
      <trkpt lat="43.54865" lon="6.27319">
        <ele>366.2</ele>
        <time>2021-04-25T09:09:42Z</time>
      </trkpt>
      <trkpt lat="43.54858" lon="6.27312">
        <ele>365.3</ele>
        <time>2021-04-25T09:09:49Z</time>
      </trkpt>
      <trkpt lat="43.54849" lon="6.27306">
        <ele>364.4</ele>
        <time>2021-04-25T09:09:55Z</time>
      </trkpt>
      <trkpt lat="43.54841" lon="6.27298">
        <ele>363.5</ele>
        <time>2021-04-25T09:10:03Z</time>
      </trkpt>
      <trkpt lat="43.54832" lon="6.27293">
        <ele>362.8</ele>
        <time>2021-04-25T09:10:09Z</time>
      </trkpt>
      <trkpt lat="43.54823" lon="6.27289">
        <ele>362.2</ele>
        <time>2021-04-25T09:10:17Z</time>
      </trkpt>
      <trkpt lat="43.54813" lon="6.27287">
        <ele>361.2</ele>
        <time>2021-04-25T09:10:26Z</time>
      </trkpt>
      <trkpt lat="43.54812" lon="6.27288">
        <ele>361.8</ele>
        <time>2021-04-25T09:10:30Z</time>
      </trkpt>
      <trkpt lat="43.54812" lon="6.27288">
        <ele>361.8</ele>
        <time>2021-04-25T09:10:34Z</time>
      </trkpt>
      <trkpt lat="43.54811" lon="6.2729">
        <ele>361.6</ele>
        <time>2021-04-25T09:10:37Z</time>
      </trkpt>
      <trkpt lat="43.54811" lon="6.2729">
        <ele>361.4</ele>
        <time>2021-04-25T09:10:38Z</time>
      </trkpt>
      <trkpt lat="43.54804" lon="6.27281">
        <ele>360.4</ele>
        <time>2021-04-25T09:11:00Z</time>
      </trkpt>
      <trkpt lat="43.54797" lon="6.27271">
        <ele>359.9</ele>
        <time>2021-04-25T09:11:11Z</time>
      </trkpt>
      <trkpt lat="43.54792" lon="6.27263">
        <ele>359.5</ele>
        <time>2021-04-25T09:11:21Z</time>
      </trkpt>
      <trkpt lat="43.54792" lon="6.27263">
        <ele>359.6</ele>
        <time>2021-04-25T09:11:23Z</time>
      </trkpt>
      <trkpt lat="43.54793" lon="6.27264">
        <ele>359.6</ele>
        <time>2021-04-25T09:11:26Z</time>
      </trkpt>
      <trkpt lat="43.54792" lon="6.27264">
        <ele>359.6</ele>
        <time>2021-04-25T09:11:28Z</time>
      </trkpt>
      <trkpt lat="43.54792" lon="6.27264">
        <ele>359.6</ele>
        <time>2021-04-25T09:11:29Z</time>
      </trkpt>
      <trkpt lat="43.54792" lon="6.27263">
        <ele>359.7</ele>
        <time>2021-04-25T09:11:30Z</time>
      </trkpt>
      <trkpt lat="43.54788" lon="6.27252">
        <ele>359.6</ele>
        <time>2021-04-25T09:11:40Z</time>
      </trkpt>
      <trkpt lat="43.54786" lon="6.27239">
        <ele>359.8</ele>
        <time>2021-04-25T09:11:52Z</time>
      </trkpt>
      <trkpt lat="43.54787" lon="6.27226">
        <ele>359.6</ele>
        <time>2021-04-25T09:12:02Z</time>
      </trkpt>
      <trkpt lat="43.54788" lon="6.27212">
        <ele>359.1</ele>
        <time>2021-04-25T09:12:13Z</time>
      </trkpt>
      <trkpt lat="43.54785" lon="6.27199">
        <ele>359.1</ele>
        <time>2021-04-25T09:12:22Z</time>
      </trkpt>
      <trkpt lat="43.54782" lon="6.27186">
        <ele>359.3</ele>
        <time>2021-04-25T09:12:31Z</time>
      </trkpt>
      <trkpt lat="43.54779" lon="6.27175">
        <ele>359.1</ele>
        <time>2021-04-25T09:12:39Z</time>
      </trkpt>
      <trkpt lat="43.54773" lon="6.27164">
        <ele>359.1</ele>
        <time>2021-04-25T09:12:47Z</time>
      </trkpt>
      <trkpt lat="43.54769" lon="6.27152">
        <ele>359.2</ele>
        <time>2021-04-25T09:12:57Z</time>
      </trkpt>
      <trkpt lat="43.54762" lon="6.27144">
        <ele>359.3</ele>
        <time>2021-04-25T09:13:06Z</time>
      </trkpt>
      <trkpt lat="43.54754" lon="6.27137">
        <ele>359.1</ele>
        <time>2021-04-25T09:13:17Z</time>
      </trkpt>
      <trkpt lat="43.54747" lon="6.27127">
        <ele>358.7</ele>
        <time>2021-04-25T09:13:26Z</time>
      </trkpt>
      <trkpt lat="43.5474" lon="6.27119">
        <ele>358.5</ele>
        <time>2021-04-25T09:13:34Z</time>
      </trkpt>
      <trkpt lat="43.54733" lon="6.2711">
        <ele>358.5</ele>
        <time>2021-04-25T09:13:42Z</time>
      </trkpt>
      <trkpt lat="43.54725" lon="6.27103">
        <ele>358.4</ele>
        <time>2021-04-25T09:13:50Z</time>
      </trkpt>
      <trkpt lat="43.54717" lon="6.27098">
        <ele>358.4</ele>
        <time>2021-04-25T09:13:59Z</time>
      </trkpt>
      <trkpt lat="43.5471" lon="6.27088">
        <ele>358.3</ele>
        <time>2021-04-25T09:14:09Z</time>
      </trkpt>
      <trkpt lat="43.54706" lon="6.27075">
        <ele>358.1</ele>
        <time>2021-04-25T09:14:18Z</time>
      </trkpt>
      <trkpt lat="43.547" lon="6.27065">
        <ele>357.7</ele>
        <time>2021-04-25T09:14:26Z</time>
      </trkpt>
      <trkpt lat="43.54694" lon="6.27054">
        <ele>357.9</ele>
        <time>2021-04-25T09:14:34Z</time>
      </trkpt>
      <trkpt lat="43.54688" lon="6.27045">
        <ele>357.4</ele>
        <time>2021-04-25T09:14:42Z</time>
      </trkpt>
      <trkpt lat="43.54681" lon="6.27035">
        <ele>357.6</ele>
        <time>2021-04-25T09:14:52Z</time>
      </trkpt>
      <trkpt lat="43.54673" lon="6.27027">
        <ele>357.9</ele>
        <time>2021-04-25T09:15:03Z</time>
      </trkpt>
      <trkpt lat="43.54663" lon="6.27022">
        <ele>358.5</ele>
        <time>2021-04-25T09:15:10Z</time>
      </trkpt>
      <trkpt lat="43.54657" lon="6.27012">
        <ele>359.2</ele>
        <time>2021-04-25T09:15:21Z</time>
      </trkpt>
      <trkpt lat="43.54655" lon="6.27005">
        <ele>359.2</ele>
        <time>2021-04-25T09:15:30Z</time>
      </trkpt>
      <trkpt lat="43.54655" lon="6.27005">
        <ele>359.1</ele>
        <time>2021-04-25T09:15:33Z</time>
      </trkpt>
      <trkpt lat="43.54655" lon="6.27005">
        <ele>359.2</ele>
        <time>2021-04-25T09:15:34Z</time>
      </trkpt>
      <trkpt lat="43.54656" lon="6.27004">
        <ele>359.3</ele>
        <time>2021-04-25T09:15:37Z</time>
      </trkpt>
      <trkpt lat="43.54654" lon="6.26991">
        <ele>359.6</ele>
        <time>2021-04-25T09:15:54Z</time>
      </trkpt>
      <trkpt lat="43.54647" lon="6.26982">
        <ele>360</ele>
        <time>2021-04-25T09:16:03Z</time>
      </trkpt>
      <trkpt lat="43.54642" lon="6.26972">
        <ele>360.2</ele>
        <time>2021-04-25T09:16:11Z</time>
      </trkpt>
      <trkpt lat="43.54632" lon="6.26968">
        <ele>360.6</ele>
        <time>2021-04-25T09:16:21Z</time>
      </trkpt>
      <trkpt lat="43.54625" lon="6.2696">
        <ele>360.6</ele>
        <time>2021-04-25T09:16:34Z</time>
      </trkpt>
      <trkpt lat="43.54622" lon="6.26948">
        <ele>361.2</ele>
        <time>2021-04-25T09:16:44Z</time>
      </trkpt>
      <trkpt lat="43.5462" lon="6.26935">
        <ele>361.9</ele>
        <time>2021-04-25T09:16:55Z</time>
      </trkpt>
      <trkpt lat="43.54618" lon="6.26922">
        <ele>363.5</ele>
        <time>2021-04-25T09:17:07Z</time>
      </trkpt>
      <trkpt lat="43.54616" lon="6.26909">
        <ele>364.6</ele>
        <time>2021-04-25T09:17:17Z</time>
      </trkpt>
      <trkpt lat="43.54611" lon="6.26898">
        <ele>365.6</ele>
        <time>2021-04-25T09:17:30Z</time>
      </trkpt>
      <trkpt lat="43.54607" lon="6.26886">
        <ele>367</ele>
        <time>2021-04-25T09:17:43Z</time>
      </trkpt>
      <trkpt lat="43.54603" lon="6.26875">
        <ele>367.8</ele>
        <time>2021-04-25T09:17:57Z</time>
      </trkpt>
      <trkpt lat="43.54598" lon="6.26864">
        <ele>369.4</ele>
        <time>2021-04-25T09:18:08Z</time>
      </trkpt>
      <trkpt lat="43.54593" lon="6.26854">
        <ele>370.3</ele>
        <time>2021-04-25T09:18:20Z</time>
      </trkpt>
      <trkpt lat="43.54592" lon="6.26841">
        <ele>371.6</ele>
        <time>2021-04-25T09:18:33Z</time>
      </trkpt>
      <trkpt lat="43.54588" lon="6.26829">
        <ele>372.3</ele>
        <time>2021-04-25T09:18:44Z</time>
      </trkpt>
      <trkpt lat="43.54583" lon="6.26818">
        <ele>373.6</ele>
        <time>2021-04-25T09:18:54Z</time>
      </trkpt>
      <trkpt lat="43.54578" lon="6.26808">
        <ele>374.5</ele>
        <time>2021-04-25T09:19:05Z</time>
      </trkpt>
      <trkpt lat="43.54569" lon="6.26801">
        <ele>375.4</ele>
        <time>2021-04-25T09:19:15Z</time>
      </trkpt>
      <trkpt lat="43.54567" lon="6.26798">
        <ele>375.6</ele>
        <time>2021-04-25T09:19:22Z</time>
      </trkpt>
      <trkpt lat="43.54567" lon="6.26798">
        <ele>375.8</ele>
        <time>2021-04-25T09:19:33Z</time>
      </trkpt>
      <trkpt lat="43.54567" lon="6.26797">
        <ele>375.9</ele>
        <time>2021-04-25T09:19:35Z</time>
      </trkpt>
      <trkpt lat="43.54567" lon="6.26797">
        <ele>375.8</ele>
        <time>2021-04-25T09:19:37Z</time>
      </trkpt>
      <trkpt lat="43.54567" lon="6.26797">
        <ele>375.8</ele>
        <time>2021-04-25T09:19:38Z</time>
      </trkpt>
      <trkpt lat="43.54567" lon="6.26797">
        <ele>375.8</ele>
        <time>2021-04-25T09:19:39Z</time>
      </trkpt>
      <trkpt lat="43.54567" lon="6.26797">
        <ele>375.9</ele>
        <time>2021-04-25T09:19:40Z</time>
      </trkpt>
      <trkpt lat="43.54567" lon="6.26797">
        <ele>375.9</ele>
        <time>2021-04-25T09:19:42Z</time>
      </trkpt>
      <trkpt lat="43.54567" lon="6.26797">
        <ele>375.9</ele>
        <time>2021-04-25T09:19:43Z</time>
      </trkpt>
      <trkpt lat="43.54566" lon="6.26797">
        <ele>375.5</ele>
        <time>2021-04-25T09:19:52Z</time>
      </trkpt>
      <trkpt lat="43.54557" lon="6.26793">
        <ele>376.2</ele>
        <time>2021-04-25T09:20:02Z</time>
      </trkpt>
      <trkpt lat="43.54548" lon="6.2679">
        <ele>377.1</ele>
        <time>2021-04-25T09:20:11Z</time>
      </trkpt>
      <trkpt lat="43.54539" lon="6.26788">
        <ele>377.7</ele>
        <time>2021-04-25T09:20:20Z</time>
      </trkpt>
      <trkpt lat="43.5453" lon="6.26783">
        <ele>377.6</ele>
        <time>2021-04-25T09:20:27Z</time>
      </trkpt>
      <trkpt lat="43.54522" lon="6.2678">
        <ele>378.4</ele>
        <time>2021-04-25T09:20:37Z</time>
      </trkpt>
      <trkpt lat="43.54514" lon="6.26773">
        <ele>379.1</ele>
        <time>2021-04-25T09:20:47Z</time>
      </trkpt>
      <trkpt lat="43.54505" lon="6.26767">
        <ele>378.9</ele>
        <time>2021-04-25T09:20:54Z</time>
      </trkpt>
      <trkpt lat="43.54497" lon="6.26763">
        <ele>378.8</ele>
        <time>2021-04-25T09:21:02Z</time>
      </trkpt>
      <trkpt lat="43.54491" lon="6.26752">
        <ele>377.9</ele>
        <time>2021-04-25T09:21:12Z</time>
      </trkpt>
      <trkpt lat="43.54483" lon="6.26746">
        <ele>377.3</ele>
        <time>2021-04-25T09:21:21Z</time>
      </trkpt>
      <trkpt lat="43.54473" lon="6.26741">
        <ele>376.7</ele>
        <time>2021-04-25T09:21:29Z</time>
      </trkpt>
      <trkpt lat="43.54464" lon="6.26743">
        <ele>376.7</ele>
        <time>2021-04-25T09:21:35Z</time>
      </trkpt>
      <trkpt lat="43.54455" lon="6.26749">
        <ele>376.5</ele>
        <time>2021-04-25T09:21:42Z</time>
      </trkpt>
      <trkpt lat="43.54447" lon="6.26756">
        <ele>376.5</ele>
        <time>2021-04-25T09:21:49Z</time>
      </trkpt>
      <trkpt lat="43.54441" lon="6.26767">
        <ele>376.4</ele>
        <time>2021-04-25T09:21:56Z</time>
      </trkpt>
      <trkpt lat="43.54434" lon="6.26777">
        <ele>375.9</ele>
        <time>2021-04-25T09:22:05Z</time>
      </trkpt>
      <trkpt lat="43.54425" lon="6.26783">
        <ele>374.8</ele>
        <time>2021-04-25T09:22:15Z</time>
      </trkpt>
      <trkpt lat="43.54416" lon="6.26788">
        <ele>373.9</ele>
        <time>2021-04-25T09:22:26Z</time>
      </trkpt>
      <trkpt lat="43.54408" lon="6.26795">
        <ele>373</ele>
        <time>2021-04-25T09:22:35Z</time>
      </trkpt>
      <trkpt lat="43.54402" lon="6.26805">
        <ele>372.7</ele>
        <time>2021-04-25T09:22:43Z</time>
      </trkpt>
      <trkpt lat="43.54394" lon="6.26812">
        <ele>371.7</ele>
        <time>2021-04-25T09:22:52Z</time>
      </trkpt>
      <trkpt lat="43.54386" lon="6.26819">
        <ele>371.2</ele>
        <time>2021-04-25T09:23:00Z</time>
      </trkpt>
      <trkpt lat="43.54378" lon="6.26824">
        <ele>370.5</ele>
        <time>2021-04-25T09:23:10Z</time>
      </trkpt>
      <trkpt lat="43.5437" lon="6.26829">
        <ele>369.3</ele>
        <time>2021-04-25T09:23:19Z</time>
      </trkpt>
      <trkpt lat="43.54362" lon="6.26836">
        <ele>367.7</ele>
        <time>2021-04-25T09:23:30Z</time>
      </trkpt>
      <trkpt lat="43.5436" lon="6.26848">
        <ele>366.5</ele>
        <time>2021-04-25T09:23:39Z</time>
      </trkpt>
      <trkpt lat="43.54356" lon="6.2686">
        <ele>364.9</ele>
        <time>2021-04-25T09:23:51Z</time>
      </trkpt>
      <trkpt lat="43.54354" lon="6.26873">
        <ele>363.9</ele>
        <time>2021-04-25T09:23:59Z</time>
      </trkpt>
      <trkpt lat="43.54349" lon="6.26883">
        <ele>363.1</ele>
        <time>2021-04-25T09:24:13Z</time>
      </trkpt>
      <trkpt lat="43.54339" lon="6.26883">
        <ele>362.8</ele>
        <time>2021-04-25T09:24:22Z</time>
      </trkpt>
      <trkpt lat="43.5433" lon="6.26878">
        <ele>362.3</ele>
        <time>2021-04-25T09:24:30Z</time>
      </trkpt>
      <trkpt lat="43.54321" lon="6.26876">
        <ele>362</ele>
        <time>2021-04-25T09:24:37Z</time>
      </trkpt>
      <trkpt lat="43.54311" lon="6.26874">
        <ele>362</ele>
        <time>2021-04-25T09:24:47Z</time>
      </trkpt>
      <trkpt lat="43.54302" lon="6.26873">
        <ele>361.9</ele>
        <time>2021-04-25T09:24:55Z</time>
      </trkpt>
      <trkpt lat="43.54292" lon="6.26876">
        <ele>362.6</ele>
        <time>2021-04-25T09:25:03Z</time>
      </trkpt>
      <trkpt lat="43.54283" lon="6.26881">
        <ele>363</ele>
        <time>2021-04-25T09:25:11Z</time>
      </trkpt>
      <trkpt lat="43.54274" lon="6.26885">
        <ele>363.2</ele>
        <time>2021-04-25T09:25:21Z</time>
      </trkpt>
      <trkpt lat="43.54264" lon="6.26885">
        <ele>364.3</ele>
        <time>2021-04-25T09:25:33Z</time>
      </trkpt>
      <trkpt lat="43.54265" lon="6.26887">
        <ele>365.7</ele>
        <time>2021-04-25T09:25:52Z</time>
      </trkpt>
      <trkpt lat="43.54265" lon="6.26887">
        <ele>365.6</ele>
        <time>2021-04-25T09:25:55Z</time>
      </trkpt>
      <trkpt lat="43.54265" lon="6.26888">
        <ele>365.9</ele>
        <time>2021-04-25T09:26:01Z</time>
      </trkpt>
      <trkpt lat="43.54266" lon="6.26889">
        <ele>365.9</ele>
        <time>2021-04-25T09:26:02Z</time>
      </trkpt>
      <trkpt lat="43.54266" lon="6.26891">
        <ele>365.7</ele>
        <time>2021-04-25T09:26:10Z</time>
      </trkpt>
      <trkpt lat="43.54267" lon="6.26891">
        <ele>365.8</ele>
        <time>2021-04-25T09:26:13Z</time>
      </trkpt>
      <trkpt lat="43.54269" lon="6.26893">
        <ele>366.4</ele>
        <time>2021-04-25T09:26:25Z</time>
      </trkpt>
      <trkpt lat="43.54268" lon="6.26893">
        <ele>366.1</ele>
        <time>2021-04-25T09:26:27Z</time>
      </trkpt>
      <trkpt lat="43.54267" lon="6.26891">
        <ele>366.4</ele>
        <time>2021-04-25T09:26:44Z</time>
      </trkpt>
      <trkpt lat="43.54267" lon="6.26891">
        <ele>366.4</ele>
        <time>2021-04-25T09:26:45Z</time>
      </trkpt>
      <trkpt lat="43.54267" lon="6.26891">
        <ele>366.4</ele>
        <time>2021-04-25T09:26:48Z</time>
      </trkpt>
      <trkpt lat="43.54267" lon="6.2689">
        <ele>366.4</ele>
        <time>2021-04-25T09:26:49Z</time>
      </trkpt>
      <trkpt lat="43.54268" lon="6.26891">
        <ele>366.6</ele>
        <time>2021-04-25T09:26:56Z</time>
      </trkpt>
      <trkpt lat="43.54268" lon="6.26891">
        <ele>366.6</ele>
        <time>2021-04-25T09:26:57Z</time>
      </trkpt>
      <trkpt lat="43.5427" lon="6.26889">
        <ele>366.5</ele>
        <time>2021-04-25T09:27:10Z</time>
      </trkpt>
      <trkpt lat="43.5427" lon="6.26889">
        <ele>366.5</ele>
        <time>2021-04-25T09:27:11Z</time>
      </trkpt>
      <trkpt lat="43.54271" lon="6.26889">
        <ele>366.6</ele>
        <time>2021-04-25T09:27:15Z</time>
      </trkpt>
      <trkpt lat="43.54271" lon="6.26889">
        <ele>366.7</ele>
        <time>2021-04-25T09:27:16Z</time>
      </trkpt>
      <trkpt lat="43.54271" lon="6.26889">
        <ele>366.6</ele>
        <time>2021-04-25T09:27:17Z</time>
      </trkpt>
      <trkpt lat="43.54271" lon="6.26889">
        <ele>366.6</ele>
        <time>2021-04-25T09:27:26Z</time>
      </trkpt>
      <trkpt lat="43.54271" lon="6.26889">
        <ele>366.6</ele>
        <time>2021-04-25T09:27:27Z</time>
      </trkpt>
      <trkpt lat="43.54271" lon="6.2689">
        <ele>366.7</ele>
        <time>2021-04-25T09:27:35Z</time>
      </trkpt>
      <trkpt lat="43.5427" lon="6.2689">
        <ele>366.5</ele>
        <time>2021-04-25T09:27:39Z</time>
      </trkpt>
      <trkpt lat="43.5427" lon="6.2689">
        <ele>366.6</ele>
        <time>2021-04-25T09:27:40Z</time>
      </trkpt>
      <trkpt lat="43.5427" lon="6.26888">
        <ele>366.4</ele>
        <time>2021-04-25T09:27:44Z</time>
      </trkpt>
      <trkpt lat="43.5427" lon="6.26888">
        <ele>366.3</ele>
        <time>2021-04-25T09:28:07Z</time>
      </trkpt>
      <trkpt lat="43.54261" lon="6.26894">
        <ele>367.1</ele>
        <time>2021-04-25T09:28:27Z</time>
      </trkpt>
      <trkpt lat="43.54253" lon="6.26899">
        <ele>368.8</ele>
        <time>2021-04-25T09:28:38Z</time>
      </trkpt>
      <trkpt lat="43.54246" lon="6.26908">
        <ele>370.9</ele>
        <time>2021-04-25T09:28:53Z</time>
      </trkpt>
      <trkpt lat="43.54237" lon="6.26915">
        <ele>372.3</ele>
        <time>2021-04-25T09:29:03Z</time>
      </trkpt>
      <trkpt lat="43.54233" lon="6.26917">
        <ele>374.8</ele>
        <time>2021-04-25T09:29:24Z</time>
      </trkpt>
      <trkpt lat="43.54233" lon="6.26918">
        <ele>374.8</ele>
        <time>2021-04-25T09:29:30Z</time>
      </trkpt>
      <trkpt lat="43.5423" lon="6.26922">
        <ele>375.6</ele>
        <time>2021-04-25T09:29:41Z</time>
      </trkpt>
      <trkpt lat="43.54229" lon="6.26922">
        <ele>375.6</ele>
        <time>2021-04-25T09:29:42Z</time>
      </trkpt>
      <trkpt lat="43.54225" lon="6.26923">
        <ele>376.7</ele>
        <time>2021-04-25T09:29:54Z</time>
      </trkpt>
      <trkpt lat="43.54226" lon="6.26923">
        <ele>376.9</ele>
        <time>2021-04-25T09:29:55Z</time>
      </trkpt>
      <trkpt lat="43.54225" lon="6.2693">
        <ele>379.8</ele>
        <time>2021-04-25T09:30:13Z</time>
      </trkpt>
      <trkpt lat="43.54224" lon="6.26931">
        <ele>380.1</ele>
        <time>2021-04-25T09:30:16Z</time>
      </trkpt>
      <trkpt lat="43.54218" lon="6.26941">
        <ele>383.2</ele>
        <time>2021-04-25T09:30:39Z</time>
      </trkpt>
      <trkpt lat="43.54212" lon="6.2695">
        <ele>385.6</ele>
        <time>2021-04-25T09:30:58Z</time>
      </trkpt>
      <trkpt lat="43.54212" lon="6.2695">
        <ele>385.7</ele>
        <time>2021-04-25T09:30:59Z</time>
      </trkpt>
      <trkpt lat="43.54205" lon="6.26957">
        <ele>387.6</ele>
        <time>2021-04-25T09:31:13Z</time>
      </trkpt>
      <trkpt lat="43.54197" lon="6.26964">
        <ele>388.5</ele>
        <time>2021-04-25T09:31:21Z</time>
      </trkpt>
      <trkpt lat="43.54192" lon="6.26975">
        <ele>390</ele>
        <time>2021-04-25T09:31:39Z</time>
      </trkpt>
      <trkpt lat="43.54186" lon="6.26985">
        <ele>390.4</ele>
        <time>2021-04-25T09:31:50Z</time>
      </trkpt>
      <trkpt lat="43.54187" lon="6.26988">
        <ele>390.4</ele>
        <time>2021-04-25T09:31:52Z</time>
      </trkpt>
      <trkpt lat="43.54186" lon="6.26989">
        <ele>390.6</ele>
        <time>2021-04-25T09:32:02Z</time>
      </trkpt>
      <trkpt lat="43.54186" lon="6.26991">
        <ele>391</ele>
        <time>2021-04-25T09:32:07Z</time>
      </trkpt>
      <trkpt lat="43.54186" lon="6.26991">
        <ele>390.9</ele>
        <time>2021-04-25T09:32:11Z</time>
      </trkpt>
      <trkpt lat="43.54186" lon="6.26991">
        <ele>390.8</ele>
        <time>2021-04-25T09:32:13Z</time>
      </trkpt>
      <trkpt lat="43.54187" lon="6.26991">
        <ele>390.8</ele>
        <time>2021-04-25T09:32:33Z</time>
      </trkpt>
      <trkpt lat="43.54187" lon="6.26991">
        <ele>390.8</ele>
        <time>2021-04-25T09:32:34Z</time>
      </trkpt>
      <trkpt lat="43.54187" lon="6.26992">
        <ele>390.6</ele>
        <time>2021-04-25T09:32:57Z</time>
      </trkpt>
      <trkpt lat="43.54189" lon="6.27005">
        <ele>390.1</ele>
        <time>2021-04-25T09:33:13Z</time>
      </trkpt>
      <trkpt lat="43.54189" lon="6.27005">
        <ele>390.1</ele>
        <time>2021-04-25T09:33:15Z</time>
      </trkpt>
      <trkpt lat="43.54189" lon="6.27006">
        <ele>390.3</ele>
        <time>2021-04-25T09:33:24Z</time>
      </trkpt>
      <trkpt lat="43.5419" lon="6.27006">
        <ele>390.1</ele>
        <time>2021-04-25T09:33:26Z</time>
      </trkpt>
      <trkpt lat="43.5419" lon="6.27006">
        <ele>390.4</ele>
        <time>2021-04-25T09:33:30Z</time>
      </trkpt>
      <trkpt lat="43.5419" lon="6.27007">
        <ele>390.1</ele>
        <time>2021-04-25T09:33:35Z</time>
      </trkpt>
      <trkpt lat="43.5419" lon="6.27007">
        <ele>390.1</ele>
        <time>2021-04-25T09:33:36Z</time>
      </trkpt>
      <trkpt lat="43.54191" lon="6.27005">
        <ele>390</ele>
        <time>2021-04-25T09:33:42Z</time>
      </trkpt>
      <trkpt lat="43.5419" lon="6.27005">
        <ele>390.1</ele>
        <time>2021-04-25T09:33:43Z</time>
      </trkpt>
      <trkpt lat="43.5419" lon="6.27005">
        <ele>390.1</ele>
        <time>2021-04-25T09:33:44Z</time>
      </trkpt>
      <trkpt lat="43.5419" lon="6.27005">
        <ele>390.1</ele>
        <time>2021-04-25T09:33:45Z</time>
      </trkpt>
      <trkpt lat="43.54191" lon="6.27008">
        <ele>390.1</ele>
        <time>2021-04-25T09:33:57Z</time>
      </trkpt>
      <trkpt lat="43.54191" lon="6.27008">
        <ele>390.2</ele>
        <time>2021-04-25T09:33:58Z</time>
      </trkpt>
      <trkpt lat="43.54191" lon="6.27008">
        <ele>390.3</ele>
        <time>2021-04-25T09:33:59Z</time>
      </trkpt>
      <trkpt lat="43.54192" lon="6.27008">
        <ele>390.4</ele>
        <time>2021-04-25T09:34:01Z</time>
      </trkpt>
      <trkpt lat="43.54192" lon="6.27008">
        <ele>390.3</ele>
        <time>2021-04-25T09:34:02Z</time>
      </trkpt>
      <trkpt lat="43.54192" lon="6.27008">
        <ele>390</ele>
        <time>2021-04-25T09:34:06Z</time>
      </trkpt>
      <trkpt lat="43.54191" lon="6.27009">
        <ele>390.2</ele>
        <time>2021-04-25T09:34:10Z</time>
      </trkpt>
      <trkpt lat="43.54191" lon="6.27009">
        <ele>389</ele>
        <time>2021-04-25T09:34:12Z</time>
      </trkpt>
      <trkpt lat="43.54191" lon="6.27009">
        <ele>389.7</ele>
        <time>2021-04-25T09:34:13Z</time>
      </trkpt>
      <trkpt lat="43.54191" lon="6.27008">
        <ele>390.1</ele>
        <time>2021-04-25T09:34:14Z</time>
      </trkpt>
      <trkpt lat="43.54191" lon="6.27007">
        <ele>390.9</ele>
        <time>2021-04-25T09:34:16Z</time>
      </trkpt>
      <trkpt lat="43.54192" lon="6.27006">
        <ele>390.6</ele>
        <time>2021-04-25T09:34:25Z</time>
      </trkpt>
      <trkpt lat="43.54192" lon="6.27006">
        <ele>390.6</ele>
        <time>2021-04-25T09:34:26Z</time>
      </trkpt>
      <trkpt lat="43.54192" lon="6.27006">
        <ele>390.5</ele>
        <time>2021-04-25T09:34:27Z</time>
      </trkpt>
      <trkpt lat="43.54194" lon="6.27008">
        <ele>390.3</ele>
        <time>2021-04-25T09:34:45Z</time>
      </trkpt>
      <trkpt lat="43.54194" lon="6.27008">
        <ele>390.1</ele>
        <time>2021-04-25T09:34:51Z</time>
      </trkpt>
      <trkpt lat="43.54194" lon="6.27008">
        <ele>390.1</ele>
        <time>2021-04-25T09:34:52Z</time>
      </trkpt>
      <trkpt lat="43.54193" lon="6.27008">
        <ele>390.1</ele>
        <time>2021-04-25T09:35:01Z</time>
      </trkpt>
      <trkpt lat="43.54185" lon="6.27014">
        <ele>390.4</ele>
        <time>2021-04-25T09:35:15Z</time>
      </trkpt>
      <trkpt lat="43.54178" lon="6.27023">
        <ele>390.7</ele>
        <time>2021-04-25T09:35:26Z</time>
      </trkpt>
      <trkpt lat="43.54175" lon="6.27035">
        <ele>390.6</ele>
        <time>2021-04-25T09:35:36Z</time>
      </trkpt>
      <trkpt lat="43.54174" lon="6.27036">
        <ele>390.5</ele>
        <time>2021-04-25T09:35:38Z</time>
      </trkpt>
      <trkpt lat="43.54174" lon="6.27037">
        <ele>390.6</ele>
        <time>2021-04-25T09:35:44Z</time>
      </trkpt>
      <trkpt lat="43.54165" lon="6.27043">
        <ele>390.2</ele>
        <time>2021-04-25T09:35:56Z</time>
      </trkpt>
      <trkpt lat="43.5416" lon="6.27054">
        <ele>389.4</ele>
        <time>2021-04-25T09:36:07Z</time>
      </trkpt>
      <trkpt lat="43.54154" lon="6.27065">
        <ele>388.5</ele>
        <time>2021-04-25T09:36:15Z</time>
      </trkpt>
      <trkpt lat="43.5415" lon="6.27077">
        <ele>387.5</ele>
        <time>2021-04-25T09:36:23Z</time>
      </trkpt>
      <trkpt lat="43.5415" lon="6.27089">
        <ele>387</ele>
        <time>2021-04-25T09:36:30Z</time>
      </trkpt>
      <trkpt lat="43.54147" lon="6.27102">
        <ele>386.3</ele>
        <time>2021-04-25T09:36:39Z</time>
      </trkpt>
      <trkpt lat="43.54147" lon="6.27115">
        <ele>385.3</ele>
        <time>2021-04-25T09:36:51Z</time>
      </trkpt>
      <trkpt lat="43.54144" lon="6.27128">
        <ele>384.8</ele>
        <time>2021-04-25T09:37:00Z</time>
      </trkpt>
      <trkpt lat="43.54139" lon="6.2714">
        <ele>384.6</ele>
        <time>2021-04-25T09:37:09Z</time>
      </trkpt>
      <trkpt lat="43.54136" lon="6.27152">
        <ele>384.7</ele>
        <time>2021-04-25T09:37:17Z</time>
      </trkpt>
      <trkpt lat="43.54131" lon="6.27164">
        <ele>385.1</ele>
        <time>2021-04-25T09:37:27Z</time>
      </trkpt>
      <trkpt lat="43.54128" lon="6.27178">
        <ele>384.3</ele>
        <time>2021-04-25T09:37:34Z</time>
      </trkpt>
      <trkpt lat="43.54125" lon="6.2719">
        <ele>384.4</ele>
        <time>2021-04-25T09:37:42Z</time>
      </trkpt>
      <trkpt lat="43.54119" lon="6.27199">
        <ele>384.5</ele>
        <time>2021-04-25T09:37:51Z</time>
      </trkpt>
      <trkpt lat="43.54112" lon="6.27208">
        <ele>384.7</ele>
        <time>2021-04-25T09:38:00Z</time>
      </trkpt>
      <trkpt lat="43.54104" lon="6.27216">
        <ele>384.9</ele>
        <time>2021-04-25T09:38:09Z</time>
      </trkpt>
      <trkpt lat="43.54096" lon="6.27226">
        <ele>385.2</ele>
        <time>2021-04-25T09:38:20Z</time>
      </trkpt>
      <trkpt lat="43.54091" lon="6.27237">
        <ele>386</ele>
        <time>2021-04-25T09:38:30Z</time>
      </trkpt>
      <trkpt lat="43.54084" lon="6.27246">
        <ele>386.2</ele>
        <time>2021-04-25T09:38:38Z</time>
      </trkpt>
      <trkpt lat="43.54079" lon="6.27256">
        <ele>387.3</ele>
        <time>2021-04-25T09:38:51Z</time>
      </trkpt>
      <trkpt lat="43.54075" lon="6.27268">
        <ele>387.9</ele>
        <time>2021-04-25T09:39:01Z</time>
      </trkpt>
      <trkpt lat="43.54068" lon="6.27278">
        <ele>388.9</ele>
        <time>2021-04-25T09:39:10Z</time>
      </trkpt>
      <trkpt lat="43.54062" lon="6.27291">
        <ele>389.9</ele>
        <time>2021-04-25T09:39:20Z</time>
      </trkpt>
      <trkpt lat="43.54055" lon="6.27301">
        <ele>390.7</ele>
        <time>2021-04-25T09:39:27Z</time>
      </trkpt>
      <trkpt lat="43.5405" lon="6.27311">
        <ele>391.4</ele>
        <time>2021-04-25T09:39:36Z</time>
      </trkpt>
      <trkpt lat="43.54044" lon="6.27322">
        <ele>392.1</ele>
        <time>2021-04-25T09:39:44Z</time>
      </trkpt>
      <trkpt lat="43.54038" lon="6.27332">
        <ele>392.5</ele>
        <time>2021-04-25T09:39:55Z</time>
      </trkpt>
      <trkpt lat="43.54029" lon="6.27339">
        <ele>391.7</ele>
        <time>2021-04-25T09:40:05Z</time>
      </trkpt>
      <trkpt lat="43.54023" lon="6.27348">
        <ele>391.7</ele>
        <time>2021-04-25T09:40:13Z</time>
      </trkpt>
      <trkpt lat="43.54018" lon="6.27359">
        <ele>391.9</ele>
        <time>2021-04-25T09:40:20Z</time>
      </trkpt>
      <trkpt lat="43.54013" lon="6.27369">
        <ele>391.7</ele>
        <time>2021-04-25T09:40:28Z</time>
      </trkpt>
      <trkpt lat="43.54009" lon="6.27382">
        <ele>391.8</ele>
        <time>2021-04-25T09:40:37Z</time>
      </trkpt>
      <trkpt lat="43.54004" lon="6.27395">
        <ele>391.2</ele>
        <time>2021-04-25T09:40:45Z</time>
      </trkpt>
      <trkpt lat="43.53998" lon="6.27406">
        <ele>390.9</ele>
        <time>2021-04-25T09:40:53Z</time>
      </trkpt>
      <trkpt lat="43.53992" lon="6.27415">
        <ele>390.5</ele>
        <time>2021-04-25T09:41:01Z</time>
      </trkpt>
      <trkpt lat="43.53986" lon="6.27426">
        <ele>390.4</ele>
        <time>2021-04-25T09:41:12Z</time>
      </trkpt>
      <trkpt lat="43.53978" lon="6.27434">
        <ele>390.5</ele>
        <time>2021-04-25T09:41:21Z</time>
      </trkpt>
      <trkpt lat="43.53971" lon="6.27444">
        <ele>390.9</ele>
        <time>2021-04-25T09:41:31Z</time>
      </trkpt>
      <trkpt lat="43.53966" lon="6.27452">
        <ele>391.8</ele>
        <time>2021-04-25T09:41:41Z</time>
      </trkpt>
      <trkpt lat="43.53967" lon="6.27452">
        <ele>391.8</ele>
        <time>2021-04-25T09:41:44Z</time>
      </trkpt>
      <trkpt lat="43.53967" lon="6.27453">
        <ele>391.9</ele>
        <time>2021-04-25T09:41:47Z</time>
      </trkpt>
      <trkpt lat="43.53967" lon="6.27454">
        <ele>391.9</ele>
        <time>2021-04-25T09:41:48Z</time>
      </trkpt>
      <trkpt lat="43.53964" lon="6.27466">
        <ele>392.6</ele>
        <time>2021-04-25T09:41:58Z</time>
      </trkpt>
      <trkpt lat="43.53957" lon="6.27476">
        <ele>392.5</ele>
        <time>2021-04-25T09:42:08Z</time>
      </trkpt>
      <trkpt lat="43.5395" lon="6.27485">
        <ele>393.4</ele>
        <time>2021-04-25T09:42:18Z</time>
      </trkpt>
      <trkpt lat="43.53944" lon="6.27496">
        <ele>394.5</ele>
        <time>2021-04-25T09:42:28Z</time>
      </trkpt>
      <trkpt lat="43.53938" lon="6.27507">
        <ele>395</ele>
        <time>2021-04-25T09:42:37Z</time>
      </trkpt>
      <trkpt lat="43.53934" lon="6.2752">
        <ele>395.6</ele>
        <time>2021-04-25T09:42:45Z</time>
      </trkpt>
      <trkpt lat="43.53935" lon="6.27532">
        <ele>395.8</ele>
        <time>2021-04-25T09:42:53Z</time>
      </trkpt>
      <trkpt lat="43.53942" lon="6.27542">
        <ele>396</ele>
        <time>2021-04-25T09:43:00Z</time>
      </trkpt>
      <trkpt lat="43.5395" lon="6.27548">
        <ele>396.3</ele>
        <time>2021-04-25T09:43:09Z</time>
      </trkpt>
      <trkpt lat="43.53958" lon="6.27556">
        <ele>397.4</ele>
        <time>2021-04-25T09:43:18Z</time>
      </trkpt>
      <trkpt lat="43.53963" lon="6.27567">
        <ele>397.6</ele>
        <time>2021-04-25T09:43:28Z</time>
      </trkpt>
      <trkpt lat="43.5396" lon="6.2758">
        <ele>396.7</ele>
        <time>2021-04-25T09:43:39Z</time>
      </trkpt>
      <trkpt lat="43.53959" lon="6.27593">
        <ele>396</ele>
        <time>2021-04-25T09:43:49Z</time>
      </trkpt>
      <trkpt lat="43.5396" lon="6.27606">
        <ele>395.4</ele>
        <time>2021-04-25T09:43:56Z</time>
      </trkpt>
      <trkpt lat="43.53958" lon="6.27618">
        <ele>395.5</ele>
        <time>2021-04-25T09:44:04Z</time>
      </trkpt>
      <trkpt lat="43.53964" lon="6.27629">
        <ele>394.9</ele>
        <time>2021-04-25T09:44:11Z</time>
      </trkpt>
      <trkpt lat="43.53966" lon="6.27641">
        <ele>394.5</ele>
        <time>2021-04-25T09:44:20Z</time>
      </trkpt>
      <trkpt lat="43.53966" lon="6.27655">
        <ele>394.2</ele>
        <time>2021-04-25T09:44:32Z</time>
      </trkpt>
      <trkpt lat="43.53961" lon="6.27666">
        <ele>393.8</ele>
        <time>2021-04-25T09:44:42Z</time>
      </trkpt>
      <trkpt lat="43.53959" lon="6.27678">
        <ele>393.7</ele>
        <time>2021-04-25T09:44:51Z</time>
      </trkpt>
      <trkpt lat="43.53959" lon="6.27691">
        <ele>393.5</ele>
        <time>2021-04-25T09:45:00Z</time>
      </trkpt>
      <trkpt lat="43.53959" lon="6.27704">
        <ele>393.5</ele>
        <time>2021-04-25T09:45:09Z</time>
      </trkpt>
      <trkpt lat="43.5396" lon="6.27716">
        <ele>393.5</ele>
        <time>2021-04-25T09:45:20Z</time>
      </trkpt>
      <trkpt lat="43.53959" lon="6.27717">
        <ele>393.6</ele>
        <time>2021-04-25T09:45:22Z</time>
      </trkpt>
      <trkpt lat="43.5396" lon="6.2773">
        <ele>393.5</ele>
        <time>2021-04-25T09:45:31Z</time>
      </trkpt>
      <trkpt lat="43.5396" lon="6.27743">
        <ele>393.5</ele>
        <time>2021-04-25T09:45:40Z</time>
      </trkpt>
      <trkpt lat="43.5396" lon="6.27756">
        <ele>393.5</ele>
        <time>2021-04-25T09:45:49Z</time>
      </trkpt>
      <trkpt lat="43.5396" lon="6.27769">
        <ele>394.4</ele>
        <time>2021-04-25T09:45:58Z</time>
      </trkpt>
      <trkpt lat="43.53961" lon="6.27783">
        <ele>394.6</ele>
        <time>2021-04-25T09:46:09Z</time>
      </trkpt>
      <trkpt lat="43.53962" lon="6.27796">
        <ele>395.6</ele>
        <time>2021-04-25T09:46:23Z</time>
      </trkpt>
      <trkpt lat="43.53963" lon="6.27809">
        <ele>396.6</ele>
        <time>2021-04-25T09:46:39Z</time>
      </trkpt>
      <trkpt lat="43.53958" lon="6.2782">
        <ele>397.3</ele>
        <time>2021-04-25T09:46:47Z</time>
      </trkpt>
      <trkpt lat="43.53956" lon="6.27832">
        <ele>397.5</ele>
        <time>2021-04-25T09:46:56Z</time>
      </trkpt>
      <trkpt lat="43.53953" lon="6.27845">
        <ele>397.4</ele>
        <time>2021-04-25T09:47:05Z</time>
      </trkpt>
      <trkpt lat="43.53952" lon="6.27858">
        <ele>398.1</ele>
        <time>2021-04-25T09:47:13Z</time>
      </trkpt>
      <trkpt lat="43.5395" lon="6.27871">
        <ele>398.1</ele>
        <time>2021-04-25T09:47:22Z</time>
      </trkpt>
      <trkpt lat="43.53948" lon="6.27883">
        <ele>398</ele>
        <time>2021-04-25T09:47:32Z</time>
      </trkpt>
      <trkpt lat="43.53944" lon="6.27895">
        <ele>398.4</ele>
        <time>2021-04-25T09:47:40Z</time>
      </trkpt>
      <trkpt lat="43.5394" lon="6.27907">
        <ele>399</ele>
        <time>2021-04-25T09:47:50Z</time>
      </trkpt>
      <trkpt lat="43.53937" lon="6.27919">
        <ele>399.2</ele>
        <time>2021-04-25T09:47:59Z</time>
      </trkpt>
      <trkpt lat="43.53935" lon="6.27933">
        <ele>399.2</ele>
        <time>2021-04-25T09:48:09Z</time>
      </trkpt>
      <trkpt lat="43.53933" lon="6.27946">
        <ele>399.5</ele>
        <time>2021-04-25T09:48:17Z</time>
      </trkpt>
      <trkpt lat="43.53932" lon="6.27959">
        <ele>400.1</ele>
        <time>2021-04-25T09:48:25Z</time>
      </trkpt>
      <trkpt lat="43.5393" lon="6.27971">
        <ele>400.4</ele>
        <time>2021-04-25T09:48:33Z</time>
      </trkpt>
      <trkpt lat="43.53929" lon="6.27985">
        <ele>400.8</ele>
        <time>2021-04-25T09:48:41Z</time>
      </trkpt>
      <trkpt lat="43.53926" lon="6.27998">
        <ele>400.8</ele>
        <time>2021-04-25T09:48:50Z</time>
      </trkpt>
      <trkpt lat="43.53924" lon="6.2801">
        <ele>400.6</ele>
        <time>2021-04-25T09:48:57Z</time>
      </trkpt>
      <trkpt lat="43.53921" lon="6.28024">
        <ele>401</ele>
        <time>2021-04-25T09:49:05Z</time>
      </trkpt>
      <trkpt lat="43.53917" lon="6.28036">
        <ele>401.3</ele>
        <time>2021-04-25T09:49:13Z</time>
      </trkpt>
      <trkpt lat="43.53915" lon="6.2805">
        <ele>401.2</ele>
        <time>2021-04-25T09:49:22Z</time>
      </trkpt>
      <trkpt lat="43.53912" lon="6.28062">
        <ele>401.5</ele>
        <time>2021-04-25T09:49:31Z</time>
      </trkpt>
      <trkpt lat="43.5391" lon="6.28075">
        <ele>401.7</ele>
        <time>2021-04-25T09:49:43Z</time>
      </trkpt>
      <trkpt lat="43.53906" lon="6.28086">
        <ele>402.4</ele>
        <time>2021-04-25T09:49:54Z</time>
      </trkpt>
      <trkpt lat="43.53901" lon="6.28098">
        <ele>401.8</ele>
        <time>2021-04-25T09:50:03Z</time>
      </trkpt>
      <trkpt lat="43.53896" lon="6.28109">
        <ele>400.6</ele>
        <time>2021-04-25T09:50:13Z</time>
      </trkpt>
      <trkpt lat="43.53888" lon="6.28115">
        <ele>399.8</ele>
        <time>2021-04-25T09:50:23Z</time>
      </trkpt>
      <trkpt lat="43.5388" lon="6.28121">
        <ele>398.2</ele>
        <time>2021-04-25T09:50:35Z</time>
      </trkpt>
      <trkpt lat="43.53877" lon="6.28127">
        <ele>397.2</ele>
        <time>2021-04-25T09:50:43Z</time>
      </trkpt>
      <trkpt lat="43.53876" lon="6.28128">
        <ele>397.1</ele>
        <time>2021-04-25T09:50:44Z</time>
      </trkpt>
      <trkpt lat="43.53866" lon="6.28134">
        <ele>396.7</ele>
        <time>2021-04-25T09:50:50Z</time>
      </trkpt>
      <trkpt lat="43.53857" lon="6.28141">
        <ele>396.2</ele>
        <time>2021-04-25T09:50:57Z</time>
      </trkpt>
      <trkpt lat="43.53849" lon="6.28148">
        <ele>396.3</ele>
        <time>2021-04-25T09:51:05Z</time>
      </trkpt>
      <trkpt lat="43.53842" lon="6.28155">
        <ele>396.4</ele>
        <time>2021-04-25T09:51:13Z</time>
      </trkpt>
      <trkpt lat="43.53833" lon="6.28162">
        <ele>396</ele>
        <time>2021-04-25T09:51:21Z</time>
      </trkpt>
      <trkpt lat="43.53827" lon="6.28172">
        <ele>395.8</ele>
        <time>2021-04-25T09:51:26Z</time>
      </trkpt>
      <trkpt lat="43.53823" lon="6.28184">
        <ele>396.4</ele>
        <time>2021-04-25T09:51:32Z</time>
      </trkpt>
      <trkpt lat="43.53819" lon="6.28195">
        <ele>396.5</ele>
        <time>2021-04-25T09:51:39Z</time>
      </trkpt>
      <trkpt lat="43.53816" lon="6.28208">
        <ele>396.5</ele>
        <time>2021-04-25T09:51:46Z</time>
      </trkpt>
      <trkpt lat="43.53812" lon="6.28221">
        <ele>395.8</ele>
        <time>2021-04-25T09:51:54Z</time>
      </trkpt>
      <trkpt lat="43.53809" lon="6.28234">
        <ele>395.9</ele>
        <time>2021-04-25T09:52:02Z</time>
      </trkpt>
      <trkpt lat="43.53806" lon="6.28247">
        <ele>395.3</ele>
        <time>2021-04-25T09:52:11Z</time>
      </trkpt>
      <trkpt lat="43.53801" lon="6.28258">
        <ele>394.8</ele>
        <time>2021-04-25T09:52:19Z</time>
      </trkpt>
      <trkpt lat="43.53796" lon="6.28269">
        <ele>394.5</ele>
        <time>2021-04-25T09:52:27Z</time>
      </trkpt>
      <trkpt lat="43.53792" lon="6.2828">
        <ele>394.1</ele>
        <time>2021-04-25T09:52:37Z</time>
      </trkpt>
      <trkpt lat="43.53786" lon="6.28291">
        <ele>394.1</ele>
        <time>2021-04-25T09:52:45Z</time>
      </trkpt>
      <trkpt lat="43.53781" lon="6.28302">
        <ele>394.1</ele>
        <time>2021-04-25T09:52:53Z</time>
      </trkpt>
      <trkpt lat="43.53775" lon="6.28312">
        <ele>393.8</ele>
        <time>2021-04-25T09:53:01Z</time>
      </trkpt>
      <trkpt lat="43.53771" lon="6.28324">
        <ele>393.8</ele>
        <time>2021-04-25T09:53:10Z</time>
      </trkpt>
      <trkpt lat="43.53768" lon="6.28337">
        <ele>394.2</ele>
        <time>2021-04-25T09:53:19Z</time>
      </trkpt>
      <trkpt lat="43.53769" lon="6.28347">
        <ele>393.7</ele>
        <time>2021-04-25T09:53:32Z</time>
      </trkpt>
      <trkpt lat="43.53769" lon="6.28348">
        <ele>393.4</ele>
        <time>2021-04-25T09:53:33Z</time>
      </trkpt>
      <trkpt lat="43.53769" lon="6.28353">
        <ele>393.9</ele>
        <time>2021-04-25T09:53:41Z</time>
      </trkpt>
      <trkpt lat="43.53769" lon="6.28352">
        <ele>393.8</ele>
        <time>2021-04-25T09:53:42Z</time>
      </trkpt>
      <trkpt lat="43.53769" lon="6.28352">
        <ele>393.6</ele>
        <time>2021-04-25T09:53:44Z</time>
      </trkpt>
      <trkpt lat="43.53769" lon="6.28352">
        <ele>393.6</ele>
        <time>2021-04-25T09:53:45Z</time>
      </trkpt>
      <trkpt lat="43.53769" lon="6.28352">
        <ele>393.6</ele>
        <time>2021-04-25T09:53:46Z</time>
      </trkpt>
      <trkpt lat="43.53769" lon="6.28352">
        <ele>393.8</ele>
        <time>2021-04-25T09:53:48Z</time>
      </trkpt>
      <trkpt lat="43.53769" lon="6.28352">
        <ele>393.7</ele>
        <time>2021-04-25T09:53:51Z</time>
      </trkpt>
      <trkpt lat="43.53769" lon="6.28352">
        <ele>393.7</ele>
        <time>2021-04-25T09:53:52Z</time>
      </trkpt>
      <trkpt lat="43.53767" lon="6.28353">
        <ele>393.5</ele>
        <time>2021-04-25T09:53:58Z</time>
      </trkpt>
      <trkpt lat="43.53768" lon="6.28353">
        <ele>393.6</ele>
        <time>2021-04-25T09:53:59Z</time>
      </trkpt>
      <trkpt lat="43.53769" lon="6.28352">
        <ele>393.4</ele>
        <time>2021-04-25T09:54:03Z</time>
      </trkpt>
      <trkpt lat="43.53769" lon="6.28352">
        <ele>393.6</ele>
        <time>2021-04-25T09:54:10Z</time>
      </trkpt>
      <trkpt lat="43.53769" lon="6.28352">
        <ele>393.6</ele>
        <time>2021-04-25T09:54:11Z</time>
      </trkpt>
      <trkpt lat="43.53769" lon="6.28352">
        <ele>393.5</ele>
        <time>2021-04-25T09:54:12Z</time>
      </trkpt>
      <trkpt lat="43.53762" lon="6.28342">
        <ele>393.1</ele>
        <time>2021-04-25T09:54:22Z</time>
      </trkpt>
      <trkpt lat="43.53755" lon="6.28334">
        <ele>392.7</ele>
        <time>2021-04-25T09:54:31Z</time>
      </trkpt>
      <trkpt lat="43.53749" lon="6.28325">
        <ele>392.8</ele>
        <time>2021-04-25T09:54:40Z</time>
      </trkpt>
      <trkpt lat="43.53742" lon="6.28314">
        <ele>392.5</ele>
        <time>2021-04-25T09:54:49Z</time>
      </trkpt>
      <trkpt lat="43.53737" lon="6.28303">
        <ele>392.4</ele>
        <time>2021-04-25T09:54:59Z</time>
      </trkpt>
      <trkpt lat="43.53733" lon="6.28292">
        <ele>392.7</ele>
        <time>2021-04-25T09:55:09Z</time>
      </trkpt>
      <trkpt lat="43.53726" lon="6.28283">
        <ele>392.7</ele>
        <time>2021-04-25T09:55:16Z</time>
      </trkpt>
      <trkpt lat="43.53719" lon="6.28272">
        <ele>392.7</ele>
        <time>2021-04-25T09:55:27Z</time>
      </trkpt>
      <trkpt lat="43.53713" lon="6.28263">
        <ele>393</ele>
        <time>2021-04-25T09:55:35Z</time>
      </trkpt>
      <trkpt lat="43.53704" lon="6.28256">
        <ele>393.1</ele>
        <time>2021-04-25T09:55:45Z</time>
      </trkpt>
      <trkpt lat="43.53696" lon="6.28249">
        <ele>393</ele>
        <time>2021-04-25T09:55:53Z</time>
      </trkpt>
      <trkpt lat="43.53687" lon="6.28245">
        <ele>392.7</ele>
        <time>2021-04-25T09:56:00Z</time>
      </trkpt>
      <trkpt lat="43.53679" lon="6.2824">
        <ele>392.3</ele>
        <time>2021-04-25T09:56:08Z</time>
      </trkpt>
      <trkpt lat="43.5367" lon="6.28235">
        <ele>392</ele>
        <time>2021-04-25T09:56:16Z</time>
      </trkpt>
      <trkpt lat="43.53661" lon="6.28229">
        <ele>391.5</ele>
        <time>2021-04-25T09:56:24Z</time>
      </trkpt>
      <trkpt lat="43.53655" lon="6.28219">
        <ele>390.2</ele>
        <time>2021-04-25T09:56:35Z</time>
      </trkpt>
      <trkpt lat="43.53646" lon="6.28213">
        <ele>389.5</ele>
        <time>2021-04-25T09:56:46Z</time>
      </trkpt>
      <trkpt lat="43.53637" lon="6.28213">
        <ele>388.7</ele>
        <time>2021-04-25T09:56:54Z</time>
      </trkpt>
      <trkpt lat="43.53628" lon="6.28209">
        <ele>386.5</ele>
        <time>2021-04-25T09:57:06Z</time>
      </trkpt>
      <trkpt lat="43.53619" lon="6.2821">
        <ele>385.3</ele>
        <time>2021-04-25T09:57:15Z</time>
      </trkpt>
      <trkpt lat="43.53609" lon="6.28212">
        <ele>384.7</ele>
        <time>2021-04-25T09:57:24Z</time>
      </trkpt>
      <trkpt lat="43.53601" lon="6.28215">
        <ele>383.7</ele>
        <time>2021-04-25T09:57:34Z</time>
      </trkpt>
      <trkpt lat="43.53591" lon="6.28218">
        <ele>382.9</ele>
        <time>2021-04-25T09:57:44Z</time>
      </trkpt>
      <trkpt lat="43.53582" lon="6.28222">
        <ele>382.1</ele>
        <time>2021-04-25T09:57:53Z</time>
      </trkpt>
      <trkpt lat="43.53573" lon="6.28223">
        <ele>381.7</ele>
        <time>2021-04-25T09:58:00Z</time>
      </trkpt>
      <trkpt lat="43.53564" lon="6.28224">
        <ele>380.3</ele>
        <time>2021-04-25T09:58:09Z</time>
      </trkpt>
      <trkpt lat="43.53556" lon="6.28231">
        <ele>379.6</ele>
        <time>2021-04-25T09:58:19Z</time>
      </trkpt>
      <trkpt lat="43.53547" lon="6.28238">
        <ele>378.2</ele>
        <time>2021-04-25T09:58:30Z</time>
      </trkpt>
      <trkpt lat="43.53539" lon="6.28243">
        <ele>377.3</ele>
        <time>2021-04-25T09:58:39Z</time>
      </trkpt>
      <trkpt lat="43.5353" lon="6.28249">
        <ele>376.5</ele>
        <time>2021-04-25T09:58:48Z</time>
      </trkpt>
      <trkpt lat="43.53521" lon="6.28249">
        <ele>374.8</ele>
        <time>2021-04-25T09:58:58Z</time>
      </trkpt>
      <trkpt lat="43.53512" lon="6.28248">
        <ele>373.8</ele>
        <time>2021-04-25T09:59:06Z</time>
      </trkpt>
      <trkpt lat="43.53502" lon="6.28249">
        <ele>373</ele>
        <time>2021-04-25T09:59:14Z</time>
      </trkpt>
      <trkpt lat="43.53493" lon="6.28251">
        <ele>371.8</ele>
        <time>2021-04-25T09:59:24Z</time>
      </trkpt>
      <trkpt lat="43.53485" lon="6.28257">
        <ele>370.5</ele>
        <time>2021-04-25T09:59:34Z</time>
      </trkpt>
      <trkpt lat="43.53482" lon="6.28269">
        <ele>370</ele>
        <time>2021-04-25T09:59:42Z</time>
      </trkpt>
      <trkpt lat="43.53484" lon="6.28282">
        <ele>369.7</ele>
        <time>2021-04-25T09:59:51Z</time>
      </trkpt>
      <trkpt lat="43.53487" lon="6.28293">
        <ele>369.6</ele>
        <time>2021-04-25T10:00:01Z</time>
      </trkpt>
      <trkpt lat="43.53488" lon="6.28302">
        <ele>369.5</ele>
        <time>2021-04-25T10:00:12Z</time>
      </trkpt>
      <trkpt lat="43.53489" lon="6.28302">
        <ele>369.1</ele>
        <time>2021-04-25T10:00:14Z</time>
      </trkpt>
      <trkpt lat="43.53489" lon="6.28302">
        <ele>367.8</ele>
        <time>2021-04-25T10:00:15Z</time>
      </trkpt>
      <trkpt lat="43.53489" lon="6.28302">
        <ele>369.8</ele>
        <time>2021-04-25T10:00:24Z</time>
      </trkpt>
      <trkpt lat="43.53489" lon="6.28302">
        <ele>369.8</ele>
        <time>2021-04-25T10:00:25Z</time>
      </trkpt>
      <trkpt lat="43.53489" lon="6.28301">
        <ele>369.7</ele>
        <time>2021-04-25T10:00:45Z</time>
      </trkpt>
      <trkpt lat="43.53489" lon="6.28301">
        <ele>369.7</ele>
        <time>2021-04-25T10:00:46Z</time>
      </trkpt>
      <trkpt lat="43.53489" lon="6.28301">
        <ele>369.8</ele>
        <time>2021-04-25T10:00:48Z</time>
      </trkpt>
      <trkpt lat="43.53489" lon="6.28301">
        <ele>369.3</ele>
        <time>2021-04-25T10:00:52Z</time>
      </trkpt>
      <trkpt lat="43.53489" lon="6.28301">
        <ele>369.2</ele>
        <time>2021-04-25T10:00:53Z</time>
      </trkpt>
      <trkpt lat="43.53487" lon="6.28304">
        <ele>369</ele>
        <time>2021-04-25T10:01:00Z</time>
      </trkpt>
      <trkpt lat="43.53487" lon="6.28307">
        <ele>369.1</ele>
        <time>2021-04-25T10:01:06Z</time>
      </trkpt>
      <trkpt lat="43.53487" lon="6.28308">
        <ele>369.1</ele>
        <time>2021-04-25T10:01:09Z</time>
      </trkpt>
      <trkpt lat="43.53488" lon="6.28308">
        <ele>369.3</ele>
        <time>2021-04-25T10:01:12Z</time>
      </trkpt>
      <trkpt lat="43.53492" lon="6.28306">
        <ele>369.4</ele>
        <time>2021-04-25T10:01:20Z</time>
      </trkpt>
      <trkpt lat="43.53492" lon="6.28306">
        <ele>369.3</ele>
        <time>2021-04-25T10:01:37Z</time>
      </trkpt>
      <trkpt lat="43.53492" lon="6.28306">
        <ele>369.4</ele>
        <time>2021-04-25T10:01:38Z</time>
      </trkpt>
      <trkpt lat="43.53492" lon="6.28306">
        <ele>369.2</ele>
        <time>2021-04-25T10:01:55Z</time>
      </trkpt>
      <trkpt lat="43.53492" lon="6.28306">
        <ele>369.1</ele>
        <time>2021-04-25T10:01:56Z</time>
      </trkpt>
      <trkpt lat="43.53492" lon="6.28307">
        <ele>369.5</ele>
        <time>2021-04-25T10:02:19Z</time>
      </trkpt>
      <trkpt lat="43.53492" lon="6.28307">
        <ele>369.5</ele>
        <time>2021-04-25T10:02:20Z</time>
      </trkpt>
      <trkpt lat="43.53492" lon="6.28308">
        <ele>369.6</ele>
        <time>2021-04-25T10:02:27Z</time>
      </trkpt>
      <trkpt lat="43.53492" lon="6.28308">
        <ele>369.5</ele>
        <time>2021-04-25T10:02:28Z</time>
      </trkpt>
      <trkpt lat="43.53491" lon="6.28308">
        <ele>369.6</ele>
        <time>2021-04-25T10:02:32Z</time>
      </trkpt>
      <trkpt lat="43.53491" lon="6.28309">
        <ele>369.5</ele>
        <time>2021-04-25T10:02:34Z</time>
      </trkpt>
      <trkpt lat="43.53491" lon="6.28309">
        <ele>369.5</ele>
        <time>2021-04-25T10:02:39Z</time>
      </trkpt>
      <trkpt lat="43.53491" lon="6.28309">
        <ele>369.5</ele>
        <time>2021-04-25T10:02:40Z</time>
      </trkpt>
      <trkpt lat="43.53491" lon="6.28309">
        <ele>369.5</ele>
        <time>2021-04-25T10:02:45Z</time>
      </trkpt>
      <trkpt lat="43.53496" lon="6.28321">
        <ele>370.3</ele>
        <time>2021-04-25T10:03:00Z</time>
      </trkpt>
      <trkpt lat="43.53502" lon="6.28331">
        <ele>371</ele>
        <time>2021-04-25T10:03:09Z</time>
      </trkpt>
      <trkpt lat="43.5351" lon="6.2834">
        <ele>371.3</ele>
        <time>2021-04-25T10:03:17Z</time>
      </trkpt>
      <trkpt lat="43.53518" lon="6.28348">
        <ele>371.4</ele>
        <time>2021-04-25T10:03:25Z</time>
      </trkpt>
      <trkpt lat="43.53524" lon="6.28358">
        <ele>371.3</ele>
        <time>2021-04-25T10:03:33Z</time>
      </trkpt>
      <trkpt lat="43.5353" lon="6.28369">
        <ele>371.2</ele>
        <time>2021-04-25T10:03:43Z</time>
      </trkpt>
      <trkpt lat="43.53537" lon="6.28377">
        <ele>371</ele>
        <time>2021-04-25T10:03:50Z</time>
      </trkpt>
      <trkpt lat="43.53545" lon="6.28386">
        <ele>370.9</ele>
        <time>2021-04-25T10:03:58Z</time>
      </trkpt>
      <trkpt lat="43.53548" lon="6.28399">
        <ele>371.3</ele>
        <time>2021-04-25T10:04:10Z</time>
      </trkpt>
      <trkpt lat="43.53553" lon="6.28411">
        <ele>371.8</ele>
        <time>2021-04-25T10:04:18Z</time>
      </trkpt>
      <trkpt lat="43.53558" lon="6.28423">
        <ele>371.9</ele>
        <time>2021-04-25T10:04:27Z</time>
      </trkpt>
      <trkpt lat="43.53564" lon="6.28434">
        <ele>372</ele>
        <time>2021-04-25T10:04:34Z</time>
      </trkpt>
      <trkpt lat="43.53569" lon="6.28445">
        <ele>371.5</ele>
        <time>2021-04-25T10:04:41Z</time>
      </trkpt>
      <trkpt lat="43.53574" lon="6.28456">
        <ele>371.2</ele>
        <time>2021-04-25T10:04:49Z</time>
      </trkpt>
      <trkpt lat="43.53579" lon="6.28467">
        <ele>371.2</ele>
        <time>2021-04-25T10:04:57Z</time>
      </trkpt>
      <trkpt lat="43.53583" lon="6.28479">
        <ele>371.6</ele>
        <time>2021-04-25T10:05:06Z</time>
      </trkpt>
      <trkpt lat="43.53588" lon="6.2849">
        <ele>371.9</ele>
        <time>2021-04-25T10:05:14Z</time>
      </trkpt>
      <trkpt lat="43.53594" lon="6.28501">
        <ele>371.7</ele>
        <time>2021-04-25T10:05:23Z</time>
      </trkpt>
      <trkpt lat="43.53599" lon="6.2851">
        <ele>371.2</ele>
        <time>2021-04-25T10:05:32Z</time>
      </trkpt>
      <trkpt lat="43.536" lon="6.28513">
        <ele>371</ele>
        <time>2021-04-25T10:05:39Z</time>
      </trkpt>
      <trkpt lat="43.53601" lon="6.28513">
        <ele>370.7</ele>
        <time>2021-04-25T10:05:44Z</time>
      </trkpt>
      <trkpt lat="43.53601" lon="6.28513">
        <ele>371.9</ele>
        <time>2021-04-25T10:05:46Z</time>
      </trkpt>
      <trkpt lat="43.53601" lon="6.28513">
        <ele>371.7</ele>
        <time>2021-04-25T10:05:47Z</time>
      </trkpt>
      <trkpt lat="43.53601" lon="6.28513">
        <ele>371.8</ele>
        <time>2021-04-25T10:05:49Z</time>
      </trkpt>
      <trkpt lat="43.53602" lon="6.28513">
        <ele>371.6</ele>
        <time>2021-04-25T10:05:57Z</time>
      </trkpt>
      <trkpt lat="43.53602" lon="6.28514">
        <ele>371.5</ele>
        <time>2021-04-25T10:06:02Z</time>
      </trkpt>
      <trkpt lat="43.53602" lon="6.28514">
        <ele>371.5</ele>
        <time>2021-04-25T10:06:11Z</time>
      </trkpt>
      <trkpt lat="43.53603" lon="6.28514">
        <ele>372</ele>
        <time>2021-04-25T10:06:16Z</time>
      </trkpt>
      <trkpt lat="43.53604" lon="6.28514">
        <ele>371.8</ele>
        <time>2021-04-25T10:06:20Z</time>
      </trkpt>
      <trkpt lat="43.53613" lon="6.28518">
        <ele>372.7</ele>
        <time>2021-04-25T10:06:40Z</time>
      </trkpt>
      <trkpt lat="43.53617" lon="6.28519">
        <ele>373</ele>
        <time>2021-04-25T10:06:48Z</time>
      </trkpt>
      <trkpt lat="43.53617" lon="6.28519">
        <ele>373.2</ele>
        <time>2021-04-25T10:06:52Z</time>
      </trkpt>
      <trkpt lat="43.53626" lon="6.28519">
        <ele>372.8</ele>
        <time>2021-04-25T10:07:02Z</time>
      </trkpt>
      <trkpt lat="43.53634" lon="6.28522">
        <ele>373.4</ele>
        <time>2021-04-25T10:07:15Z</time>
      </trkpt>
      <trkpt lat="43.53634" lon="6.28522">
        <ele>373.3</ele>
        <time>2021-04-25T10:07:20Z</time>
      </trkpt>
      <trkpt lat="43.53643" lon="6.28524">
        <ele>373.4</ele>
        <time>2021-04-25T10:07:31Z</time>
      </trkpt>
      <trkpt lat="43.53652" lon="6.28526">
        <ele>373.3</ele>
        <time>2021-04-25T10:07:40Z</time>
      </trkpt>
      <trkpt lat="43.53661" lon="6.2853">
        <ele>373.3</ele>
        <time>2021-04-25T10:07:50Z</time>
      </trkpt>
      <trkpt lat="43.5367" lon="6.28531">
        <ele>373.5</ele>
        <time>2021-04-25T10:08:05Z</time>
      </trkpt>
      <trkpt lat="43.5368" lon="6.28534">
        <ele>373.3</ele>
        <time>2021-04-25T10:08:15Z</time>
      </trkpt>
      <trkpt lat="43.53689" lon="6.28535">
        <ele>374</ele>
        <time>2021-04-25T10:08:25Z</time>
      </trkpt>
      <trkpt lat="43.53698" lon="6.28532">
        <ele>375</ele>
        <time>2021-04-25T10:08:37Z</time>
      </trkpt>
      <trkpt lat="43.53707" lon="6.28532">
        <ele>377</ele>
        <time>2021-04-25T10:08:51Z</time>
      </trkpt>
      <trkpt lat="43.5371" lon="6.28522">
        <ele>378.2</ele>
        <time>2021-04-25T10:09:06Z</time>
      </trkpt>
      <trkpt lat="43.5371" lon="6.28521">
        <ele>378.1</ele>
        <time>2021-04-25T10:09:08Z</time>
      </trkpt>
      <trkpt lat="43.5371" lon="6.28521">
        <ele>378.2</ele>
        <time>2021-04-25T10:09:09Z</time>
      </trkpt>
      <trkpt lat="43.53711" lon="6.2853">
        <ele>379.5</ele>
        <time>2021-04-25T11:05:19Z</time>
      </trkpt>
      <trkpt lat="43.53711" lon="6.2853">
        <ele>379.5</ele>
        <time>2021-04-25T11:05:20Z</time>
      </trkpt>
      <trkpt lat="43.53711" lon="6.2853">
        <ele>379.3</ele>
        <time>2021-04-25T11:05:22Z</time>
      </trkpt>
      <trkpt lat="43.5371" lon="6.2853">
        <ele>379</ele>
        <time>2021-04-25T11:05:25Z</time>
      </trkpt>
      <trkpt lat="43.53709" lon="6.2853">
        <ele>378.7</ele>
        <time>2021-04-25T11:05:26Z</time>
      </trkpt>
      <trkpt lat="43.537" lon="6.28528">
        <ele>376.4</ele>
        <time>2021-04-25T11:05:38Z</time>
      </trkpt>
      <trkpt lat="43.53699" lon="6.28526">
        <ele>376.4</ele>
        <time>2021-04-25T11:05:44Z</time>
      </trkpt>
      <trkpt lat="43.53699" lon="6.28526">
        <ele>376.4</ele>
        <time>2021-04-25T11:05:55Z</time>
      </trkpt>
      <trkpt lat="43.53692" lon="6.28528">
        <ele>375.7</ele>
        <time>2021-04-25T11:06:09Z</time>
      </trkpt>
      <trkpt lat="43.53691" lon="6.28528">
        <ele>375.7</ele>
        <time>2021-04-25T11:06:10Z</time>
      </trkpt>
      <trkpt lat="43.53687" lon="6.28529">
        <ele>375.4</ele>
        <time>2021-04-25T11:06:16Z</time>
      </trkpt>
      <trkpt lat="43.53686" lon="6.28529">
        <ele>375.3</ele>
        <time>2021-04-25T11:06:17Z</time>
      </trkpt>
      <trkpt lat="43.53686" lon="6.28529">
        <ele>375.3</ele>
        <time>2021-04-25T11:06:18Z</time>
      </trkpt>
      <trkpt lat="43.53686" lon="6.28529">
        <ele>375.3</ele>
        <time>2021-04-25T11:06:20Z</time>
      </trkpt>
      <trkpt lat="43.53677" lon="6.28526">
        <ele>375.3</ele>
        <time>2021-04-25T11:06:31Z</time>
      </trkpt>
      <trkpt lat="43.53668" lon="6.28524">
        <ele>375.1</ele>
        <time>2021-04-25T11:06:40Z</time>
      </trkpt>
      <trkpt lat="43.53659" lon="6.28521">
        <ele>375.2</ele>
        <time>2021-04-25T11:06:50Z</time>
      </trkpt>
      <trkpt lat="43.5365" lon="6.2852">
        <ele>375</ele>
        <time>2021-04-25T11:06:59Z</time>
      </trkpt>
      <trkpt lat="43.5364" lon="6.28518">
        <ele>375.5</ele>
        <time>2021-04-25T11:07:09Z</time>
      </trkpt>
      <trkpt lat="43.53631" lon="6.28517">
        <ele>375.4</ele>
        <time>2021-04-25T11:07:19Z</time>
      </trkpt>
      <trkpt lat="43.53621" lon="6.28514">
        <ele>375.5</ele>
        <time>2021-04-25T11:07:29Z</time>
      </trkpt>
      <trkpt lat="43.53612" lon="6.28512">
        <ele>374.5</ele>
        <time>2021-04-25T11:07:41Z</time>
      </trkpt>
      <trkpt lat="43.53603" lon="6.28515">
        <ele>373.9</ele>
        <time>2021-04-25T11:07:50Z</time>
      </trkpt>
      <trkpt lat="43.53597" lon="6.28524">
        <ele>372.1</ele>
        <time>2021-04-25T11:08:00Z</time>
      </trkpt>
      <trkpt lat="43.53591" lon="6.28535">
        <ele>370.2</ele>
        <time>2021-04-25T11:08:12Z</time>
      </trkpt>
      <trkpt lat="43.53585" lon="6.28545">
        <ele>368.3</ele>
        <time>2021-04-25T11:08:23Z</time>
      </trkpt>
      <trkpt lat="43.53589" lon="6.28557">
        <ele>366.1</ele>
        <time>2021-04-25T11:08:34Z</time>
      </trkpt>
      <trkpt lat="43.53592" lon="6.28569">
        <ele>364.4</ele>
        <time>2021-04-25T11:08:44Z</time>
      </trkpt>
      <trkpt lat="43.53594" lon="6.28581">
        <ele>363</ele>
        <time>2021-04-25T11:08:54Z</time>
      </trkpt>
      <trkpt lat="43.53602" lon="6.2859">
        <ele>362.7</ele>
        <time>2021-04-25T11:09:04Z</time>
      </trkpt>
      <trkpt lat="43.5361" lon="6.28596">
        <ele>362.5</ele>
        <time>2021-04-25T11:09:12Z</time>
      </trkpt>
      <trkpt lat="43.53619" lon="6.28603">
        <ele>362.1</ele>
        <time>2021-04-25T11:09:21Z</time>
      </trkpt>
      <trkpt lat="43.53624" lon="6.28614">
        <ele>361.2</ele>
        <time>2021-04-25T11:09:30Z</time>
      </trkpt>
      <trkpt lat="43.5362" lon="6.28626">
        <ele>359.8</ele>
        <time>2021-04-25T11:09:40Z</time>
      </trkpt>
      <trkpt lat="43.53611" lon="6.2863">
        <ele>358.8</ele>
        <time>2021-04-25T11:09:50Z</time>
      </trkpt>
      <trkpt lat="43.53603" lon="6.28637">
        <ele>358.5</ele>
        <time>2021-04-25T11:10:01Z</time>
      </trkpt>
      <trkpt lat="43.53599" lon="6.28646">
        <ele>357.9</ele>
        <time>2021-04-25T11:10:13Z</time>
      </trkpt>
      <trkpt lat="43.53599" lon="6.28647">
        <ele>357.8</ele>
        <time>2021-04-25T11:10:14Z</time>
      </trkpt>
      <trkpt lat="43.53602" lon="6.28643">
        <ele>358.1</ele>
        <time>2021-04-25T11:10:51Z</time>
      </trkpt>
      <trkpt lat="43.53603" lon="6.28643">
        <ele>357.9</ele>
        <time>2021-04-25T11:10:52Z</time>
      </trkpt>
      <trkpt lat="43.53597" lon="6.28643">
        <ele>358.1</ele>
        <time>2021-04-25T11:11:16Z</time>
      </trkpt>
      <trkpt lat="43.53598" lon="6.28643">
        <ele>357.9</ele>
        <time>2021-04-25T11:11:17Z</time>
      </trkpt>
      <trkpt lat="43.53599" lon="6.28643">
        <ele>357.9</ele>
        <time>2021-04-25T11:11:21Z</time>
      </trkpt>
      <trkpt lat="43.53599" lon="6.28643">
        <ele>357.7</ele>
        <time>2021-04-25T11:11:33Z</time>
      </trkpt>
      <trkpt lat="43.53599" lon="6.28643">
        <ele>357.8</ele>
        <time>2021-04-25T11:11:34Z</time>
      </trkpt>
      <trkpt lat="43.53599" lon="6.28643">
        <ele>357.8</ele>
        <time>2021-04-25T11:11:35Z</time>
      </trkpt>
      <trkpt lat="43.53598" lon="6.28647">
        <ele>357.5</ele>
        <time>2021-04-25T11:11:53Z</time>
      </trkpt>
      <trkpt lat="43.53599" lon="6.28647">
        <ele>357.3</ele>
        <time>2021-04-25T11:11:54Z</time>
      </trkpt>
      <trkpt lat="43.53599" lon="6.28647">
        <ele>357.2</ele>
        <time>2021-04-25T11:11:55Z</time>
      </trkpt>
      <trkpt lat="43.53598" lon="6.28647">
        <ele>357.3</ele>
        <time>2021-04-25T11:11:56Z</time>
      </trkpt>
      <trkpt lat="43.53589" lon="6.28645">
        <ele>357.7</ele>
        <time>2021-04-25T11:12:25Z</time>
      </trkpt>
      <trkpt lat="43.53581" lon="6.28652">
        <ele>357.2</ele>
        <time>2021-04-25T11:12:31Z</time>
      </trkpt>
      <trkpt lat="43.53574" lon="6.2866">
        <ele>357.4</ele>
        <time>2021-04-25T11:12:38Z</time>
      </trkpt>
      <trkpt lat="43.53567" lon="6.28669">
        <ele>356.9</ele>
        <time>2021-04-25T11:12:46Z</time>
      </trkpt>
      <trkpt lat="43.53561" lon="6.28679">
        <ele>356</ele>
        <time>2021-04-25T11:12:55Z</time>
      </trkpt>
      <trkpt lat="43.53556" lon="6.2869">
        <ele>355.2</ele>
        <time>2021-04-25T11:13:03Z</time>
      </trkpt>
      <trkpt lat="43.53557" lon="6.28694">
        <ele>355.5</ele>
        <time>2021-04-25T11:13:10Z</time>
      </trkpt>
      <trkpt lat="43.53557" lon="6.28694">
        <ele>355.7</ele>
        <time>2021-04-25T11:13:20Z</time>
      </trkpt>
      <trkpt lat="43.53557" lon="6.28694">
        <ele>355.6</ele>
        <time>2021-04-25T11:13:21Z</time>
      </trkpt>
      <trkpt lat="43.53558" lon="6.28694">
        <ele>355.7</ele>
        <time>2021-04-25T11:13:32Z</time>
      </trkpt>
      <trkpt lat="43.53558" lon="6.28694">
        <ele>355.9</ele>
        <time>2021-04-25T11:13:33Z</time>
      </trkpt>
      <trkpt lat="43.53558" lon="6.28695">
        <ele>355.9</ele>
        <time>2021-04-25T11:13:34Z</time>
      </trkpt>
      <trkpt lat="43.53563" lon="6.28707">
        <ele>357.1</ele>
        <time>2021-04-25T11:13:44Z</time>
      </trkpt>
      <trkpt lat="43.53568" lon="6.28717">
        <ele>357.9</ele>
        <time>2021-04-25T11:13:53Z</time>
      </trkpt>
      <trkpt lat="43.53573" lon="6.28729">
        <ele>358.9</ele>
        <time>2021-04-25T11:14:03Z</time>
      </trkpt>
      <trkpt lat="43.53578" lon="6.2874">
        <ele>360</ele>
        <time>2021-04-25T11:14:15Z</time>
      </trkpt>
      <trkpt lat="43.53582" lon="6.28751">
        <ele>361.8</ele>
        <time>2021-04-25T11:14:27Z</time>
      </trkpt>
      <trkpt lat="43.53587" lon="6.28762">
        <ele>362.4</ele>
        <time>2021-04-25T11:14:39Z</time>
      </trkpt>
      <trkpt lat="43.53593" lon="6.28772">
        <ele>362.8</ele>
        <time>2021-04-25T11:14:48Z</time>
      </trkpt>
      <trkpt lat="43.53598" lon="6.28783">
        <ele>362.7</ele>
        <time>2021-04-25T11:14:59Z</time>
      </trkpt>
      <trkpt lat="43.53598" lon="6.28783">
        <ele>362.5</ele>
        <time>2021-04-25T11:15:02Z</time>
      </trkpt>
      <trkpt lat="43.53598" lon="6.28784">
        <ele>362.7</ele>
        <time>2021-04-25T11:15:08Z</time>
      </trkpt>
      <trkpt lat="43.536" lon="6.28788">
        <ele>362.8</ele>
        <time>2021-04-25T11:15:14Z</time>
      </trkpt>
      <trkpt lat="43.536" lon="6.28788">
        <ele>362.8</ele>
        <time>2021-04-25T11:15:17Z</time>
      </trkpt>
      <trkpt lat="43.53601" lon="6.2879">
        <ele>362.9</ele>
        <time>2021-04-25T11:15:21Z</time>
      </trkpt>
      <trkpt lat="43.53601" lon="6.2879">
        <ele>363.1</ele>
        <time>2021-04-25T11:15:22Z</time>
      </trkpt>
      <trkpt lat="43.53601" lon="6.2879">
        <ele>363</ele>
        <time>2021-04-25T11:15:23Z</time>
      </trkpt>
      <trkpt lat="43.53601" lon="6.28791">
        <ele>362.9</ele>
        <time>2021-04-25T11:15:28Z</time>
      </trkpt>
      <trkpt lat="43.53606" lon="6.28801">
        <ele>363.1</ele>
        <time>2021-04-25T11:15:38Z</time>
      </trkpt>
      <trkpt lat="43.5361" lon="6.28812">
        <ele>363.1</ele>
        <time>2021-04-25T11:15:47Z</time>
      </trkpt>
      <trkpt lat="43.53615" lon="6.28823">
        <ele>363.6</ele>
        <time>2021-04-25T11:15:57Z</time>
      </trkpt>
      <trkpt lat="43.5362" lon="6.28836">
        <ele>364.4</ele>
        <time>2021-04-25T11:16:08Z</time>
      </trkpt>
      <trkpt lat="43.53622" lon="6.28848">
        <ele>365</ele>
        <time>2021-04-25T11:16:17Z</time>
      </trkpt>
      <trkpt lat="43.53627" lon="6.28859">
        <ele>365.8</ele>
        <time>2021-04-25T11:16:26Z</time>
      </trkpt>
      <trkpt lat="43.53631" lon="6.28871">
        <ele>366.5</ele>
        <time>2021-04-25T11:16:35Z</time>
      </trkpt>
      <trkpt lat="43.53635" lon="6.28883">
        <ele>367.4</ele>
        <time>2021-04-25T11:16:45Z</time>
      </trkpt>
      <trkpt lat="43.5364" lon="6.28894">
        <ele>368.4</ele>
        <time>2021-04-25T11:16:56Z</time>
      </trkpt>
      <trkpt lat="43.53648" lon="6.28902">
        <ele>370.3</ele>
        <time>2021-04-25T11:17:10Z</time>
      </trkpt>
      <trkpt lat="43.53654" lon="6.28912">
        <ele>371.9</ele>
        <time>2021-04-25T11:17:20Z</time>
      </trkpt>
      <trkpt lat="43.53661" lon="6.28921">
        <ele>372.6</ele>
        <time>2021-04-25T11:17:32Z</time>
      </trkpt>
      <trkpt lat="43.53669" lon="6.28926">
        <ele>373.7</ele>
        <time>2021-04-25T11:17:42Z</time>
      </trkpt>
      <trkpt lat="43.53679" lon="6.28928">
        <ele>376.1</ele>
        <time>2021-04-25T11:17:56Z</time>
      </trkpt>
      <trkpt lat="43.53687" lon="6.28923">
        <ele>377.3</ele>
        <time>2021-04-25T11:18:07Z</time>
      </trkpt>
      <trkpt lat="43.53694" lon="6.28914">
        <ele>378.6</ele>
        <time>2021-04-25T11:18:20Z</time>
      </trkpt>
      <trkpt lat="43.53694" lon="6.28918">
        <ele>378.4</ele>
        <time>2021-04-25T11:18:43Z</time>
      </trkpt>
      <trkpt lat="43.53694" lon="6.28918">
        <ele>377.3</ele>
        <time>2021-04-25T11:18:46Z</time>
      </trkpt>
      <trkpt lat="43.53694" lon="6.28919">
        <ele>378.4</ele>
        <time>2021-04-25T11:18:51Z</time>
      </trkpt>
      <trkpt lat="43.53695" lon="6.28926">
        <ele>378.2</ele>
        <time>2021-04-25T11:19:10Z</time>
      </trkpt>
      <trkpt lat="43.53696" lon="6.28926">
        <ele>378.3</ele>
        <time>2021-04-25T11:19:11Z</time>
      </trkpt>
      <trkpt lat="43.53704" lon="6.2892">
        <ele>380.2</ele>
        <time>2021-04-25T11:19:27Z</time>
      </trkpt>
      <trkpt lat="43.53712" lon="6.28926">
        <ele>380.7</ele>
        <time>2021-04-25T11:19:36Z</time>
      </trkpt>
      <trkpt lat="43.53721" lon="6.2893">
        <ele>380.8</ele>
        <time>2021-04-25T11:19:46Z</time>
      </trkpt>
      <trkpt lat="43.53729" lon="6.28937">
        <ele>381.4</ele>
        <time>2021-04-25T11:19:55Z</time>
      </trkpt>
      <trkpt lat="43.53736" lon="6.28944">
        <ele>381.7</ele>
        <time>2021-04-25T11:20:08Z</time>
      </trkpt>
      <trkpt lat="43.53745" lon="6.28943">
        <ele>382.2</ele>
        <time>2021-04-25T11:20:23Z</time>
      </trkpt>
      <trkpt lat="43.53736" lon="6.28937">
        <ele>383.7</ele>
        <time>2021-04-25T12:06:10Z</time>
      </trkpt>
      <trkpt lat="43.53733" lon="6.28931">
        <ele>383.2</ele>
        <time>2021-04-25T12:06:21Z</time>
      </trkpt>
      <trkpt lat="43.53733" lon="6.28931">
        <ele>383.2</ele>
        <time>2021-04-25T12:06:22Z</time>
      </trkpt>
      <trkpt lat="43.53725" lon="6.28923">
        <ele>383.1</ele>
        <time>2021-04-25T12:06:34Z</time>
      </trkpt>
      <trkpt lat="43.53718" lon="6.28915">
        <ele>382.4</ele>
        <time>2021-04-25T12:06:49Z</time>
      </trkpt>
      <trkpt lat="43.53707" lon="6.28917">
        <ele>381.3</ele>
        <time>2021-04-25T12:07:00Z</time>
      </trkpt>
      <trkpt lat="43.53698" lon="6.28922">
        <ele>380.1</ele>
        <time>2021-04-25T12:07:12Z</time>
      </trkpt>
      <trkpt lat="43.53688" lon="6.28921">
        <ele>379.6</ele>
        <time>2021-04-25T12:07:25Z</time>
      </trkpt>
      <trkpt lat="43.5368" lon="6.28928">
        <ele>378.5</ele>
        <time>2021-04-25T12:07:34Z</time>
      </trkpt>
      <trkpt lat="43.53671" lon="6.2893">
        <ele>377.2</ele>
        <time>2021-04-25T12:07:49Z</time>
      </trkpt>
      <trkpt lat="43.53666" lon="6.28941">
        <ele>375.1</ele>
        <time>2021-04-25T12:08:09Z</time>
      </trkpt>
      <trkpt lat="43.53668" lon="6.28953">
        <ele>373.8</ele>
        <time>2021-04-25T12:08:18Z</time>
      </trkpt>
      <trkpt lat="43.53672" lon="6.28965">
        <ele>375.1</ele>
        <time>2021-04-25T12:08:28Z</time>
      </trkpt>
      <trkpt lat="43.53675" lon="6.28978">
        <ele>373.1</ele>
        <time>2021-04-25T12:08:39Z</time>
      </trkpt>
      <trkpt lat="43.53679" lon="6.2899">
        <ele>373</ele>
        <time>2021-04-25T12:08:49Z</time>
      </trkpt>
      <trkpt lat="43.53683" lon="6.29003">
        <ele>373</ele>
        <time>2021-04-25T12:08:59Z</time>
      </trkpt>
      <trkpt lat="43.53685" lon="6.29016">
        <ele>373.1</ele>
        <time>2021-04-25T12:09:09Z</time>
      </trkpt>
      <trkpt lat="43.53688" lon="6.29029">
        <ele>373.8</ele>
        <time>2021-04-25T12:09:22Z</time>
      </trkpt>
      <trkpt lat="43.53688" lon="6.29033">
        <ele>374.1</ele>
        <time>2021-04-25T12:09:32Z</time>
      </trkpt>
      <trkpt lat="43.53688" lon="6.29033">
        <ele>374.1</ele>
        <time>2021-04-25T12:09:34Z</time>
      </trkpt>
      <trkpt lat="43.53688" lon="6.29033">
        <ele>373.8</ele>
        <time>2021-04-25T12:09:36Z</time>
      </trkpt>
      <trkpt lat="43.53688" lon="6.29033">
        <ele>373.7</ele>
        <time>2021-04-25T12:09:43Z</time>
      </trkpt>
      <trkpt lat="43.53687" lon="6.29034">
        <ele>373.4</ele>
        <time>2021-04-25T12:09:50Z</time>
      </trkpt>
      <trkpt lat="43.53688" lon="6.29034">
        <ele>373.6</ele>
        <time>2021-04-25T12:09:56Z</time>
      </trkpt>
      <trkpt lat="43.53688" lon="6.29034">
        <ele>373.5</ele>
        <time>2021-04-25T12:09:57Z</time>
      </trkpt>
      <trkpt lat="43.53688" lon="6.29034">
        <ele>373.5</ele>
        <time>2021-04-25T12:10:00Z</time>
      </trkpt>
      <trkpt lat="43.53688" lon="6.29034">
        <ele>373.3</ele>
        <time>2021-04-25T12:10:01Z</time>
      </trkpt>
      <trkpt lat="43.53687" lon="6.29034">
        <ele>373.4</ele>
        <time>2021-04-25T12:10:04Z</time>
      </trkpt>
      <trkpt lat="43.53687" lon="6.29033">
        <ele>373.4</ele>
        <time>2021-04-25T12:10:06Z</time>
      </trkpt>
      <trkpt lat="43.53687" lon="6.29033">
        <ele>373.5</ele>
        <time>2021-04-25T12:10:23Z</time>
      </trkpt>
      <trkpt lat="43.53686" lon="6.29033">
        <ele>373.4</ele>
        <time>2021-04-25T12:10:25Z</time>
      </trkpt>
      <trkpt lat="43.53686" lon="6.29033">
        <ele>373.6</ele>
        <time>2021-04-25T12:10:28Z</time>
      </trkpt>
      <trkpt lat="43.53686" lon="6.29033">
        <ele>373.7</ele>
        <time>2021-04-25T12:10:29Z</time>
      </trkpt>
      <trkpt lat="43.53686" lon="6.29033">
        <ele>373.8</ele>
        <time>2021-04-25T12:10:30Z</time>
      </trkpt>
      <trkpt lat="43.53686" lon="6.29033">
        <ele>373.5</ele>
        <time>2021-04-25T12:10:32Z</time>
      </trkpt>
      <trkpt lat="43.53686" lon="6.29033">
        <ele>373.7</ele>
        <time>2021-04-25T12:11:15Z</time>
      </trkpt>
      <trkpt lat="43.53686" lon="6.29033">
        <ele>373.7</ele>
        <time>2021-04-25T12:11:16Z</time>
      </trkpt>
      <trkpt lat="43.53686" lon="6.29033">
        <ele>373.9</ele>
        <time>2021-04-25T12:11:28Z</time>
      </trkpt>
      <trkpt lat="43.53686" lon="6.29033">
        <ele>373.9</ele>
        <time>2021-04-25T12:11:29Z</time>
      </trkpt>
      <trkpt lat="43.53686" lon="6.29033">
        <ele>373.8</ele>
        <time>2021-04-25T12:11:33Z</time>
      </trkpt>
      <trkpt lat="43.53686" lon="6.29033">
        <ele>374.1</ele>
        <time>2021-04-25T12:11:36Z</time>
      </trkpt>
      <trkpt lat="43.53686" lon="6.29034">
        <ele>374</ele>
        <time>2021-04-25T12:11:40Z</time>
      </trkpt>
      <trkpt lat="43.53686" lon="6.29034">
        <ele>373.9</ele>
        <time>2021-04-25T12:11:41Z</time>
      </trkpt>
      <trkpt lat="43.53686" lon="6.29034">
        <ele>373.9</ele>
        <time>2021-04-25T12:11:45Z</time>
      </trkpt>
      <trkpt lat="43.53686" lon="6.29034">
        <ele>374.1</ele>
        <time>2021-04-25T12:11:46Z</time>
      </trkpt>
      <trkpt lat="43.53686" lon="6.29034">
        <ele>373.8</ele>
        <time>2021-04-25T12:11:56Z</time>
      </trkpt>
      <trkpt lat="43.53686" lon="6.29034">
        <ele>373.8</ele>
        <time>2021-04-25T12:11:57Z</time>
      </trkpt>
      <trkpt lat="43.53686" lon="6.29034">
        <ele>373.8</ele>
        <time>2021-04-25T12:12:13Z</time>
      </trkpt>
      <trkpt lat="43.53686" lon="6.29034">
        <ele>373.8</ele>
        <time>2021-04-25T12:12:14Z</time>
      </trkpt>
      <trkpt lat="43.53687" lon="6.29034">
        <ele>374</ele>
        <time>2021-04-25T12:12:31Z</time>
      </trkpt>
      <trkpt lat="43.53685" lon="6.29036">
        <ele>373.7</ele>
        <time>2021-04-25T12:12:38Z</time>
      </trkpt>
      <trkpt lat="43.53685" lon="6.29035">
        <ele>373.9</ele>
        <time>2021-04-25T12:12:44Z</time>
      </trkpt>
      <trkpt lat="43.53676" lon="6.29031">
        <ele>373.6</ele>
        <time>2021-04-25T12:12:51Z</time>
      </trkpt>
      <trkpt lat="43.53667" lon="6.29027">
        <ele>373.6</ele>
        <time>2021-04-25T12:12:58Z</time>
      </trkpt>
      <trkpt lat="43.53658" lon="6.29028">
        <ele>373.3</ele>
        <time>2021-04-25T12:13:09Z</time>
      </trkpt>
      <trkpt lat="43.53648" lon="6.29026">
        <ele>372.9</ele>
        <time>2021-04-25T12:13:19Z</time>
      </trkpt>
      <trkpt lat="43.53638" lon="6.29025">
        <ele>372.4</ele>
        <time>2021-04-25T12:13:26Z</time>
      </trkpt>
      <trkpt lat="43.53629" lon="6.29023">
        <ele>372.2</ele>
        <time>2021-04-25T12:13:33Z</time>
      </trkpt>
      <trkpt lat="43.5362" lon="6.29022">
        <ele>371.7</ele>
        <time>2021-04-25T12:13:41Z</time>
      </trkpt>
      <trkpt lat="43.53611" lon="6.29022">
        <ele>371.1</ele>
        <time>2021-04-25T12:13:49Z</time>
      </trkpt>
      <trkpt lat="43.53602" lon="6.29021">
        <ele>370.7</ele>
        <time>2021-04-25T12:13:56Z</time>
      </trkpt>
      <trkpt lat="43.53592" lon="6.2902">
        <ele>370.2</ele>
        <time>2021-04-25T12:14:05Z</time>
      </trkpt>
      <trkpt lat="43.53583" lon="6.29018">
        <ele>369.9</ele>
        <time>2021-04-25T12:14:13Z</time>
      </trkpt>
      <trkpt lat="43.53574" lon="6.29013">
        <ele>369.2</ele>
        <time>2021-04-25T12:14:22Z</time>
      </trkpt>
      <trkpt lat="43.53565" lon="6.2901">
        <ele>368.6</ele>
        <time>2021-04-25T12:14:30Z</time>
      </trkpt>
      <trkpt lat="43.53556" lon="6.29007">
        <ele>367.7</ele>
        <time>2021-04-25T12:14:38Z</time>
      </trkpt>
      <trkpt lat="43.53547" lon="6.29003">
        <ele>366.5</ele>
        <time>2021-04-25T12:14:47Z</time>
      </trkpt>
      <trkpt lat="43.53538" lon="6.29004">
        <ele>366.6</ele>
        <time>2021-04-25T12:14:55Z</time>
      </trkpt>
      <trkpt lat="43.53528" lon="6.29002">
        <ele>366</ele>
        <time>2021-04-25T12:15:05Z</time>
      </trkpt>
      <trkpt lat="43.53518" lon="6.29">
        <ele>365.5</ele>
        <time>2021-04-25T12:15:14Z</time>
      </trkpt>
      <trkpt lat="43.53509" lon="6.28998">
        <ele>364.9</ele>
        <time>2021-04-25T12:15:22Z</time>
      </trkpt>
      <trkpt lat="43.535" lon="6.28996">
        <ele>364.4</ele>
        <time>2021-04-25T12:15:31Z</time>
      </trkpt>
      <trkpt lat="43.5349" lon="6.28995">
        <ele>363.9</ele>
        <time>2021-04-25T12:15:39Z</time>
      </trkpt>
      <trkpt lat="43.5348" lon="6.28996">
        <ele>363.4</ele>
        <time>2021-04-25T12:15:47Z</time>
      </trkpt>
      <trkpt lat="43.53471" lon="6.28998">
        <ele>363.1</ele>
        <time>2021-04-25T12:15:56Z</time>
      </trkpt>
      <trkpt lat="43.53461" lon="6.28997">
        <ele>362.9</ele>
        <time>2021-04-25T12:16:03Z</time>
      </trkpt>
      <trkpt lat="43.53453" lon="6.29002">
        <ele>362.6</ele>
        <time>2021-04-25T12:16:12Z</time>
      </trkpt>
      <trkpt lat="43.53444" lon="6.29007">
        <ele>361.8</ele>
        <time>2021-04-25T12:16:22Z</time>
      </trkpt>
      <trkpt lat="43.53435" lon="6.29012">
        <ele>361.6</ele>
        <time>2021-04-25T12:16:30Z</time>
      </trkpt>
      <trkpt lat="43.53426" lon="6.29017">
        <ele>361.6</ele>
        <time>2021-04-25T12:16:38Z</time>
      </trkpt>
      <trkpt lat="43.53417" lon="6.29019">
        <ele>361.3</ele>
        <time>2021-04-25T12:16:46Z</time>
      </trkpt>
      <trkpt lat="43.53408" lon="6.2902">
        <ele>361.5</ele>
        <time>2021-04-25T12:16:54Z</time>
      </trkpt>
      <trkpt lat="43.53398" lon="6.29021">
        <ele>361.9</ele>
        <time>2021-04-25T12:17:02Z</time>
      </trkpt>
      <trkpt lat="43.53389" lon="6.29024">
        <ele>361.7</ele>
        <time>2021-04-25T12:17:10Z</time>
      </trkpt>
      <trkpt lat="43.5338" lon="6.29023">
        <ele>361.5</ele>
        <time>2021-04-25T12:17:19Z</time>
      </trkpt>
      <trkpt lat="43.53371" lon="6.29028">
        <ele>361.4</ele>
        <time>2021-04-25T12:17:27Z</time>
      </trkpt>
      <trkpt lat="43.53362" lon="6.2903">
        <ele>361.4</ele>
        <time>2021-04-25T12:17:34Z</time>
      </trkpt>
      <trkpt lat="43.53352" lon="6.29031">
        <ele>361.5</ele>
        <time>2021-04-25T12:17:42Z</time>
      </trkpt>
      <trkpt lat="43.53343" lon="6.29035">
        <ele>361.4</ele>
        <time>2021-04-25T12:17:50Z</time>
      </trkpt>
      <trkpt lat="43.53336" lon="6.29045">
        <ele>361.1</ele>
        <time>2021-04-25T12:17:59Z</time>
      </trkpt>
      <trkpt lat="43.53327" lon="6.2905">
        <ele>361</ele>
        <time>2021-04-25T12:18:06Z</time>
      </trkpt>
      <trkpt lat="43.53318" lon="6.29056">
        <ele>360.3</ele>
        <time>2021-04-25T12:18:15Z</time>
      </trkpt>
      <trkpt lat="43.53309" lon="6.29062">
        <ele>360.1</ele>
        <time>2021-04-25T12:18:23Z</time>
      </trkpt>
      <trkpt lat="43.53301" lon="6.29068">
        <ele>359.6</ele>
        <time>2021-04-25T12:18:30Z</time>
      </trkpt>
      <trkpt lat="43.53293" lon="6.29073">
        <ele>359.5</ele>
        <time>2021-04-25T12:18:36Z</time>
      </trkpt>
      <trkpt lat="43.53284" lon="6.29077">
        <ele>359.7</ele>
        <time>2021-04-25T12:18:44Z</time>
      </trkpt>
      <trkpt lat="43.53275" lon="6.29081">
        <ele>359.5</ele>
        <time>2021-04-25T12:18:52Z</time>
      </trkpt>
      <trkpt lat="43.53266" lon="6.29086">
        <ele>359.1</ele>
        <time>2021-04-25T12:19:00Z</time>
      </trkpt>
      <trkpt lat="43.53256" lon="6.29092">
        <ele>359</ele>
        <time>2021-04-25T12:19:08Z</time>
      </trkpt>
      <trkpt lat="43.53248" lon="6.29101">
        <ele>358.7</ele>
        <time>2021-04-25T12:19:17Z</time>
      </trkpt>
      <trkpt lat="43.53241" lon="6.29109">
        <ele>358.3</ele>
        <time>2021-04-25T12:19:27Z</time>
      </trkpt>
      <trkpt lat="43.53233" lon="6.29116">
        <ele>358.2</ele>
        <time>2021-04-25T12:19:34Z</time>
      </trkpt>
      <trkpt lat="43.53225" lon="6.29124">
        <ele>358</ele>
        <time>2021-04-25T12:19:42Z</time>
      </trkpt>
      <trkpt lat="43.53217" lon="6.2913">
        <ele>358.2</ele>
        <time>2021-04-25T12:19:50Z</time>
      </trkpt>
      <trkpt lat="43.53209" lon="6.29138">
        <ele>357.7</ele>
        <time>2021-04-25T12:19:59Z</time>
      </trkpt>
      <trkpt lat="43.53202" lon="6.29146">
        <ele>356.7</ele>
        <time>2021-04-25T12:20:07Z</time>
      </trkpt>
      <trkpt lat="43.53195" lon="6.29155">
        <ele>356.4</ele>
        <time>2021-04-25T12:20:14Z</time>
      </trkpt>
      <trkpt lat="43.53188" lon="6.29162">
        <ele>356.5</ele>
        <time>2021-04-25T12:20:28Z</time>
      </trkpt>
      <trkpt lat="43.53188" lon="6.29162">
        <ele>356.2</ele>
        <time>2021-04-25T12:20:31Z</time>
      </trkpt>
      <trkpt lat="43.53188" lon="6.29162">
        <ele>356.2</ele>
        <time>2021-04-25T12:20:33Z</time>
      </trkpt>
      <trkpt lat="43.53188" lon="6.29163">
        <ele>355.9</ele>
        <time>2021-04-25T12:20:35Z</time>
      </trkpt>
      <trkpt lat="43.53189" lon="6.29164">
        <ele>355.5</ele>
        <time>2021-04-25T12:20:39Z</time>
      </trkpt>
      <trkpt lat="43.53189" lon="6.29165">
        <ele>355.4</ele>
        <time>2021-04-25T12:20:44Z</time>
      </trkpt>
      <trkpt lat="43.53192" lon="6.29166">
        <ele>355.7</ele>
        <time>2021-04-25T12:20:47Z</time>
      </trkpt>
      <trkpt lat="43.53192" lon="6.29166">
        <ele>355.5</ele>
        <time>2021-04-25T12:20:50Z</time>
      </trkpt>
      <trkpt lat="43.53192" lon="6.29166">
        <ele>355.7</ele>
        <time>2021-04-25T12:20:51Z</time>
      </trkpt>
      <trkpt lat="43.53192" lon="6.29166">
        <ele>355.5</ele>
        <time>2021-04-25T12:20:57Z</time>
      </trkpt>
      <trkpt lat="43.53193" lon="6.29167">
        <ele>355.5</ele>
        <time>2021-04-25T12:20:59Z</time>
      </trkpt>
      <trkpt lat="43.53193" lon="6.29167">
        <ele>355.4</ele>
        <time>2021-04-25T12:21:16Z</time>
      </trkpt>
      <trkpt lat="43.53193" lon="6.29167">
        <ele>355.6</ele>
        <time>2021-04-25T12:21:17Z</time>
      </trkpt>
      <trkpt lat="43.53193" lon="6.29167">
        <ele>355.6</ele>
        <time>2021-04-25T12:21:18Z</time>
      </trkpt>
      <trkpt lat="43.53193" lon="6.29168">
        <ele>355.5</ele>
        <time>2021-04-25T12:21:20Z</time>
      </trkpt>
      <trkpt lat="43.53193" lon="6.29169">
        <ele>355.6</ele>
        <time>2021-04-25T12:21:23Z</time>
      </trkpt>
      <trkpt lat="43.53193" lon="6.29169">
        <ele>355.5</ele>
        <time>2021-04-25T12:21:24Z</time>
      </trkpt>
      <trkpt lat="43.53193" lon="6.29169">
        <ele>355.3</ele>
        <time>2021-04-25T12:21:38Z</time>
      </trkpt>
      <trkpt lat="43.53193" lon="6.29169">
        <ele>355.3</ele>
        <time>2021-04-25T12:21:39Z</time>
      </trkpt>
      <trkpt lat="43.53193" lon="6.29169">
        <ele>355.3</ele>
        <time>2021-04-25T12:21:56Z</time>
      </trkpt>
      <trkpt lat="43.53193" lon="6.29169">
        <ele>355.4</ele>
        <time>2021-04-25T12:21:57Z</time>
      </trkpt>
      <trkpt lat="43.53193" lon="6.29169">
        <ele>355.2</ele>
        <time>2021-04-25T12:22:03Z</time>
      </trkpt>
      <trkpt lat="43.53189" lon="6.29181">
        <ele>354.9</ele>
        <time>2021-04-25T12:22:12Z</time>
      </trkpt>
      <trkpt lat="43.53184" lon="6.29194">
        <ele>354.4</ele>
        <time>2021-04-25T12:22:20Z</time>
      </trkpt>
      <trkpt lat="43.5318" lon="6.29206">
        <ele>353.9</ele>
        <time>2021-04-25T12:22:28Z</time>
      </trkpt>
      <trkpt lat="43.53176" lon="6.29218">
        <ele>353.4</ele>
        <time>2021-04-25T12:22:39Z</time>
      </trkpt>
      <trkpt lat="43.53174" lon="6.29231">
        <ele>352.8</ele>
        <time>2021-04-25T12:22:47Z</time>
      </trkpt>
      <trkpt lat="43.5317" lon="6.29243">
        <ele>352.1</ele>
        <time>2021-04-25T12:22:55Z</time>
      </trkpt>
      <trkpt lat="43.53168" lon="6.29256">
        <ele>351.8</ele>
        <time>2021-04-25T12:23:03Z</time>
      </trkpt>
      <trkpt lat="43.53166" lon="6.29268">
        <ele>351.3</ele>
        <time>2021-04-25T12:23:11Z</time>
      </trkpt>
      <trkpt lat="43.53163" lon="6.29281">
        <ele>351.1</ele>
        <time>2021-04-25T12:23:20Z</time>
      </trkpt>
      <trkpt lat="43.53158" lon="6.29292">
        <ele>350.5</ele>
        <time>2021-04-25T12:23:29Z</time>
      </trkpt>
      <trkpt lat="43.53155" lon="6.29305">
        <ele>350.2</ele>
        <time>2021-04-25T12:23:37Z</time>
      </trkpt>
      <trkpt lat="43.53155" lon="6.29317">
        <ele>349.6</ele>
        <time>2021-04-25T12:23:45Z</time>
      </trkpt>
      <trkpt lat="43.53158" lon="6.29331">
        <ele>350</ele>
        <time>2021-04-25T12:23:51Z</time>
      </trkpt>
      <trkpt lat="43.53159" lon="6.29344">
        <ele>349.7</ele>
        <time>2021-04-25T12:24:00Z</time>
      </trkpt>
      <trkpt lat="43.53159" lon="6.29356">
        <ele>349.8</ele>
        <time>2021-04-25T12:24:09Z</time>
      </trkpt>
      <trkpt lat="43.53161" lon="6.29369">
        <ele>349.9</ele>
        <time>2021-04-25T12:24:17Z</time>
      </trkpt>
      <trkpt lat="43.53163" lon="6.29382">
        <ele>349.6</ele>
        <time>2021-04-25T12:24:26Z</time>
      </trkpt>
      <trkpt lat="43.53165" lon="6.29395">
        <ele>349.7</ele>
        <time>2021-04-25T12:24:33Z</time>
      </trkpt>
      <trkpt lat="43.53168" lon="6.29407">
        <ele>349.4</ele>
        <time>2021-04-25T12:24:40Z</time>
      </trkpt>
      <trkpt lat="43.5317" lon="6.29419">
        <ele>349.7</ele>
        <time>2021-04-25T12:24:49Z</time>
      </trkpt>
      <trkpt lat="43.53173" lon="6.29432">
        <ele>349.9</ele>
        <time>2021-04-25T12:24:57Z</time>
      </trkpt>
      <trkpt lat="43.53176" lon="6.29445">
        <ele>350.3</ele>
        <time>2021-04-25T12:25:05Z</time>
      </trkpt>
      <trkpt lat="43.53177" lon="6.29458">
        <ele>350.1</ele>
        <time>2021-04-25T12:25:15Z</time>
      </trkpt>
      <trkpt lat="43.5318" lon="6.2947">
        <ele>349.4</ele>
        <time>2021-04-25T12:25:23Z</time>
      </trkpt>
      <trkpt lat="43.53182" lon="6.29483">
        <ele>349.7</ele>
        <time>2021-04-25T12:25:30Z</time>
      </trkpt>
      <trkpt lat="43.53184" lon="6.29495">
        <ele>349.3</ele>
        <time>2021-04-25T12:25:38Z</time>
      </trkpt>
      <trkpt lat="43.53188" lon="6.29509">
        <ele>349.2</ele>
        <time>2021-04-25T12:25:47Z</time>
      </trkpt>
      <trkpt lat="43.53193" lon="6.29521">
        <ele>349.2</ele>
        <time>2021-04-25T12:25:56Z</time>
      </trkpt>
      <trkpt lat="43.53198" lon="6.29533">
        <ele>349.4</ele>
        <time>2021-04-25T12:26:03Z</time>
      </trkpt>
      <trkpt lat="43.53202" lon="6.29545">
        <ele>349.3</ele>
        <time>2021-04-25T12:26:10Z</time>
      </trkpt>
      <trkpt lat="43.53207" lon="6.29557">
        <ele>349.5</ele>
        <time>2021-04-25T12:26:20Z</time>
      </trkpt>
      <trkpt lat="43.5321" lon="6.2957">
        <ele>348.7</ele>
        <time>2021-04-25T12:26:28Z</time>
      </trkpt>
      <trkpt lat="43.53214" lon="6.29584">
        <ele>348.6</ele>
        <time>2021-04-25T12:26:37Z</time>
      </trkpt>
      <trkpt lat="43.53218" lon="6.29597">
        <ele>348</ele>
        <time>2021-04-25T12:26:45Z</time>
      </trkpt>
      <trkpt lat="43.53222" lon="6.29609">
        <ele>347.2</ele>
        <time>2021-04-25T12:26:55Z</time>
      </trkpt>
      <trkpt lat="43.53226" lon="6.2962">
        <ele>347.5</ele>
        <time>2021-04-25T12:27:02Z</time>
      </trkpt>
      <trkpt lat="43.53232" lon="6.2963">
        <ele>347.9</ele>
        <time>2021-04-25T12:27:11Z</time>
      </trkpt>
      <trkpt lat="43.53235" lon="6.29643">
        <ele>347.8</ele>
        <time>2021-04-25T12:27:21Z</time>
      </trkpt>
      <trkpt lat="43.53233" lon="6.29655">
        <ele>347.8</ele>
        <time>2021-04-25T12:27:31Z</time>
      </trkpt>
      <trkpt lat="43.5323" lon="6.29669">
        <ele>347.8</ele>
        <time>2021-04-25T12:27:39Z</time>
      </trkpt>
      <trkpt lat="43.53229" lon="6.29681">
        <ele>347.3</ele>
        <time>2021-04-25T12:27:46Z</time>
      </trkpt>
      <trkpt lat="43.53228" lon="6.29695">
        <ele>347</ele>
        <time>2021-04-25T12:27:56Z</time>
      </trkpt>
      <trkpt lat="43.53226" lon="6.29708">
        <ele>346.7</ele>
        <time>2021-04-25T12:28:03Z</time>
      </trkpt>
      <trkpt lat="43.53224" lon="6.29722">
        <ele>346.3</ele>
        <time>2021-04-25T12:28:11Z</time>
      </trkpt>
      <trkpt lat="43.53221" lon="6.29735">
        <ele>346.2</ele>
        <time>2021-04-25T12:28:20Z</time>
      </trkpt>
      <trkpt lat="43.53221" lon="6.2975">
        <ele>346.3</ele>
        <time>2021-04-25T12:28:29Z</time>
      </trkpt>
      <trkpt lat="43.53221" lon="6.29763">
        <ele>346.6</ele>
        <time>2021-04-25T12:28:38Z</time>
      </trkpt>
      <trkpt lat="43.53218" lon="6.29776">
        <ele>346.6</ele>
        <time>2021-04-25T12:28:46Z</time>
      </trkpt>
      <trkpt lat="43.53218" lon="6.2979">
        <ele>346.7</ele>
        <time>2021-04-25T12:28:56Z</time>
      </trkpt>
      <trkpt lat="43.53216" lon="6.29804">
        <ele>346.7</ele>
        <time>2021-04-25T12:29:04Z</time>
      </trkpt>
      <trkpt lat="43.53214" lon="6.29817">
        <ele>346.8</ele>
        <time>2021-04-25T12:29:12Z</time>
      </trkpt>
      <trkpt lat="43.53213" lon="6.29829">
        <ele>346.6</ele>
        <time>2021-04-25T12:29:20Z</time>
      </trkpt>
      <trkpt lat="43.53213" lon="6.29842">
        <ele>346.4</ele>
        <time>2021-04-25T12:29:28Z</time>
      </trkpt>
      <trkpt lat="43.53213" lon="6.29857">
        <ele>346.4</ele>
        <time>2021-04-25T12:29:36Z</time>
      </trkpt>
      <trkpt lat="43.53211" lon="6.2987">
        <ele>346.6</ele>
        <time>2021-04-25T12:29:43Z</time>
      </trkpt>
      <trkpt lat="43.53208" lon="6.29882">
        <ele>346.4</ele>
        <time>2021-04-25T12:29:51Z</time>
      </trkpt>
      <trkpt lat="43.53205" lon="6.29895">
        <ele>346.7</ele>
        <time>2021-04-25T12:30:00Z</time>
      </trkpt>
      <trkpt lat="43.53201" lon="6.29907">
        <ele>347</ele>
        <time>2021-04-25T12:30:09Z</time>
      </trkpt>
      <trkpt lat="43.53196" lon="6.29919">
        <ele>347.3</ele>
        <time>2021-04-25T12:30:18Z</time>
      </trkpt>
      <trkpt lat="43.53189" lon="6.29927">
        <ele>346.7</ele>
        <time>2021-04-25T12:30:25Z</time>
      </trkpt>
      <trkpt lat="43.53181" lon="6.29936">
        <ele>346.2</ele>
        <time>2021-04-25T12:30:32Z</time>
      </trkpt>
      <trkpt lat="43.53174" lon="6.29945">
        <ele>345.7</ele>
        <time>2021-04-25T12:30:40Z</time>
      </trkpt>
      <trkpt lat="43.53168" lon="6.29954">
        <ele>345.8</ele>
        <time>2021-04-25T12:30:49Z</time>
      </trkpt>
      <trkpt lat="43.53162" lon="6.29964">
        <ele>346.2</ele>
        <time>2021-04-25T12:30:58Z</time>
      </trkpt>
      <trkpt lat="43.53154" lon="6.29972">
        <ele>346</ele>
        <time>2021-04-25T12:31:07Z</time>
      </trkpt>
      <trkpt lat="43.53147" lon="6.2998">
        <ele>346</ele>
        <time>2021-04-25T12:31:17Z</time>
      </trkpt>
      <trkpt lat="43.53141" lon="6.2999">
        <ele>345.7</ele>
        <time>2021-04-25T12:31:27Z</time>
      </trkpt>
      <trkpt lat="43.53139" lon="6.29999">
        <ele>345.7</ele>
        <time>2021-04-25T12:31:37Z</time>
      </trkpt>
      <trkpt lat="43.53138" lon="6.29999">
        <ele>345.6</ele>
        <time>2021-04-25T12:31:39Z</time>
      </trkpt>
      <trkpt lat="43.53137" lon="6.30008">
        <ele>344.2</ele>
        <time>2021-04-25T12:31:48Z</time>
      </trkpt>
      <trkpt lat="43.53137" lon="6.30009">
        <ele>346.4</ele>
        <time>2021-04-25T12:32:00Z</time>
      </trkpt>
      <trkpt lat="43.53134" lon="6.30012">
        <ele>344.8</ele>
        <time>2021-04-25T12:32:06Z</time>
      </trkpt>
      <trkpt lat="43.53134" lon="6.30013">
        <ele>344.2</ele>
        <time>2021-04-25T12:32:08Z</time>
      </trkpt>
      <trkpt lat="43.53126" lon="6.3002">
        <ele>343.2</ele>
        <time>2021-04-25T12:32:19Z</time>
      </trkpt>
      <trkpt lat="43.53117" lon="6.30022">
        <ele>341.7</ele>
        <time>2021-04-25T12:32:34Z</time>
      </trkpt>
      <trkpt lat="43.53108" lon="6.30026">
        <ele>340</ele>
        <time>2021-04-25T12:32:52Z</time>
      </trkpt>
      <trkpt lat="43.53105" lon="6.30028">
        <ele>340.2</ele>
        <time>2021-04-25T12:33:05Z</time>
      </trkpt>
      <trkpt lat="43.53105" lon="6.30029">
        <ele>340.2</ele>
        <time>2021-04-25T12:33:06Z</time>
      </trkpt>
      <trkpt lat="43.53105" lon="6.30029">
        <ele>340.2</ele>
        <time>2021-04-25T12:33:07Z</time>
      </trkpt>
      <trkpt lat="43.53105" lon="6.30029">
        <ele>340.3</ele>
        <time>2021-04-25T12:33:09Z</time>
      </trkpt>
      <trkpt lat="43.53105" lon="6.30031">
        <ele>339.9</ele>
        <time>2021-04-25T12:33:12Z</time>
      </trkpt>
      <trkpt lat="43.53105" lon="6.30031">
        <ele>339.9</ele>
        <time>2021-04-25T12:33:13Z</time>
      </trkpt>
      <trkpt lat="43.53105" lon="6.30031">
        <ele>339.9</ele>
        <time>2021-04-25T12:33:14Z</time>
      </trkpt>
      <trkpt lat="43.53105" lon="6.30031">
        <ele>339.9</ele>
        <time>2021-04-25T12:33:15Z</time>
      </trkpt>
      <trkpt lat="43.53105" lon="6.30031">
        <ele>339.6</ele>
        <time>2021-04-25T12:33:19Z</time>
      </trkpt>
      <trkpt lat="43.53105" lon="6.30031">
        <ele>339.7</ele>
        <time>2021-04-25T12:33:21Z</time>
      </trkpt>
      <trkpt lat="43.53096" lon="6.30035">
        <ele>339.3</ele>
        <time>2021-04-25T12:33:37Z</time>
      </trkpt>
      <trkpt lat="43.53094" lon="6.30039">
        <ele>337.7</ele>
        <time>2021-04-25T12:33:44Z</time>
      </trkpt>
      <trkpt lat="43.53094" lon="6.30039">
        <ele>338.7</ele>
        <time>2021-04-25T12:33:50Z</time>
      </trkpt>
      <trkpt lat="43.53099" lon="6.30047">
        <ele>337.7</ele>
        <time>2021-04-25T12:34:05Z</time>
      </trkpt>
      <trkpt lat="43.53099" lon="6.30047">
        <ele>337.7</ele>
        <time>2021-04-25T12:34:09Z</time>
      </trkpt>
      <trkpt lat="43.53101" lon="6.30045">
        <ele>337.5</ele>
        <time>2021-04-25T12:34:17Z</time>
      </trkpt>
      <trkpt lat="43.53101" lon="6.30044">
        <ele>337.5</ele>
        <time>2021-04-25T12:34:21Z</time>
      </trkpt>
      <trkpt lat="43.53101" lon="6.30044">
        <ele>337.5</ele>
        <time>2021-04-25T12:34:22Z</time>
      </trkpt>
      <trkpt lat="43.53101" lon="6.30044">
        <ele>337.6</ele>
        <time>2021-04-25T12:34:25Z</time>
      </trkpt>
      <trkpt lat="43.53101" lon="6.30044">
        <ele>337.6</ele>
        <time>2021-04-25T12:34:26Z</time>
      </trkpt>
      <trkpt lat="43.53101" lon="6.30044">
        <ele>337.7</ele>
        <time>2021-04-25T12:34:27Z</time>
      </trkpt>
      <trkpt lat="43.53101" lon="6.30044">
        <ele>337.6</ele>
        <time>2021-04-25T12:34:28Z</time>
      </trkpt>
      <trkpt lat="43.53101" lon="6.30044">
        <ele>337.5</ele>
        <time>2021-04-25T12:34:30Z</time>
      </trkpt>
      <trkpt lat="43.531" lon="6.30044">
        <ele>337.5</ele>
        <time>2021-04-25T12:34:34Z</time>
      </trkpt>
      <trkpt lat="43.531" lon="6.30044">
        <ele>337.4</ele>
        <time>2021-04-25T12:34:35Z</time>
      </trkpt>
      <trkpt lat="43.531" lon="6.30044">
        <ele>337.3</ele>
        <time>2021-04-25T12:34:36Z</time>
      </trkpt>
      <trkpt lat="43.531" lon="6.30044">
        <ele>337.3</ele>
        <time>2021-04-25T12:34:37Z</time>
      </trkpt>
      <trkpt lat="43.531" lon="6.30044">
        <ele>337.3</ele>
        <time>2021-04-25T12:34:41Z</time>
      </trkpt>
      <trkpt lat="43.53099" lon="6.30044">
        <ele>337.4</ele>
        <time>2021-04-25T12:34:42Z</time>
      </trkpt>
      <trkpt lat="43.531" lon="6.30044">
        <ele>337.3</ele>
        <time>2021-04-25T12:34:45Z</time>
      </trkpt>
      <trkpt lat="43.531" lon="6.30043">
        <ele>337.4</ele>
        <time>2021-04-25T12:34:46Z</time>
      </trkpt>
      <trkpt lat="43.531" lon="6.30043">
        <ele>337.6</ele>
        <time>2021-04-25T12:34:48Z</time>
      </trkpt>
      <trkpt lat="43.531" lon="6.30042">
        <ele>337.4</ele>
        <time>2021-04-25T12:34:49Z</time>
      </trkpt>
      <trkpt lat="43.531" lon="6.30042">
        <ele>337.3</ele>
        <time>2021-04-25T12:34:50Z</time>
      </trkpt>
      <trkpt lat="43.53099" lon="6.30042">
        <ele>337.6</ele>
        <time>2021-04-25T12:34:59Z</time>
      </trkpt>
      <trkpt lat="43.53098" lon="6.30042">
        <ele>338.3</ele>
        <time>2021-04-25T12:35:07Z</time>
      </trkpt>
      <trkpt lat="43.53098" lon="6.30042">
        <ele>338.6</ele>
        <time>2021-04-25T12:35:17Z</time>
      </trkpt>
      <trkpt lat="43.53098" lon="6.30042">
        <ele>338.6</ele>
        <time>2021-04-25T12:35:18Z</time>
      </trkpt>
      <trkpt lat="43.53098" lon="6.30043">
        <ele>338.3</ele>
        <time>2021-04-25T12:35:27Z</time>
      </trkpt>
      <trkpt lat="43.53097" lon="6.30043">
        <ele>337.9</ele>
        <time>2021-04-25T12:35:33Z</time>
      </trkpt>
      <trkpt lat="43.53097" lon="6.30043">
        <ele>337.9</ele>
        <time>2021-04-25T12:35:37Z</time>
      </trkpt>
      <trkpt lat="43.53099" lon="6.30043">
        <ele>337.7</ele>
        <time>2021-04-25T12:35:45Z</time>
      </trkpt>
      <trkpt lat="43.531" lon="6.30043">
        <ele>337.8</ele>
        <time>2021-04-25T12:35:47Z</time>
      </trkpt>
      <trkpt lat="43.531" lon="6.30043">
        <ele>337.7</ele>
        <time>2021-04-25T12:35:48Z</time>
      </trkpt>
      <trkpt lat="43.53099" lon="6.30043">
        <ele>337.7</ele>
        <time>2021-04-25T12:35:49Z</time>
      </trkpt>
      <trkpt lat="43.53099" lon="6.30043">
        <ele>337.6</ele>
        <time>2021-04-25T12:35:50Z</time>
      </trkpt>
      <trkpt lat="43.53099" lon="6.30043">
        <ele>337.5</ele>
        <time>2021-04-25T12:35:51Z</time>
      </trkpt>
      <trkpt lat="43.53105" lon="6.30054">
        <ele>337.5</ele>
        <time>2021-04-25T12:36:01Z</time>
      </trkpt>
      <trkpt lat="43.53111" lon="6.30063">
        <ele>337.2</ele>
        <time>2021-04-25T12:36:14Z</time>
      </trkpt>
      <trkpt lat="43.53114" lon="6.30076">
        <ele>337.2</ele>
        <time>2021-04-25T12:36:25Z</time>
      </trkpt>
      <trkpt lat="43.53116" lon="6.30088">
        <ele>336.8</ele>
        <time>2021-04-25T12:36:34Z</time>
      </trkpt>
      <trkpt lat="43.53123" lon="6.30097">
        <ele>336.6</ele>
        <time>2021-04-25T12:36:46Z</time>
      </trkpt>
      <trkpt lat="43.53131" lon="6.30105">
        <ele>337.5</ele>
        <time>2021-04-25T12:36:57Z</time>
      </trkpt>
      <trkpt lat="43.53133" lon="6.30119">
        <ele>339.3</ele>
        <time>2021-04-25T12:37:13Z</time>
      </trkpt>
      <trkpt lat="43.53134" lon="6.30132">
        <ele>340.4</ele>
        <time>2021-04-25T12:37:26Z</time>
      </trkpt>
      <trkpt lat="43.53137" lon="6.30145">
        <ele>341.2</ele>
        <time>2021-04-25T12:37:37Z</time>
      </trkpt>
      <trkpt lat="43.53133" lon="6.30156">
        <ele>342.9</ele>
        <time>2021-04-25T12:37:53Z</time>
      </trkpt>
      <trkpt lat="43.53126" lon="6.30166">
        <ele>344.1</ele>
        <time>2021-04-25T12:38:08Z</time>
      </trkpt>
      <trkpt lat="43.53119" lon="6.30173">
        <ele>345.7</ele>
        <time>2021-04-25T12:38:23Z</time>
      </trkpt>
      <trkpt lat="43.53114" lon="6.30184">
        <ele>347.2</ele>
        <time>2021-04-25T12:38:36Z</time>
      </trkpt>
      <trkpt lat="43.53112" lon="6.30197">
        <ele>347.8</ele>
        <time>2021-04-25T12:38:47Z</time>
      </trkpt>
      <trkpt lat="43.53108" lon="6.30208">
        <ele>348.4</ele>
        <time>2021-04-25T12:38:58Z</time>
      </trkpt>
      <trkpt lat="43.531" lon="6.30214">
        <ele>349.4</ele>
        <time>2021-04-25T12:39:10Z</time>
      </trkpt>
      <trkpt lat="43.5309" lon="6.30214">
        <ele>349.5</ele>
        <time>2021-04-25T12:39:20Z</time>
      </trkpt>
      <trkpt lat="43.53082" lon="6.30221">
        <ele>351</ele>
        <time>2021-04-25T12:39:33Z</time>
      </trkpt>
      <trkpt lat="43.53081" lon="6.30234">
        <ele>352.1</ele>
        <time>2021-04-25T12:39:43Z</time>
      </trkpt>
      <trkpt lat="43.5308" lon="6.30247">
        <ele>353</ele>
        <time>2021-04-25T12:39:54Z</time>
      </trkpt>
      <trkpt lat="43.5308" lon="6.30248">
        <ele>352.7</ele>
        <time>2021-04-25T12:39:57Z</time>
      </trkpt>
      <trkpt lat="43.5308" lon="6.30248">
        <ele>352.5</ele>
        <time>2021-04-25T12:39:59Z</time>
      </trkpt>
      <trkpt lat="43.5308" lon="6.30248">
        <ele>353.4</ele>
        <time>2021-04-25T12:40:00Z</time>
      </trkpt>
      <trkpt lat="43.5308" lon="6.30248">
        <ele>353.6</ele>
        <time>2021-04-25T12:40:01Z</time>
      </trkpt>
      <trkpt lat="43.5308" lon="6.30248">
        <ele>353.3</ele>
        <time>2021-04-25T12:40:02Z</time>
      </trkpt>
      <trkpt lat="43.5308" lon="6.30248">
        <ele>353.1</ele>
        <time>2021-04-25T12:40:06Z</time>
      </trkpt>
      <trkpt lat="43.5308" lon="6.30249">
        <ele>353.3</ele>
        <time>2021-04-25T12:40:08Z</time>
      </trkpt>
      <trkpt lat="43.53081" lon="6.30249">
        <ele>353.3</ele>
        <time>2021-04-25T12:40:12Z</time>
      </trkpt>
      <trkpt lat="43.53081" lon="6.3025">
        <ele>351.7</ele>
        <time>2021-04-25T12:40:22Z</time>
      </trkpt>
      <trkpt lat="43.5308" lon="6.3025">
        <ele>353.1</ele>
        <time>2021-04-25T12:40:23Z</time>
      </trkpt>
      <trkpt lat="43.53072" lon="6.30249">
        <ele>354.3</ele>
        <time>2021-04-25T12:40:38Z</time>
      </trkpt>
      <trkpt lat="43.53071" lon="6.30249">
        <ele>354.4</ele>
        <time>2021-04-25T12:40:39Z</time>
      </trkpt>
      <trkpt lat="43.53081" lon="6.30254">
        <ele>352.7</ele>
        <time>2021-04-25T12:40:53Z</time>
      </trkpt>
      <trkpt lat="43.53089" lon="6.30257">
        <ele>352</ele>
        <time>2021-04-25T12:41:02Z</time>
      </trkpt>
      <trkpt lat="43.53098" lon="6.30263">
        <ele>351</ele>
        <time>2021-04-25T12:41:11Z</time>
      </trkpt>
      <trkpt lat="43.53106" lon="6.30268">
        <ele>350.1</ele>
        <time>2021-04-25T12:41:19Z</time>
      </trkpt>
      <trkpt lat="43.53107" lon="6.30268">
        <ele>350.2</ele>
        <time>2021-04-25T12:41:22Z</time>
      </trkpt>
      <trkpt lat="43.53108" lon="6.30268">
        <ele>350.2</ele>
        <time>2021-04-25T12:41:33Z</time>
      </trkpt>
      <trkpt lat="43.53108" lon="6.30269">
        <ele>350.5</ele>
        <time>2021-04-25T12:41:35Z</time>
      </trkpt>
      <trkpt lat="43.53108" lon="6.30269">
        <ele>350.2</ele>
        <time>2021-04-25T12:42:08Z</time>
      </trkpt>
      <trkpt lat="43.53108" lon="6.30269">
        <ele>350.3</ele>
        <time>2021-04-25T12:42:09Z</time>
      </trkpt>
      <trkpt lat="43.53108" lon="6.30269">
        <ele>350.1</ele>
        <time>2021-04-25T12:42:20Z</time>
      </trkpt>
      <trkpt lat="43.53101" lon="6.30277">
        <ele>350</ele>
        <time>2021-04-25T12:42:34Z</time>
      </trkpt>
      <trkpt lat="43.53092" lon="6.30278">
        <ele>350.7</ele>
        <time>2021-04-25T12:42:45Z</time>
      </trkpt>
      <trkpt lat="43.53083" lon="6.30275">
        <ele>351.7</ele>
        <time>2021-04-25T12:42:55Z</time>
      </trkpt>
      <trkpt lat="43.53074" lon="6.30277">
        <ele>352.3</ele>
        <time>2021-04-25T12:43:05Z</time>
      </trkpt>
      <trkpt lat="43.53067" lon="6.30288">
        <ele>352.7</ele>
        <time>2021-04-25T12:43:15Z</time>
      </trkpt>
      <trkpt lat="43.53065" lon="6.303">
        <ele>352.9</ele>
        <time>2021-04-25T12:43:24Z</time>
      </trkpt>
      <trkpt lat="43.53065" lon="6.30314">
        <ele>353.1</ele>
        <time>2021-04-25T12:43:34Z</time>
      </trkpt>
      <trkpt lat="43.53065" lon="6.30327">
        <ele>353.4</ele>
        <time>2021-04-25T12:43:45Z</time>
      </trkpt>
      <trkpt lat="43.53065" lon="6.3034">
        <ele>353.5</ele>
        <time>2021-04-25T12:43:53Z</time>
      </trkpt>
      <trkpt lat="43.53067" lon="6.30352">
        <ele>353.2</ele>
        <time>2021-04-25T12:44:01Z</time>
      </trkpt>
      <trkpt lat="43.53067" lon="6.30366">
        <ele>353</ele>
        <time>2021-04-25T12:44:10Z</time>
      </trkpt>
      <trkpt lat="43.53069" lon="6.3038">
        <ele>352.6</ele>
        <time>2021-04-25T12:44:19Z</time>
      </trkpt>
      <trkpt lat="43.5307" lon="6.30392">
        <ele>352.6</ele>
        <time>2021-04-25T12:44:27Z</time>
      </trkpt>
      <trkpt lat="43.5307" lon="6.30405">
        <ele>353.2</ele>
        <time>2021-04-25T12:44:36Z</time>
      </trkpt>
      <trkpt lat="43.5307" lon="6.30418">
        <ele>353.1</ele>
        <time>2021-04-25T12:44:44Z</time>
      </trkpt>
      <trkpt lat="43.5307" lon="6.30431">
        <ele>353.5</ele>
        <time>2021-04-25T12:44:53Z</time>
      </trkpt>
      <trkpt lat="43.53071" lon="6.30444">
        <ele>353.8</ele>
        <time>2021-04-25T12:45:02Z</time>
      </trkpt>
      <trkpt lat="43.53071" lon="6.30457">
        <ele>354.3</ele>
        <time>2021-04-25T12:45:12Z</time>
      </trkpt>
      <trkpt lat="43.53072" lon="6.3047">
        <ele>354.1</ele>
        <time>2021-04-25T12:45:19Z</time>
      </trkpt>
      <trkpt lat="43.53069" lon="6.30482">
        <ele>354.7</ele>
        <time>2021-04-25T12:45:29Z</time>
      </trkpt>
      <trkpt lat="43.5306" lon="6.30486">
        <ele>355.9</ele>
        <time>2021-04-25T12:45:41Z</time>
      </trkpt>
      <trkpt lat="43.53068" lon="6.30495">
        <ele>356.1</ele>
        <time>2021-04-25T12:45:51Z</time>
      </trkpt>
      <trkpt lat="43.53075" lon="6.30502">
        <ele>353.7</ele>
        <time>2021-04-25T12:46:01Z</time>
      </trkpt>
      <trkpt lat="43.53083" lon="6.3051">
        <ele>355.7</ele>
        <time>2021-04-25T12:46:10Z</time>
      </trkpt>
      <trkpt lat="43.53092" lon="6.30516">
        <ele>355.6</ele>
        <time>2021-04-25T12:46:20Z</time>
      </trkpt>
      <trkpt lat="43.531" lon="6.30523">
        <ele>355.2</ele>
        <time>2021-04-25T12:46:33Z</time>
      </trkpt>
      <trkpt lat="43.53103" lon="6.30529">
        <ele>355.2</ele>
        <time>2021-04-25T12:46:41Z</time>
      </trkpt>
      <trkpt lat="43.53103" lon="6.30529">
        <ele>356.5</ele>
        <time>2021-04-25T12:46:51Z</time>
      </trkpt>
      <trkpt lat="43.53104" lon="6.3053">
        <ele>355</ele>
        <time>2021-04-25T12:46:54Z</time>
      </trkpt>
      <trkpt lat="43.53104" lon="6.3053">
        <ele>354.6</ele>
        <time>2021-04-25T12:47:18Z</time>
      </trkpt>
      <trkpt lat="43.53113" lon="6.30536">
        <ele>354.4</ele>
        <time>2021-04-25T12:47:30Z</time>
      </trkpt>
      <trkpt lat="43.5312" lon="6.30545">
        <ele>354.2</ele>
        <time>2021-04-25T12:47:39Z</time>
      </trkpt>
      <trkpt lat="43.53128" lon="6.30552">
        <ele>354.1</ele>
        <time>2021-04-25T12:47:50Z</time>
      </trkpt>
      <trkpt lat="43.53131" lon="6.30564">
        <ele>354.9</ele>
        <time>2021-04-25T12:48:02Z</time>
      </trkpt>
      <trkpt lat="43.53131" lon="6.30564">
        <ele>355.1</ele>
        <time>2021-04-25T12:48:05Z</time>
      </trkpt>
      <trkpt lat="43.53132" lon="6.30564">
        <ele>354.9</ele>
        <time>2021-04-25T12:48:06Z</time>
      </trkpt>
      <trkpt lat="43.53135" lon="6.30562">
        <ele>353.5</ele>
        <time>2021-04-25T12:48:15Z</time>
      </trkpt>
      <trkpt lat="43.53136" lon="6.30562">
        <ele>353.6</ele>
        <time>2021-04-25T12:48:16Z</time>
      </trkpt>
      <trkpt lat="43.53136" lon="6.30561">
        <ele>353.4</ele>
        <time>2021-04-25T12:48:21Z</time>
      </trkpt>
      <trkpt lat="43.53137" lon="6.30561">
        <ele>353.1</ele>
        <time>2021-04-25T12:48:25Z</time>
      </trkpt>
      <trkpt lat="43.53145" lon="6.30566">
        <ele>353</ele>
        <time>2021-04-25T12:48:43Z</time>
      </trkpt>
      <trkpt lat="43.53147" lon="6.30565">
        <ele>353.1</ele>
        <time>2021-04-25T12:48:47Z</time>
      </trkpt>
      <trkpt lat="43.53147" lon="6.30565">
        <ele>353.3</ele>
        <time>2021-04-25T12:48:48Z</time>
      </trkpt>
      <trkpt lat="43.53147" lon="6.30565">
        <ele>355</ele>
        <time>2021-04-25T12:48:54Z</time>
      </trkpt>
      <trkpt lat="43.53146" lon="6.30565">
        <ele>353.8</ele>
        <time>2021-04-25T12:48:55Z</time>
      </trkpt>
      <trkpt lat="43.53146" lon="6.30565">
        <ele>353.5</ele>
        <time>2021-04-25T12:48:56Z</time>
      </trkpt>
      <trkpt lat="43.53146" lon="6.30564">
        <ele>353.2</ele>
        <time>2021-04-25T12:48:57Z</time>
      </trkpt>
      <trkpt lat="43.53146" lon="6.30561">
        <ele>352.4</ele>
        <time>2021-04-25T12:49:11Z</time>
      </trkpt>
      <trkpt lat="43.53147" lon="6.30561">
        <ele>352.5</ele>
        <time>2021-04-25T12:49:24Z</time>
      </trkpt>
      <trkpt lat="43.53147" lon="6.30561">
        <ele>352.3</ele>
        <time>2021-04-25T12:49:25Z</time>
      </trkpt>
      <trkpt lat="43.53146" lon="6.3056">
        <ele>352.3</ele>
        <time>2021-04-25T12:49:52Z</time>
      </trkpt>
      <trkpt lat="43.53146" lon="6.3056">
        <ele>352.1</ele>
        <time>2021-04-25T12:49:53Z</time>
      </trkpt>
      <trkpt lat="43.53146" lon="6.3056">
        <ele>352.1</ele>
        <time>2021-04-25T12:49:55Z</time>
      </trkpt>
      <trkpt lat="43.53146" lon="6.3056">
        <ele>352.1</ele>
        <time>2021-04-25T12:49:56Z</time>
      </trkpt>
      <trkpt lat="43.53146" lon="6.3056">
        <ele>352.1</ele>
        <time>2021-04-25T12:49:59Z</time>
      </trkpt>
      <trkpt lat="43.53153" lon="6.30569">
        <ele>351.9</ele>
        <time>2021-04-25T12:50:07Z</time>
      </trkpt>
      <trkpt lat="43.53157" lon="6.30571">
        <ele>352.1</ele>
        <time>2021-04-25T12:50:11Z</time>
      </trkpt>
      <trkpt lat="43.53157" lon="6.30571">
        <ele>352</ele>
        <time>2021-04-25T12:50:17Z</time>
      </trkpt>
      <trkpt lat="43.5316" lon="6.30584">
        <ele>352.7</ele>
        <time>2021-04-25T12:50:30Z</time>
      </trkpt>
      <trkpt lat="43.53165" lon="6.30594">
        <ele>353.1</ele>
        <time>2021-04-25T12:50:40Z</time>
      </trkpt>
      <trkpt lat="43.53174" lon="6.30601">
        <ele>353.7</ele>
        <time>2021-04-25T12:50:51Z</time>
      </trkpt>
      <trkpt lat="43.53182" lon="6.30605">
        <ele>354.1</ele>
        <time>2021-04-25T12:50:59Z</time>
      </trkpt>
      <trkpt lat="43.53191" lon="6.30612">
        <ele>355</ele>
        <time>2021-04-25T12:51:08Z</time>
      </trkpt>
      <trkpt lat="43.53193" lon="6.30615">
        <ele>355.9</ele>
        <time>2021-04-25T12:51:14Z</time>
      </trkpt>
      <trkpt lat="43.53193" lon="6.30616">
        <ele>355.9</ele>
        <time>2021-04-25T12:51:15Z</time>
      </trkpt>
      <trkpt lat="43.532" lon="6.30622">
        <ele>357.5</ele>
        <time>2021-04-25T12:51:26Z</time>
      </trkpt>
      <trkpt lat="43.53208" lon="6.30632">
        <ele>358</ele>
        <time>2021-04-25T12:51:35Z</time>
      </trkpt>
      <trkpt lat="43.53213" lon="6.30642">
        <ele>358.5</ele>
        <time>2021-04-25T12:51:44Z</time>
      </trkpt>
      <trkpt lat="43.53218" lon="6.30653">
        <ele>358.7</ele>
        <time>2021-04-25T12:51:52Z</time>
      </trkpt>
      <trkpt lat="43.53226" lon="6.30659">
        <ele>359</ele>
        <time>2021-04-25T12:52:01Z</time>
      </trkpt>
      <trkpt lat="43.53236" lon="6.30664">
        <ele>359.1</ele>
        <time>2021-04-25T12:52:09Z</time>
      </trkpt>
      <trkpt lat="43.53246" lon="6.30668">
        <ele>359.6</ele>
        <time>2021-04-25T12:52:19Z</time>
      </trkpt>
      <trkpt lat="43.53255" lon="6.30671">
        <ele>360.1</ele>
        <time>2021-04-25T12:52:28Z</time>
      </trkpt>
      <trkpt lat="43.5325" lon="6.30681">
        <ele>361.8</ele>
        <time>2021-04-25T12:52:45Z</time>
      </trkpt>
      <trkpt lat="43.5325" lon="6.30681">
        <ele>361.9</ele>
        <time>2021-04-25T12:52:46Z</time>
      </trkpt>
      <trkpt lat="43.53251" lon="6.30685">
        <ele>361.9</ele>
        <time>2021-04-25T12:53:08Z</time>
      </trkpt>
      <trkpt lat="43.53252" lon="6.30684">
        <ele>361.9</ele>
        <time>2021-04-25T12:53:09Z</time>
      </trkpt>
      <trkpt lat="43.53255" lon="6.30678">
        <ele>360.9</ele>
        <time>2021-04-25T12:53:20Z</time>
      </trkpt>
      <trkpt lat="43.53256" lon="6.30679">
        <ele>360.8</ele>
        <time>2021-04-25T12:53:24Z</time>
      </trkpt>
      <trkpt lat="43.53251" lon="6.30679">
        <ele>360.9</ele>
        <time>2021-04-25T12:53:42Z</time>
      </trkpt>
      <trkpt lat="43.53251" lon="6.30679">
        <ele>360.9</ele>
        <time>2021-04-25T12:53:46Z</time>
      </trkpt>
      <trkpt lat="43.5325" lon="6.30679">
        <ele>360.8</ele>
        <time>2021-04-25T12:53:52Z</time>
      </trkpt>
      <trkpt lat="43.5325" lon="6.30679">
        <ele>360.8</ele>
        <time>2021-04-25T12:53:54Z</time>
      </trkpt>
      <trkpt lat="43.5325" lon="6.30679">
        <ele>360.8</ele>
        <time>2021-04-25T12:53:55Z</time>
      </trkpt>
      <trkpt lat="43.5325" lon="6.30678">
        <ele>360.6</ele>
        <time>2021-04-25T12:53:57Z</time>
      </trkpt>
      <trkpt lat="43.53249" lon="6.30678">
        <ele>360.8</ele>
        <time>2021-04-25T12:54:01Z</time>
      </trkpt>
      <trkpt lat="43.53249" lon="6.30677">
        <ele>360.9</ele>
        <time>2021-04-25T12:54:04Z</time>
      </trkpt>
      <trkpt lat="43.53249" lon="6.30677">
        <ele>360.9</ele>
        <time>2021-04-25T12:54:05Z</time>
      </trkpt>
      <trkpt lat="43.53249" lon="6.30677">
        <ele>360.2</ele>
        <time>2021-04-25T12:54:10Z</time>
      </trkpt>
      <trkpt lat="43.5325" lon="6.30677">
        <ele>360.6</ele>
        <time>2021-04-25T12:54:12Z</time>
      </trkpt>
      <trkpt lat="43.5325" lon="6.30677">
        <ele>360.6</ele>
        <time>2021-04-25T12:54:26Z</time>
      </trkpt>
      <trkpt lat="43.5325" lon="6.30676">
        <ele>361.2</ele>
        <time>2021-04-25T12:54:29Z</time>
      </trkpt>
      <trkpt lat="43.5325" lon="6.30676">
        <ele>361</ele>
        <time>2021-04-25T12:54:30Z</time>
      </trkpt>
      <trkpt lat="43.53249" lon="6.30676">
        <ele>361</ele>
        <time>2021-04-25T12:54:32Z</time>
      </trkpt>
      <trkpt lat="43.5325" lon="6.30675">
        <ele>361</ele>
        <time>2021-04-25T12:54:33Z</time>
      </trkpt>
      <trkpt lat="43.5325" lon="6.30675">
        <ele>361</ele>
        <time>2021-04-25T12:54:34Z</time>
      </trkpt>
      <trkpt lat="43.5325" lon="6.30675">
        <ele>360.6</ele>
        <time>2021-04-25T12:54:50Z</time>
      </trkpt>
      <trkpt lat="43.5325" lon="6.30675">
        <ele>360.8</ele>
        <time>2021-04-25T12:54:51Z</time>
      </trkpt>
      <trkpt lat="43.5325" lon="6.30675">
        <ele>360.8</ele>
        <time>2021-04-25T12:54:52Z</time>
      </trkpt>
      <trkpt lat="43.5325" lon="6.30675">
        <ele>360.8</ele>
        <time>2021-04-25T12:54:53Z</time>
      </trkpt>
      <trkpt lat="43.5325" lon="6.30675">
        <ele>360.4</ele>
        <time>2021-04-25T12:54:59Z</time>
      </trkpt>
      <trkpt lat="43.5325" lon="6.30675">
        <ele>360.1</ele>
        <time>2021-04-25T12:55:00Z</time>
      </trkpt>
      <trkpt lat="43.5325" lon="6.30675">
        <ele>360.1</ele>
        <time>2021-04-25T12:55:01Z</time>
      </trkpt>
      <trkpt lat="43.5325" lon="6.30674">
        <ele>359.8</ele>
        <time>2021-04-25T12:55:04Z</time>
      </trkpt>
      <trkpt lat="43.5325" lon="6.30674">
        <ele>359.9</ele>
        <time>2021-04-25T12:55:05Z</time>
      </trkpt>
      <trkpt lat="43.5325" lon="6.30674">
        <ele>360</ele>
        <time>2021-04-25T12:55:06Z</time>
      </trkpt>
      <trkpt lat="43.5325" lon="6.30674">
        <ele>359.4</ele>
        <time>2021-04-25T12:55:18Z</time>
      </trkpt>
      <trkpt lat="43.5325" lon="6.30674">
        <ele>359.5</ele>
        <time>2021-04-25T12:55:19Z</time>
      </trkpt>
      <trkpt lat="43.5325" lon="6.30674">
        <ele>359.5</ele>
        <time>2021-04-25T12:55:20Z</time>
      </trkpt>
      <trkpt lat="43.53249" lon="6.30673">
        <ele>360.1</ele>
        <time>2021-04-25T12:55:24Z</time>
      </trkpt>
      <trkpt lat="43.53249" lon="6.30673">
        <ele>359.7</ele>
        <time>2021-04-25T12:55:33Z</time>
      </trkpt>
      <trkpt lat="43.53249" lon="6.30673">
        <ele>359.6</ele>
        <time>2021-04-25T12:55:34Z</time>
      </trkpt>
      <trkpt lat="43.53249" lon="6.30673">
        <ele>359.6</ele>
        <time>2021-04-25T12:55:35Z</time>
      </trkpt>
      <trkpt lat="43.53249" lon="6.30673">
        <ele>359.7</ele>
        <time>2021-04-25T12:55:36Z</time>
      </trkpt>
      <trkpt lat="43.53249" lon="6.30673">
        <ele>359.2</ele>
        <time>2021-04-25T12:55:44Z</time>
      </trkpt>
      <trkpt lat="43.53257" lon="6.30672">
        <ele>359.1</ele>
        <time>2021-04-25T12:55:54Z</time>
      </trkpt>
      <trkpt lat="43.53257" lon="6.30671">
        <ele>358.8</ele>
        <time>2021-04-25T12:56:06Z</time>
      </trkpt>
      <trkpt lat="43.53257" lon="6.30671">
        <ele>358.5</ele>
        <time>2021-04-25T12:56:09Z</time>
      </trkpt>
      <trkpt lat="43.53256" lon="6.30672">
        <ele>358.5</ele>
        <time>2021-04-25T12:56:19Z</time>
      </trkpt>
      <trkpt lat="43.53256" lon="6.30673">
        <ele>358.9</ele>
        <time>2021-04-25T12:56:21Z</time>
      </trkpt>
      <trkpt lat="43.53256" lon="6.30673">
        <ele>358.7</ele>
        <time>2021-04-25T12:56:24Z</time>
      </trkpt>
      <trkpt lat="43.53255" lon="6.30672">
        <ele>358.8</ele>
        <time>2021-04-25T12:56:28Z</time>
      </trkpt>
      <trkpt lat="43.53255" lon="6.30672">
        <ele>358.7</ele>
        <time>2021-04-25T12:56:29Z</time>
      </trkpt>
      <trkpt lat="43.53255" lon="6.30672">
        <ele>358.6</ele>
        <time>2021-04-25T12:56:30Z</time>
      </trkpt>
      <trkpt lat="43.53254" lon="6.30672">
        <ele>358.4</ele>
        <time>2021-04-25T12:56:31Z</time>
      </trkpt>
      <trkpt lat="43.53261" lon="6.30678">
        <ele>357.7</ele>
        <time>2021-04-25T12:56:53Z</time>
      </trkpt>
      <trkpt lat="43.53261" lon="6.30678">
        <ele>357.5</ele>
        <time>2021-04-25T12:56:54Z</time>
      </trkpt>
      <trkpt lat="43.53261" lon="6.30678">
        <ele>357.7</ele>
        <time>2021-04-25T12:56:56Z</time>
      </trkpt>
      <trkpt lat="43.53261" lon="6.30678">
        <ele>357.9</ele>
        <time>2021-04-25T12:56:57Z</time>
      </trkpt>
      <trkpt lat="43.53266" lon="6.3069">
        <ele>357.5</ele>
        <time>2021-04-25T12:57:08Z</time>
      </trkpt>
      <trkpt lat="43.53271" lon="6.30701">
        <ele>356.9</ele>
        <time>2021-04-25T12:57:17Z</time>
      </trkpt>
      <trkpt lat="43.53277" lon="6.30709">
        <ele>354.4</ele>
        <time>2021-04-25T12:57:33Z</time>
      </trkpt>
      <trkpt lat="43.53277" lon="6.30709">
        <ele>354.5</ele>
        <time>2021-04-25T12:57:36Z</time>
      </trkpt>
      <trkpt lat="43.53284" lon="6.30718">
        <ele>352.3</ele>
        <time>2021-04-25T12:57:47Z</time>
      </trkpt>
      <trkpt lat="43.53293" lon="6.30719">
        <ele>351.3</ele>
        <time>2021-04-25T12:58:03Z</time>
      </trkpt>
      <trkpt lat="43.53296" lon="6.30712">
        <ele>351.5</ele>
        <time>2021-04-25T12:58:11Z</time>
      </trkpt>
      <trkpt lat="43.53296" lon="6.30711">
        <ele>351.5</ele>
        <time>2021-04-25T12:58:12Z</time>
      </trkpt>
      <trkpt lat="43.53297" lon="6.30712">
        <ele>351.9</ele>
        <time>2021-04-25T12:58:16Z</time>
      </trkpt>
      <trkpt lat="43.53297" lon="6.30712">
        <ele>351.5</ele>
        <time>2021-04-25T12:58:20Z</time>
      </trkpt>
      <trkpt lat="43.533" lon="6.30713">
        <ele>351.5</ele>
        <time>2021-04-25T12:58:27Z</time>
      </trkpt>
      <trkpt lat="43.533" lon="6.30712">
        <ele>351.6</ele>
        <time>2021-04-25T12:58:42Z</time>
      </trkpt>
      <trkpt lat="43.53301" lon="6.30713">
        <ele>351.8</ele>
        <time>2021-04-25T12:58:48Z</time>
      </trkpt>
      <trkpt lat="43.53301" lon="6.30713">
        <ele>351.5</ele>
        <time>2021-04-25T12:58:54Z</time>
      </trkpt>
      <trkpt lat="43.53302" lon="6.30711">
        <ele>351.5</ele>
        <time>2021-04-25T12:59:01Z</time>
      </trkpt>
      <trkpt lat="43.53301" lon="6.30711">
        <ele>350.7</ele>
        <time>2021-04-25T12:59:14Z</time>
      </trkpt>
      <trkpt lat="43.53301" lon="6.3071">
        <ele>350.8</ele>
        <time>2021-04-25T12:59:19Z</time>
      </trkpt>
      <trkpt lat="43.53301" lon="6.3071">
        <ele>350.9</ele>
        <time>2021-04-25T12:59:22Z</time>
      </trkpt>
      <trkpt lat="43.53301" lon="6.3071">
        <ele>351.1</ele>
        <time>2021-04-25T12:59:25Z</time>
      </trkpt>
      <trkpt lat="43.533" lon="6.3071">
        <ele>351.1</ele>
        <time>2021-04-25T12:59:37Z</time>
      </trkpt>
      <trkpt lat="43.533" lon="6.3071">
        <ele>351.1</ele>
        <time>2021-04-25T12:59:38Z</time>
      </trkpt>
      <trkpt lat="43.533" lon="6.3071">
        <ele>351.1</ele>
        <time>2021-04-25T12:59:40Z</time>
      </trkpt>
      <trkpt lat="43.533" lon="6.3071">
        <ele>350.4</ele>
        <time>2021-04-25T12:59:43Z</time>
      </trkpt>
      <trkpt lat="43.533" lon="6.3071">
        <ele>350.3</ele>
        <time>2021-04-25T12:59:44Z</time>
      </trkpt>
      <trkpt lat="43.533" lon="6.3071">
        <ele>350.4</ele>
        <time>2021-04-25T12:59:49Z</time>
      </trkpt>
      <trkpt lat="43.533" lon="6.3071">
        <ele>350.3</ele>
        <time>2021-04-25T13:00:02Z</time>
      </trkpt>
      <trkpt lat="43.533" lon="6.3071">
        <ele>350.2</ele>
        <time>2021-04-25T13:00:04Z</time>
      </trkpt>
      <trkpt lat="43.53301" lon="6.3071">
        <ele>350.2</ele>
        <time>2021-04-25T13:00:10Z</time>
      </trkpt>
      <trkpt lat="43.53301" lon="6.3071">
        <ele>350.2</ele>
        <time>2021-04-25T13:00:11Z</time>
      </trkpt>
      <trkpt lat="43.53301" lon="6.3071">
        <ele>350.4</ele>
        <time>2021-04-25T13:00:16Z</time>
      </trkpt>
      <trkpt lat="43.5331" lon="6.30704">
        <ele>350</ele>
        <time>2021-04-25T13:00:25Z</time>
      </trkpt>
      <trkpt lat="43.53319" lon="6.30698">
        <ele>350</ele>
        <time>2021-04-25T13:00:34Z</time>
      </trkpt>
      <trkpt lat="43.53328" lon="6.30696">
        <ele>350.1</ele>
        <time>2021-04-25T13:00:43Z</time>
      </trkpt>
      <trkpt lat="43.53337" lon="6.30689">
        <ele>350.2</ele>
        <time>2021-04-25T13:00:52Z</time>
      </trkpt>
      <trkpt lat="43.53345" lon="6.30683">
        <ele>349.6</ele>
        <time>2021-04-25T13:01:00Z</time>
      </trkpt>
      <trkpt lat="43.53353" lon="6.30675">
        <ele>348.9</ele>
        <time>2021-04-25T13:01:09Z</time>
      </trkpt>
      <trkpt lat="43.5336" lon="6.30666">
        <ele>348.8</ele>
        <time>2021-04-25T13:01:17Z</time>
      </trkpt>
      <trkpt lat="43.53368" lon="6.3066">
        <ele>348.8</ele>
        <time>2021-04-25T13:01:26Z</time>
      </trkpt>
      <trkpt lat="43.53377" lon="6.30658">
        <ele>348.4</ele>
        <time>2021-04-25T13:01:35Z</time>
      </trkpt>
      <trkpt lat="43.53385" lon="6.3065">
        <ele>349.3</ele>
        <time>2021-04-25T13:01:42Z</time>
      </trkpt>
      <trkpt lat="43.53391" lon="6.3064">
        <ele>348.1</ele>
        <time>2021-04-25T13:01:50Z</time>
      </trkpt>
      <trkpt lat="43.53398" lon="6.3063">
        <ele>349.5</ele>
        <time>2021-04-25T13:01:58Z</time>
      </trkpt>
      <trkpt lat="43.53404" lon="6.30621">
        <ele>349.8</ele>
        <time>2021-04-25T13:02:06Z</time>
      </trkpt>
      <trkpt lat="43.5341" lon="6.3061">
        <ele>351.6</ele>
        <time>2021-04-25T13:02:17Z</time>
      </trkpt>
      <trkpt lat="43.53418" lon="6.30603">
        <ele>352.3</ele>
        <time>2021-04-25T13:02:26Z</time>
      </trkpt>
      <trkpt lat="43.53428" lon="6.30601">
        <ele>352.6</ele>
        <time>2021-04-25T13:02:34Z</time>
      </trkpt>
      <trkpt lat="43.53437" lon="6.306">
        <ele>353</ele>
        <time>2021-04-25T13:02:42Z</time>
      </trkpt>
      <trkpt lat="43.53439" lon="6.306">
        <ele>352.9</ele>
        <time>2021-04-25T13:02:45Z</time>
      </trkpt>
      <trkpt lat="43.53439" lon="6.306">
        <ele>353.1</ele>
        <time>2021-04-25T13:02:51Z</time>
      </trkpt>
      <trkpt lat="43.53448" lon="6.30601">
        <ele>353.4</ele>
        <time>2021-04-25T13:03:01Z</time>
      </trkpt>
      <trkpt lat="43.53457" lon="6.30601">
        <ele>353.9</ele>
        <time>2021-04-25T13:03:10Z</time>
      </trkpt>
      <trkpt lat="43.53467" lon="6.306">
        <ele>354</ele>
        <time>2021-04-25T13:03:18Z</time>
      </trkpt>
      <trkpt lat="43.53476" lon="6.30599">
        <ele>354.4</ele>
        <time>2021-04-25T13:03:26Z</time>
      </trkpt>
      <trkpt lat="43.53485" lon="6.30598">
        <ele>354.5</ele>
        <time>2021-04-25T13:03:34Z</time>
      </trkpt>
      <trkpt lat="43.53494" lon="6.30598">
        <ele>354.4</ele>
        <time>2021-04-25T13:03:42Z</time>
      </trkpt>
      <trkpt lat="43.53504" lon="6.30596">
        <ele>354.3</ele>
        <time>2021-04-25T13:03:51Z</time>
      </trkpt>
      <trkpt lat="43.53513" lon="6.30598">
        <ele>354.1</ele>
        <time>2021-04-25T13:03:59Z</time>
      </trkpt>
      <trkpt lat="43.53523" lon="6.30596">
        <ele>354.2</ele>
        <time>2021-04-25T13:04:08Z</time>
      </trkpt>
      <trkpt lat="43.53532" lon="6.30595">
        <ele>354.3</ele>
        <time>2021-04-25T13:04:16Z</time>
      </trkpt>
      <trkpt lat="43.53541" lon="6.30594">
        <ele>354.1</ele>
        <time>2021-04-25T13:04:25Z</time>
      </trkpt>
      <trkpt lat="43.53551" lon="6.30592">
        <ele>354</ele>
        <time>2021-04-25T13:04:34Z</time>
      </trkpt>
      <trkpt lat="43.5356" lon="6.3059">
        <ele>353.7</ele>
        <time>2021-04-25T13:04:42Z</time>
      </trkpt>
      <trkpt lat="43.5357" lon="6.30588">
        <ele>353.9</ele>
        <time>2021-04-25T13:04:50Z</time>
      </trkpt>
      <trkpt lat="43.53579" lon="6.30588">
        <ele>354</ele>
        <time>2021-04-25T13:04:58Z</time>
      </trkpt>
      <trkpt lat="43.53589" lon="6.30589">
        <ele>354</ele>
        <time>2021-04-25T13:05:07Z</time>
      </trkpt>
      <trkpt lat="43.53599" lon="6.30593">
        <ele>353.6</ele>
        <time>2021-04-25T13:05:16Z</time>
      </trkpt>
      <trkpt lat="43.53606" lon="6.30601">
        <ele>352.6</ele>
        <time>2021-04-25T13:05:25Z</time>
      </trkpt>
      <trkpt lat="43.53611" lon="6.30612">
        <ele>352.7</ele>
        <time>2021-04-25T13:05:35Z</time>
      </trkpt>
      <trkpt lat="43.53613" lon="6.30624">
        <ele>351.7</ele>
        <time>2021-04-25T13:05:44Z</time>
      </trkpt>
      <trkpt lat="43.53613" lon="6.30638">
        <ele>351</ele>
        <time>2021-04-25T13:05:54Z</time>
      </trkpt>
      <trkpt lat="43.53619" lon="6.30647">
        <ele>351</ele>
        <time>2021-04-25T13:06:03Z</time>
      </trkpt>
      <trkpt lat="43.53627" lon="6.30655">
        <ele>351.1</ele>
        <time>2021-04-25T13:06:12Z</time>
      </trkpt>
      <trkpt lat="43.53634" lon="6.30661">
        <ele>350</ele>
        <time>2021-04-25T13:06:23Z</time>
      </trkpt>
      <trkpt lat="43.53635" lon="6.30661">
        <ele>351.3</ele>
        <time>2021-04-25T13:06:26Z</time>
      </trkpt>
      <trkpt lat="43.53644" lon="6.30663">
        <ele>351.3</ele>
        <time>2021-04-25T13:06:35Z</time>
      </trkpt>
      <trkpt lat="43.53653" lon="6.30666">
        <ele>351.3</ele>
        <time>2021-04-25T13:06:43Z</time>
      </trkpt>
      <trkpt lat="43.53662" lon="6.30672">
        <ele>351.2</ele>
        <time>2021-04-25T13:06:52Z</time>
      </trkpt>
      <trkpt lat="43.53668" lon="6.30681">
        <ele>351.3</ele>
        <time>2021-04-25T13:07:00Z</time>
      </trkpt>
      <trkpt lat="43.53677" lon="6.30679">
        <ele>351.9</ele>
        <time>2021-04-25T13:07:10Z</time>
      </trkpt>
      <trkpt lat="43.53685" lon="6.3067">
        <ele>352.9</ele>
        <time>2021-04-25T13:07:21Z</time>
      </trkpt>
      <trkpt lat="43.53693" lon="6.30664">
        <ele>354</ele>
        <time>2021-04-25T13:07:30Z</time>
      </trkpt>
      <trkpt lat="43.53701" lon="6.30659">
        <ele>354.5</ele>
        <time>2021-04-25T13:07:39Z</time>
      </trkpt>
      <trkpt lat="43.5371" lon="6.30654">
        <ele>355.2</ele>
        <time>2021-04-25T13:07:47Z</time>
      </trkpt>
      <trkpt lat="43.5372" lon="6.30657">
        <ele>355.3</ele>
        <time>2021-04-25T13:07:55Z</time>
      </trkpt>
      <trkpt lat="43.53728" lon="6.30662">
        <ele>354.9</ele>
        <time>2021-04-25T13:08:02Z</time>
      </trkpt>
      <trkpt lat="43.53737" lon="6.30663">
        <ele>355.3</ele>
        <time>2021-04-25T13:08:10Z</time>
      </trkpt>
      <trkpt lat="43.53746" lon="6.30658">
        <ele>355.9</ele>
        <time>2021-04-25T13:08:20Z</time>
      </trkpt>
      <trkpt lat="43.53755" lon="6.30654">
        <ele>356.7</ele>
        <time>2021-04-25T13:08:31Z</time>
      </trkpt>
      <trkpt lat="43.53764" lon="6.30657">
        <ele>355.6</ele>
        <time>2021-04-25T13:08:42Z</time>
      </trkpt>
      <trkpt lat="43.53771" lon="6.30665">
        <ele>356.8</ele>
        <time>2021-04-25T13:08:53Z</time>
      </trkpt>
      <trkpt lat="43.5378" lon="6.3066">
        <ele>358.7</ele>
        <time>2021-04-25T13:09:19Z</time>
      </trkpt>
      <trkpt lat="43.53783" lon="6.30661">
        <ele>356.5</ele>
        <time>2021-04-25T13:09:28Z</time>
      </trkpt>
      <trkpt lat="43.53783" lon="6.30661">
        <ele>359.9</ele>
        <time>2021-04-25T13:09:31Z</time>
      </trkpt>
      <trkpt lat="43.53787" lon="6.30649">
        <ele>360.1</ele>
        <time>2021-04-25T13:09:56Z</time>
      </trkpt>
      <trkpt lat="43.53787" lon="6.30649">
        <ele>359.8</ele>
        <time>2021-04-25T13:09:58Z</time>
      </trkpt>
      <trkpt lat="43.53787" lon="6.30649">
        <ele>359.8</ele>
        <time>2021-04-25T13:10:00Z</time>
      </trkpt>
      <trkpt lat="43.53787" lon="6.30648">
        <ele>359.9</ele>
        <time>2021-04-25T13:10:03Z</time>
      </trkpt>
      <trkpt lat="43.53786" lon="6.30648">
        <ele>360.2</ele>
        <time>2021-04-25T13:10:06Z</time>
      </trkpt>
      <trkpt lat="43.53786" lon="6.30649">
        <ele>360.1</ele>
        <time>2021-04-25T13:10:07Z</time>
      </trkpt>
      <trkpt lat="43.53786" lon="6.30649">
        <ele>360</ele>
        <time>2021-04-25T13:10:08Z</time>
      </trkpt>
      <trkpt lat="43.53786" lon="6.30648">
        <ele>360.1</ele>
        <time>2021-04-25T13:10:09Z</time>
      </trkpt>
      <trkpt lat="43.53786" lon="6.30649">
        <ele>360.3</ele>
        <time>2021-04-25T13:10:10Z</time>
      </trkpt>
      <trkpt lat="43.53786" lon="6.30649">
        <ele>360.4</ele>
        <time>2021-04-25T13:10:11Z</time>
      </trkpt>
      <trkpt lat="43.53786" lon="6.30649">
        <ele>360.4</ele>
        <time>2021-04-25T13:10:12Z</time>
      </trkpt>
      <trkpt lat="43.53788" lon="6.30649">
        <ele>360.4</ele>
        <time>2021-04-25T13:10:17Z</time>
      </trkpt>
      <trkpt lat="43.53788" lon="6.30649">
        <ele>360.5</ele>
        <time>2021-04-25T13:10:18Z</time>
      </trkpt>
      <trkpt lat="43.53797" lon="6.30654">
        <ele>360.5</ele>
        <time>2021-04-25T13:10:30Z</time>
      </trkpt>
      <trkpt lat="43.53805" lon="6.30658">
        <ele>360.3</ele>
        <time>2021-04-25T13:10:44Z</time>
      </trkpt>
      <trkpt lat="43.5381" lon="6.30663">
        <ele>359.8</ele>
        <time>2021-04-25T13:10:58Z</time>
      </trkpt>
      <trkpt lat="43.5381" lon="6.30662">
        <ele>359.8</ele>
        <time>2021-04-25T13:10:59Z</time>
      </trkpt>
      <trkpt lat="43.5381" lon="6.30662">
        <ele>359.8</ele>
        <time>2021-04-25T13:11:00Z</time>
      </trkpt>
      <trkpt lat="43.5381" lon="6.30662">
        <ele>359.7</ele>
        <time>2021-04-25T13:11:02Z</time>
      </trkpt>
      <trkpt lat="43.53815" lon="6.30665">
        <ele>359.3</ele>
        <time>2021-04-25T13:11:11Z</time>
      </trkpt>
      <trkpt lat="43.53816" lon="6.30665">
        <ele>360.3</ele>
        <time>2021-04-25T13:11:16Z</time>
      </trkpt>
      <trkpt lat="43.53816" lon="6.30665">
        <ele>360.2</ele>
        <time>2021-04-25T13:11:17Z</time>
      </trkpt>
      <trkpt lat="43.53816" lon="6.30665">
        <ele>360.1</ele>
        <time>2021-04-25T13:11:31Z</time>
      </trkpt>
      <trkpt lat="43.53823" lon="6.30673">
        <ele>359.6</ele>
        <time>2021-04-25T13:11:40Z</time>
      </trkpt>
      <trkpt lat="43.5383" lon="6.30681">
        <ele>359.6</ele>
        <time>2021-04-25T13:11:49Z</time>
      </trkpt>
      <trkpt lat="43.53837" lon="6.30692">
        <ele>360</ele>
        <time>2021-04-25T13:12:03Z</time>
      </trkpt>
      <trkpt lat="43.53843" lon="6.307">
        <ele>360.1</ele>
        <time>2021-04-25T13:12:10Z</time>
      </trkpt>
      <trkpt lat="43.53851" lon="6.30706">
        <ele>360.2</ele>
        <time>2021-04-25T13:12:19Z</time>
      </trkpt>
      <trkpt lat="43.53859" lon="6.30714">
        <ele>360.5</ele>
        <time>2021-04-25T13:12:30Z</time>
      </trkpt>
      <trkpt lat="43.53867" lon="6.30723">
        <ele>360.4</ele>
        <time>2021-04-25T13:12:40Z</time>
      </trkpt>
      <trkpt lat="43.53874" lon="6.30732">
        <ele>360.6</ele>
        <time>2021-04-25T13:12:49Z</time>
      </trkpt>
      <trkpt lat="43.53882" lon="6.30739">
        <ele>361</ele>
        <time>2021-04-25T13:12:59Z</time>
      </trkpt>
      <trkpt lat="43.53891" lon="6.30744">
        <ele>361.6</ele>
        <time>2021-04-25T13:13:08Z</time>
      </trkpt>
      <trkpt lat="43.53901" lon="6.30748">
        <ele>361.6</ele>
        <time>2021-04-25T13:13:18Z</time>
      </trkpt>
      <trkpt lat="43.5391" lon="6.30751">
        <ele>361.8</ele>
        <time>2021-04-25T13:13:27Z</time>
      </trkpt>
      <trkpt lat="43.53918" lon="6.30754">
        <ele>362.5</ele>
        <time>2021-04-25T13:13:36Z</time>
      </trkpt>
      <trkpt lat="43.53928" lon="6.30759">
        <ele>362.1</ele>
        <time>2021-04-25T13:13:45Z</time>
      </trkpt>
      <trkpt lat="43.53937" lon="6.30762">
        <ele>362.3</ele>
        <time>2021-04-25T13:13:56Z</time>
      </trkpt>
      <trkpt lat="43.53946" lon="6.30766">
        <ele>362.2</ele>
        <time>2021-04-25T13:14:05Z</time>
      </trkpt>
      <trkpt lat="43.53955" lon="6.30767">
        <ele>363</ele>
        <time>2021-04-25T13:14:21Z</time>
      </trkpt>
      <trkpt lat="43.53962" lon="6.30777">
        <ele>362.9</ele>
        <time>2021-04-25T13:14:30Z</time>
      </trkpt>
      <trkpt lat="43.53968" lon="6.30787">
        <ele>363.1</ele>
        <time>2021-04-25T13:14:40Z</time>
      </trkpt>
      <trkpt lat="43.53976" lon="6.30794">
        <ele>363.5</ele>
        <time>2021-04-25T13:14:51Z</time>
      </trkpt>
      <trkpt lat="43.53982" lon="6.30805">
        <ele>363.7</ele>
        <time>2021-04-25T13:14:59Z</time>
      </trkpt>
      <trkpt lat="43.5399" lon="6.30814">
        <ele>363.9</ele>
        <time>2021-04-25T13:15:09Z</time>
      </trkpt>
      <trkpt lat="43.53996" lon="6.30823">
        <ele>363.6</ele>
        <time>2021-04-25T13:15:18Z</time>
      </trkpt>
      <trkpt lat="43.54001" lon="6.30828">
        <ele>364</ele>
        <time>2021-04-25T13:15:26Z</time>
      </trkpt>
      <trkpt lat="43.54001" lon="6.30828">
        <ele>364.1</ele>
        <time>2021-04-25T13:15:27Z</time>
      </trkpt>
      <trkpt lat="43.54001" lon="6.30828">
        <ele>364</ele>
        <time>2021-04-25T13:15:29Z</time>
      </trkpt>
      <trkpt lat="43.54001" lon="6.30828">
        <ele>364.1</ele>
        <time>2021-04-25T13:15:31Z</time>
      </trkpt>
      <trkpt lat="43.54001" lon="6.30828">
        <ele>364</ele>
        <time>2021-04-25T13:15:32Z</time>
      </trkpt>
      <trkpt lat="43.54002" lon="6.30828">
        <ele>363.7</ele>
        <time>2021-04-25T13:15:38Z</time>
      </trkpt>
      <trkpt lat="43.54002" lon="6.30828">
        <ele>363.9</ele>
        <time>2021-04-25T13:15:40Z</time>
      </trkpt>
      <trkpt lat="43.54002" lon="6.30829">
        <ele>364.1</ele>
        <time>2021-04-25T13:15:42Z</time>
      </trkpt>
      <trkpt lat="43.54009" lon="6.30839">
        <ele>364.1</ele>
        <time>2021-04-25T13:15:52Z</time>
      </trkpt>
      <trkpt lat="43.54015" lon="6.30849">
        <ele>364.1</ele>
        <time>2021-04-25T13:16:02Z</time>
      </trkpt>
      <trkpt lat="43.54023" lon="6.30857">
        <ele>364.4</ele>
        <time>2021-04-25T13:16:10Z</time>
      </trkpt>
      <trkpt lat="43.54031" lon="6.30863">
        <ele>364.5</ele>
        <time>2021-04-25T13:16:17Z</time>
      </trkpt>
      <trkpt lat="43.5404" lon="6.30869">
        <ele>364.6</ele>
        <time>2021-04-25T13:16:25Z</time>
      </trkpt>
      <trkpt lat="43.54049" lon="6.30876">
        <ele>364.9</ele>
        <time>2021-04-25T13:16:32Z</time>
      </trkpt>
      <trkpt lat="43.54058" lon="6.30881">
        <ele>364.9</ele>
        <time>2021-04-25T13:16:39Z</time>
      </trkpt>
      <trkpt lat="43.54065" lon="6.3089">
        <ele>365.3</ele>
        <time>2021-04-25T13:16:48Z</time>
      </trkpt>
      <trkpt lat="43.54073" lon="6.30897">
        <ele>365.4</ele>
        <time>2021-04-25T13:16:57Z</time>
      </trkpt>
      <trkpt lat="43.54082" lon="6.30902">
        <ele>366.3</ele>
        <time>2021-04-25T13:17:07Z</time>
      </trkpt>
      <trkpt lat="43.54089" lon="6.30905">
        <ele>366.2</ele>
        <time>2021-04-25T13:17:15Z</time>
      </trkpt>
      <trkpt lat="43.54089" lon="6.30905">
        <ele>366.2</ele>
        <time>2021-04-25T13:17:17Z</time>
      </trkpt>
      <trkpt lat="43.5409" lon="6.30905">
        <ele>366</ele>
        <time>2021-04-25T13:17:20Z</time>
      </trkpt>
      <trkpt lat="43.5409" lon="6.30905">
        <ele>366.2</ele>
        <time>2021-04-25T13:17:21Z</time>
      </trkpt>
      <trkpt lat="43.54092" lon="6.30904">
        <ele>365.6</ele>
        <time>2021-04-25T13:17:26Z</time>
      </trkpt>
      <trkpt lat="43.54092" lon="6.30904">
        <ele>365.6</ele>
        <time>2021-04-25T13:17:27Z</time>
      </trkpt>
      <trkpt lat="43.5409" lon="6.30904">
        <ele>365.6</ele>
        <time>2021-04-25T13:17:34Z</time>
      </trkpt>
      <trkpt lat="43.5409" lon="6.30904">
        <ele>365.7</ele>
        <time>2021-04-25T13:17:45Z</time>
      </trkpt>
      <trkpt lat="43.5409" lon="6.30904">
        <ele>365.7</ele>
        <time>2021-04-25T13:17:46Z</time>
      </trkpt>
      <trkpt lat="43.5409" lon="6.30904">
        <ele>365.8</ele>
        <time>2021-04-25T13:18:01Z</time>
      </trkpt>
      <trkpt lat="43.5409" lon="6.30904">
        <ele>365.5</ele>
        <time>2021-04-25T13:18:03Z</time>
      </trkpt>
      <trkpt lat="43.5409" lon="6.30904">
        <ele>365.6</ele>
        <time>2021-04-25T13:18:15Z</time>
      </trkpt>
      <trkpt lat="43.5409" lon="6.30904">
        <ele>365.6</ele>
        <time>2021-04-25T13:18:16Z</time>
      </trkpt>
      <trkpt lat="43.5409" lon="6.30904">
        <ele>365.4</ele>
        <time>2021-04-25T13:18:46Z</time>
      </trkpt>
      <trkpt lat="43.5409" lon="6.30904">
        <ele>365.4</ele>
        <time>2021-04-25T13:18:47Z</time>
      </trkpt>
      <trkpt lat="43.5409" lon="6.30904">
        <ele>365.4</ele>
        <time>2021-04-25T13:18:48Z</time>
      </trkpt>
      <trkpt lat="43.54091" lon="6.30904">
        <ele>365.4</ele>
        <time>2021-04-25T13:18:51Z</time>
      </trkpt>
      <trkpt lat="43.54091" lon="6.30905">
        <ele>365.7</ele>
        <time>2021-04-25T13:18:54Z</time>
      </trkpt>
      <trkpt lat="43.54091" lon="6.30904">
        <ele>365.6</ele>
        <time>2021-04-25T13:18:56Z</time>
      </trkpt>
      <trkpt lat="43.54091" lon="6.30904">
        <ele>365.7</ele>
        <time>2021-04-25T13:18:59Z</time>
      </trkpt>
      <trkpt lat="43.54091" lon="6.30904">
        <ele>365.8</ele>
        <time>2021-04-25T13:19:01Z</time>
      </trkpt>
      <trkpt lat="43.54091" lon="6.30904">
        <ele>365.9</ele>
        <time>2021-04-25T13:19:02Z</time>
      </trkpt>
      <trkpt lat="43.54091" lon="6.30904">
        <ele>365.6</ele>
        <time>2021-04-25T13:19:04Z</time>
      </trkpt>
      <trkpt lat="43.54091" lon="6.30904">
        <ele>365.5</ele>
        <time>2021-04-25T13:19:26Z</time>
      </trkpt>
      <trkpt lat="43.54092" lon="6.30901">
        <ele>365.6</ele>
        <time>2021-04-25T13:19:30Z</time>
      </trkpt>
      <trkpt lat="43.54092" lon="6.30901">
        <ele>365.6</ele>
        <time>2021-04-25T13:19:40Z</time>
      </trkpt>
      <trkpt lat="43.54092" lon="6.30901">
        <ele>365.6</ele>
        <time>2021-04-25T13:19:41Z</time>
      </trkpt>
      <trkpt lat="43.54092" lon="6.30902">
        <ele>365.5</ele>
        <time>2021-04-25T13:19:51Z</time>
      </trkpt>
      <trkpt lat="43.5409" lon="6.30915">
        <ele>365.2</ele>
        <time>2021-04-25T13:20:02Z</time>
      </trkpt>
      <trkpt lat="43.5409" lon="6.30928">
        <ele>365</ele>
        <time>2021-04-25T13:20:10Z</time>
      </trkpt>
      <trkpt lat="43.54089" lon="6.30941">
        <ele>364.8</ele>
        <time>2021-04-25T13:20:19Z</time>
      </trkpt>
      <trkpt lat="43.54088" lon="6.30954">
        <ele>364.5</ele>
        <time>2021-04-25T13:20:28Z</time>
      </trkpt>
      <trkpt lat="43.54087" lon="6.30967">
        <ele>364.5</ele>
        <time>2021-04-25T13:20:37Z</time>
      </trkpt>
      <trkpt lat="43.54086" lon="6.30981">
        <ele>364.2</ele>
        <time>2021-04-25T13:20:46Z</time>
      </trkpt>
      <trkpt lat="43.54086" lon="6.30994">
        <ele>364.2</ele>
        <time>2021-04-25T13:20:55Z</time>
      </trkpt>
      <trkpt lat="43.54085" lon="6.31008">
        <ele>363.9</ele>
        <time>2021-04-25T13:21:04Z</time>
      </trkpt>
      <trkpt lat="43.54085" lon="6.31021">
        <ele>364.2</ele>
        <time>2021-04-25T13:21:13Z</time>
      </trkpt>
      <trkpt lat="43.54083" lon="6.31033">
        <ele>365</ele>
        <time>2021-04-25T13:21:22Z</time>
      </trkpt>
      <trkpt lat="43.54086" lon="6.31046">
        <ele>366.8</ele>
        <time>2021-04-25T13:21:32Z</time>
      </trkpt>
      <trkpt lat="43.54088" lon="6.31059">
        <ele>367.1</ele>
        <time>2021-04-25T13:21:40Z</time>
      </trkpt>
      <trkpt lat="43.54088" lon="6.31073">
        <ele>367</ele>
        <time>2021-04-25T13:21:48Z</time>
      </trkpt>
      <trkpt lat="43.54087" lon="6.31086">
        <ele>367.3</ele>
        <time>2021-04-25T13:21:57Z</time>
      </trkpt>
      <trkpt lat="43.54088" lon="6.31099">
        <ele>366.7</ele>
        <time>2021-04-25T13:22:06Z</time>
      </trkpt>
      <trkpt lat="43.54091" lon="6.31104">
        <ele>366.3</ele>
        <time>2021-04-25T13:22:14Z</time>
      </trkpt>
      <trkpt lat="43.54091" lon="6.31104">
        <ele>366.8</ele>
        <time>2021-04-25T13:22:18Z</time>
      </trkpt>
      <trkpt lat="43.54092" lon="6.31104">
        <ele>366.8</ele>
        <time>2021-04-25T13:22:20Z</time>
      </trkpt>
      <trkpt lat="43.54092" lon="6.31104">
        <ele>366.9</ele>
        <time>2021-04-25T13:22:25Z</time>
      </trkpt>
      <trkpt lat="43.541" lon="6.31097">
        <ele>366.7</ele>
        <time>2021-04-25T13:22:34Z</time>
      </trkpt>
      <trkpt lat="43.54105" lon="6.31107">
        <ele>366.7</ele>
        <time>2021-04-25T13:22:44Z</time>
      </trkpt>
      <trkpt lat="43.54107" lon="6.3112">
        <ele>366.8</ele>
        <time>2021-04-25T13:22:53Z</time>
      </trkpt>
      <trkpt lat="43.54111" lon="6.31132">
        <ele>366.9</ele>
        <time>2021-04-25T13:23:01Z</time>
      </trkpt>
      <trkpt lat="43.54114" lon="6.31144">
        <ele>366.7</ele>
        <time>2021-04-25T13:23:10Z</time>
      </trkpt>
      <trkpt lat="43.54115" lon="6.31157">
        <ele>367</ele>
        <time>2021-04-25T13:23:20Z</time>
      </trkpt>
      <trkpt lat="43.54116" lon="6.31171">
        <ele>367.1</ele>
        <time>2021-04-25T13:23:28Z</time>
      </trkpt>
      <trkpt lat="43.54116" lon="6.31184">
        <ele>367.3</ele>
        <time>2021-04-25T13:23:37Z</time>
      </trkpt>
      <trkpt lat="43.54117" lon="6.31198">
        <ele>366.9</ele>
        <time>2021-04-25T13:23:46Z</time>
      </trkpt>
      <trkpt lat="43.54121" lon="6.3121">
        <ele>369.2</ele>
        <time>2021-04-25T13:23:55Z</time>
      </trkpt>
      <trkpt lat="43.5412" lon="6.31223">
        <ele>369.1</ele>
        <time>2021-04-25T13:24:06Z</time>
      </trkpt>
      <trkpt lat="43.54123" lon="6.31235">
        <ele>369.5</ele>
        <time>2021-04-25T13:24:16Z</time>
      </trkpt>
      <trkpt lat="43.54127" lon="6.31247">
        <ele>369.1</ele>
        <time>2021-04-25T13:24:23Z</time>
      </trkpt>
      <trkpt lat="43.54133" lon="6.31259">
        <ele>369.1</ele>
        <time>2021-04-25T13:24:31Z</time>
      </trkpt>
      <trkpt lat="43.54137" lon="6.31271">
        <ele>368.9</ele>
        <time>2021-04-25T13:24:38Z</time>
      </trkpt>
      <trkpt lat="43.54142" lon="6.31283">
        <ele>368.9</ele>
        <time>2021-04-25T13:24:46Z</time>
      </trkpt>
      <trkpt lat="43.54148" lon="6.31294">
        <ele>368.8</ele>
        <time>2021-04-25T13:24:54Z</time>
      </trkpt>
      <trkpt lat="43.54154" lon="6.31303">
        <ele>368.6</ele>
        <time>2021-04-25T13:25:03Z</time>
      </trkpt>
      <trkpt lat="43.5416" lon="6.31304">
        <ele>368.7</ele>
        <time>2021-04-25T13:25:13Z</time>
      </trkpt>
      <trkpt lat="43.5416" lon="6.31304">
        <ele>368.6</ele>
        <time>2021-04-25T13:25:18Z</time>
      </trkpt>
      <trkpt lat="43.5416" lon="6.31304">
        <ele>368.7</ele>
        <time>2021-04-25T13:25:19Z</time>
      </trkpt>
      <trkpt lat="43.5416" lon="6.31304">
        <ele>368.7</ele>
        <time>2021-04-25T13:25:22Z</time>
      </trkpt>
      <trkpt lat="43.5417" lon="6.31303">
        <ele>368.9</ele>
        <time>2021-04-25T13:25:31Z</time>
      </trkpt>
      <trkpt lat="43.5418" lon="6.31303">
        <ele>369</ele>
        <time>2021-04-25T13:25:39Z</time>
      </trkpt>
      <trkpt lat="43.54189" lon="6.31302">
        <ele>369</ele>
        <time>2021-04-25T13:25:46Z</time>
      </trkpt>
      <trkpt lat="43.54198" lon="6.31301">
        <ele>368.9</ele>
        <time>2021-04-25T13:25:54Z</time>
      </trkpt>
      <trkpt lat="43.54207" lon="6.31297">
        <ele>369.3</ele>
        <time>2021-04-25T13:26:03Z</time>
      </trkpt>
      <trkpt lat="43.54216" lon="6.31293">
        <ele>369.3</ele>
        <time>2021-04-25T13:26:12Z</time>
      </trkpt>
      <trkpt lat="43.54226" lon="6.31287">
        <ele>369.6</ele>
        <time>2021-04-25T13:26:22Z</time>
      </trkpt>
      <trkpt lat="43.54234" lon="6.31294">
        <ele>369.4</ele>
        <time>2021-04-25T13:26:32Z</time>
      </trkpt>
      <trkpt lat="43.54241" lon="6.31302">
        <ele>368.8</ele>
        <time>2021-04-25T13:26:40Z</time>
      </trkpt>
      <trkpt lat="43.54248" lon="6.31313">
        <ele>368.4</ele>
        <time>2021-04-25T13:26:49Z</time>
      </trkpt>
      <trkpt lat="43.54249" lon="6.31314">
        <ele>368.7</ele>
        <time>2021-04-25T13:26:52Z</time>
      </trkpt>
      <trkpt lat="43.54249" lon="6.31314">
        <ele>368.5</ele>
        <time>2021-04-25T13:26:59Z</time>
      </trkpt>
      <trkpt lat="43.54253" lon="6.31325">
        <ele>368.7</ele>
        <time>2021-04-25T13:27:16Z</time>
      </trkpt>
      <trkpt lat="43.54257" lon="6.31337">
        <ele>368.4</ele>
        <time>2021-04-25T13:27:26Z</time>
      </trkpt>
      <trkpt lat="43.54257" lon="6.31338">
        <ele>368.4</ele>
        <time>2021-04-25T13:27:27Z</time>
      </trkpt>
      <trkpt lat="43.54257" lon="6.31338">
        <ele>368.4</ele>
        <time>2021-04-25T13:27:27Z</time>
      </trkpt>
    </trkseg>
  </trk>
</gpx>